<?xml version='1.0' encoding='UTF-8'?><gpx version="1.1" creator="JPX - https://github.com/jenetics/jpx" xmlns="http://www.topografix.com/GPX/1/1"><trk><trkseg><trkpt lat="38.09902921813937" lon="13.166182920796922"><ele>463.6</ele><time>2026-05-03T07:27:58Z</time></trkpt><trkpt lat="38.09913519229805" lon="13.166184135094941"><ele>468.2</ele><time>2026-05-03T07:28:29Z</time></trkpt><trkpt lat="38.099190829807064" lon="13.166145049722033"><ele>472.80000000000007</ele><time>2026-05-03T07:28:31Z</time></trkpt><trkpt lat="38.09926824400983" lon="13.166113518624964"><ele>477.40000000000003</ele><time>2026-05-03T07:28:33Z</time></trkpt><trkpt lat="38.099339995482495" lon="13.166101407874708"><ele>482.0</ele><time>2026-05-03T07:28:35Z</time></trkpt><trkpt lat="38.09955504264682" lon="13.166062516836218"><ele>481.99999999999994</ele><time>2026-05-03T07:28:45Z</time></trkpt><trkpt lat="38.099493578594064" lon="13.166014566067428"><ele>482.0</ele><time>2026-05-03T07:28:54Z</time></trkpt><trkpt lat="38.099423674415206" lon="13.166056277975171"><ele>482.0</ele><time>2026-05-03T07:29:00Z</time></trkpt><trkpt lat="38.09935969595037" lon="13.16606500927769"><ele>482.0</ele><time>2026-05-03T07:29:03Z</time></trkpt><trkpt lat="38.09926977379558" lon="13.166111314192976"><ele>481.99999999999994</ele><time>2026-05-03T07:29:07Z</time></trkpt><trkpt lat="38.09917523434621" lon="13.166136272656965"><ele>482.0</ele><time>2026-05-03T07:29:11Z</time></trkpt><trkpt lat="38.099097375858" lon="13.16607984296785"><ele>477.40000000000003</ele><time>2026-05-03T07:29:13Z</time></trkpt><trkpt lat="38.099019090479544" lon="13.166056572429001"><ele>472.80000000000007</ele><time>2026-05-03T07:29:16Z</time></trkpt><trkpt lat="38.09893377839415" lon="13.16611325102241"><ele>468.2</ele><time>2026-05-03T07:29:18Z</time></trkpt><trkpt lat="38.098867899684976" lon="13.166182285062982"><ele>463.6</ele><time>2026-05-03T07:29:20Z</time></trkpt><trkpt lat="38.09884811959903" lon="13.166331689171917"><ele>459.0</ele><time>2026-05-03T07:29:22Z</time></trkpt><trkpt lat="38.09881629421331" lon="13.166436333733577"><ele>459.0</ele><time>2026-05-03T07:29:24Z</time></trkpt><trkpt lat="38.098722578054634" lon="13.166390775485874"><ele>459.0</ele><time>2026-05-03T07:29:27Z</time></trkpt><trkpt lat="38.09867711408973" lon="13.166309662061325"><ele>459.0</ele><time>2026-05-03T07:29:28Z</time></trkpt><trkpt lat="38.098615148019526" lon="13.166203197406146"><ele>459.0</ele><time>2026-05-03T07:29:29Z</time></trkpt><trkpt lat="38.098539761695164" lon="13.16611834889061"><ele>459.0</ele><time>2026-05-03T07:29:30Z</time></trkpt><trkpt lat="38.09848214995695" lon="13.166057953320717"><ele>459.0</ele><time>2026-05-03T07:29:31Z</time></trkpt><trkpt lat="38.09839522757204" lon="13.165946209023087"><ele>459.0</ele><time>2026-05-03T07:29:33Z</time></trkpt><trkpt lat="38.098367537545364" lon="13.165865571471024"><ele>459.0</ele><time>2026-05-03T07:29:34Z</time></trkpt><trkpt lat="38.09834609699688" lon="13.16575421421061"><ele>459.0</ele><time>2026-05-03T07:29:35Z</time></trkpt><trkpt lat="38.09831610674494" lon="13.165663863622157"><ele>459.0</ele><time>2026-05-03T07:29:36Z</time></trkpt><trkpt lat="38.098225614809365" lon="13.165531851598088"><ele>455.2</ele><time>2026-05-03T07:29:38Z</time></trkpt><trkpt lat="38.09812721353415" lon="13.165484946310468"><ele>451.4</ele><time>2026-05-03T07:29:39Z</time></trkpt><trkpt lat="38.09803123807904" lon="13.165436646300607"><ele>447.6</ele><time>2026-05-03T07:29:40Z</time></trkpt><trkpt lat="38.09793696509613" lon="13.16537639182526"><ele>443.8</ele><time>2026-05-03T07:29:41Z</time></trkpt><trkpt lat="38.09784747727865" lon="13.165290616620783"><ele>440.0</ele><time>2026-05-03T07:29:42Z</time></trkpt><trkpt lat="38.097757543168704" lon="13.165207729314341"><ele>440.0</ele><time>2026-05-03T07:29:43Z</time></trkpt><trkpt lat="38.09765350716392" lon="13.165152411748808"><ele>440.0</ele><time>2026-05-03T07:29:44Z</time></trkpt><trkpt lat="38.09756907128881" lon="13.165076353843597"><ele>440.0</ele><time>2026-05-03T07:29:45Z</time></trkpt><trkpt lat="38.0974733703444" lon="13.165071300549727"><ele>440.0</ele><time>2026-05-03T07:29:46Z</time></trkpt><trkpt lat="38.09739291099878" lon="13.16503748282225"><ele>440.0</ele><time>2026-05-03T07:29:47Z</time></trkpt><trkpt lat="38.09730074240014" lon="13.165073926230143"><ele>435.75</ele><time>2026-05-03T07:29:48Z</time></trkpt><trkpt lat="38.09718962763873" lon="13.165102235247122"><ele>431.5</ele><time>2026-05-03T07:29:49Z</time></trkpt><trkpt lat="38.097062288561844" lon="13.16510475608761"><ele>427.25</ele><time>2026-05-03T07:29:50Z</time></trkpt><trkpt lat="38.09693585295973" lon="13.165123336361116"><ele>423.0</ele><time>2026-05-03T07:29:51Z</time></trkpt><trkpt lat="38.0968255206984" lon="13.165139550190398"><ele>423.0</ele><time>2026-05-03T07:29:52Z</time></trkpt><trkpt lat="38.09673268963628" lon="13.165147265754896"><ele>423.0</ele><time>2026-05-03T07:29:53Z</time></trkpt><trkpt lat="38.09665835147387" lon="13.165145415989176"><ele>423.0</ele><time>2026-05-03T07:29:54Z</time></trkpt><trkpt lat="38.096591611080015" lon="13.165144716853252"><ele>423.0</ele><time>2026-05-03T07:29:55Z</time></trkpt><trkpt lat="38.09653340990585" lon="13.165095635112113"><ele>423.0</ele><time>2026-05-03T07:29:56Z</time></trkpt><trkpt lat="38.09647253822834" lon="13.16503851512134"><ele>423.0</ele><time>2026-05-03T07:29:57Z</time></trkpt><trkpt lat="38.09641801308872" lon="13.164974475937328"><ele>420.0</ele><time>2026-05-03T07:29:58Z</time></trkpt><trkpt lat="38.09639254921477" lon="13.164883868120064"><ele>417.0</ele><time>2026-05-03T07:29:59Z</time></trkpt><trkpt lat="38.09633808417245" lon="13.164824321439005"><ele>414.0</ele><time>2026-05-03T07:30:00Z</time></trkpt><trkpt lat="38.09630019377941" lon="13.164755714965857"><ele>411.0</ele><time>2026-05-03T07:30:01Z</time></trkpt><trkpt lat="38.09622498480036" lon="13.164680834796755"><ele>408.0</ele><time>2026-05-03T07:30:02Z</time></trkpt><trkpt lat="38.09614591637464" lon="13.164589490824916"><ele>405.0</ele><time>2026-05-03T07:30:03Z</time></trkpt><trkpt lat="38.09606461889207" lon="13.164519533646478"><ele>405.0</ele><time>2026-05-03T07:30:04Z</time></trkpt><trkpt lat="38.09599775648947" lon="13.164406311236265"><ele>405.0</ele><time>2026-05-03T07:30:05Z</time></trkpt><trkpt lat="38.09593320052865" lon="13.164294606182697"><ele>405.0</ele><time>2026-05-03T07:30:06Z</time></trkpt><trkpt lat="38.09587765565533" lon="13.164199589298294"><ele>405.0</ele><time>2026-05-03T07:30:07Z</time></trkpt><trkpt lat="38.09582711068544" lon="13.164096620761647"><ele>405.0</ele><time>2026-05-03T07:30:08Z</time></trkpt><trkpt lat="38.09577312699735" lon="13.163969422020472"><ele>402.2</ele><time>2026-05-03T07:30:09Z</time></trkpt><trkpt lat="38.09571581381895" lon="13.163839257874205"><ele>399.4</ele><time>2026-05-03T07:30:10Z</time></trkpt><trkpt lat="38.095651995684705" lon="13.163728655842469"><ele>396.6</ele><time>2026-05-03T07:30:11Z</time></trkpt><trkpt lat="38.09558721340614" lon="13.163633955915808"><ele>393.8</ele><time>2026-05-03T07:30:12Z</time></trkpt><trkpt lat="38.095529179681776" lon="13.163547259295605"><ele>391.0</ele><time>2026-05-03T07:30:13Z</time></trkpt><trkpt lat="38.09548953429781" lon="13.163470307630991"><ele>391.0</ele><time>2026-05-03T07:30:14Z</time></trkpt><trkpt lat="38.09548804838752" lon="13.163312990564004"><ele>391.0</ele><time>2026-05-03T07:30:16Z</time></trkpt><trkpt lat="38.09548332839694" lon="13.16317987513157"><ele>391.0</ele><time>2026-05-03T07:30:17Z</time></trkpt><trkpt lat="38.09545526573197" lon="13.163070078422262"><ele>391.0</ele><time>2026-05-03T07:30:18Z</time></trkpt><trkpt lat="38.09543736726729" lon="13.162972410359489"><ele>391.0</ele><time>2026-05-03T07:30:19Z</time></trkpt><trkpt lat="38.09539811719639" lon="13.162892361224797"><ele>390.6666666666667</ele><time>2026-05-03T07:30:20Z</time></trkpt><trkpt lat="38.09536913552905" lon="13.162811069780757"><ele>390.33333333333337</ele><time>2026-05-03T07:30:21Z</time></trkpt><trkpt lat="38.09531683402884" lon="13.162752330017263"><ele>390.0</ele><time>2026-05-03T07:30:22Z</time></trkpt><trkpt lat="38.09526779188934" lon="13.162674542299065"><ele>389.66666666666663</ele><time>2026-05-03T07:30:23Z</time></trkpt><trkpt lat="38.09521696838169" lon="13.162614098246056"><ele>389.3333333333333</ele><time>2026-05-03T07:30:24Z</time></trkpt><trkpt lat="38.09514932991272" lon="13.162560399029227"><ele>389.0</ele><time>2026-05-03T07:30:25Z</time></trkpt><trkpt lat="38.09508343001478" lon="13.162469553299267"><ele>387.3333333333333</ele><time>2026-05-03T07:30:26Z</time></trkpt><trkpt lat="38.09497661100276" lon="13.162346241853951"><ele>385.66666666666663</ele><time>2026-05-03T07:30:27Z</time></trkpt><trkpt lat="38.094857735815296" lon="13.1622221167441"><ele>384.0</ele><time>2026-05-03T07:30:28Z</time></trkpt><trkpt lat="38.094732345231726" lon="13.162063198467472"><ele>380.75</ele><time>2026-05-03T07:30:29Z</time></trkpt><trkpt lat="38.09458239834277" lon="13.161937679133072"><ele>377.5</ele><time>2026-05-03T07:30:30Z</time></trkpt><trkpt lat="38.09447751899872" lon="13.161827905327055"><ele>374.25</ele><time>2026-05-03T07:30:31Z</time></trkpt><trkpt lat="38.09439840050104" lon="13.161750664715274"><ele>371.0</ele><time>2026-05-03T07:30:32Z</time></trkpt><trkpt lat="38.09432895729278" lon="13.16168981587788"><ele>371.0</ele><time>2026-05-03T07:30:33Z</time></trkpt><trkpt lat="38.09426073860247" lon="13.16162556334802"><ele>371.0</ele><time>2026-05-03T07:30:34Z</time></trkpt><trkpt lat="38.09418944314545" lon="13.161557312460957"><ele>371.0</ele><time>2026-05-03T07:30:35Z</time></trkpt><trkpt lat="38.0941163731981" lon="13.161493612536132"><ele>371.0</ele><time>2026-05-03T07:30:36Z</time></trkpt><trkpt lat="38.09404079669196" lon="13.161433148107628"><ele>371.0</ele><time>2026-05-03T07:30:37Z</time></trkpt><trkpt lat="38.09397645442865" lon="13.161378978963572"><ele>371.0</ele><time>2026-05-03T07:30:38Z</time></trkpt><trkpt lat="38.09390491566639" lon="13.161322625161963"><ele>367.4</ele><time>2026-05-03T07:30:39Z</time></trkpt><trkpt lat="38.093802401631095" lon="13.161319754536509"><ele>363.8</ele><time>2026-05-03T07:30:40Z</time></trkpt><trkpt lat="38.093712294694406" lon="13.161281495720983"><ele>360.2</ele><time>2026-05-03T07:30:41Z</time></trkpt><trkpt lat="38.093638883208094" lon="13.161227699487513"><ele>356.59999999999997</ele><time>2026-05-03T07:30:42Z</time></trkpt><trkpt lat="38.09355962491362" lon="13.161174465736476"><ele>353.0</ele><time>2026-05-03T07:30:43Z</time></trkpt><trkpt lat="38.09350068546574" lon="13.161109350857506"><ele>353.0</ele><time>2026-05-03T07:30:44Z</time></trkpt><trkpt lat="38.09342225452527" lon="13.161056337436891"><ele>353.0</ele><time>2026-05-03T07:30:45Z</time></trkpt><trkpt lat="38.09335171371182" lon="13.160981287075263"><ele>353.0</ele><time>2026-05-03T07:30:46Z</time></trkpt><trkpt lat="38.093281995077355" lon="13.160907160919098"><ele>353.0</ele><time>2026-05-03T07:30:47Z</time></trkpt><trkpt lat="38.09321603846411" lon="13.16083239974778"><ele>353.0</ele><time>2026-05-03T07:30:48Z</time></trkpt><trkpt lat="38.09315107095059" lon="13.160764463987174"><ele>353.0</ele><time>2026-05-03T07:30:49Z</time></trkpt><trkpt lat="38.09308485216687" lon="13.160679510080675"><ele>349.0</ele><time>2026-05-03T07:30:50Z</time></trkpt><trkpt lat="38.093010668557525" lon="13.160600635045988"><ele>345.0</ele><time>2026-05-03T07:30:51Z</time></trkpt><trkpt lat="38.0929360709443" lon="13.160522630453059"><ele>341.0</ele><time>2026-05-03T07:30:52Z</time></trkpt><trkpt lat="38.09286286648453" lon="13.160435951366189"><ele>337.0</ele><time>2026-05-03T07:30:53Z</time></trkpt><trkpt lat="38.09280121207801" lon="13.160343679120286"><ele>333.0</ele><time>2026-05-03T07:30:54Z</time></trkpt><trkpt lat="38.092755295651294" lon="13.160262092505986"><ele>333.0</ele><time>2026-05-03T07:30:55Z</time></trkpt><trkpt lat="38.09270046797266" lon="13.160174404302131"><ele>333.0</ele><time>2026-05-03T07:30:56Z</time></trkpt><trkpt lat="38.09264237675503" lon="13.160102426752182"><ele>333.0</ele><time>2026-05-03T07:30:57Z</time></trkpt><trkpt lat="38.09256056905747" lon="13.160020807867177"><ele>333.0</ele><time>2026-05-03T07:30:58Z</time></trkpt><trkpt lat="38.092493337222656" lon="13.15993644234066"><ele>333.0</ele><time>2026-05-03T07:30:59Z</time></trkpt><trkpt lat="38.09241340693063" lon="13.159886178876075"><ele>329.3333333333333</ele><time>2026-05-03T07:31:00Z</time></trkpt><trkpt lat="38.092362665541884" lon="13.159793935952452"><ele>325.6666666666667</ele><time>2026-05-03T07:31:01Z</time></trkpt><trkpt lat="38.09230671618784" lon="13.159721607344684"><ele>322.0</ele><time>2026-05-03T07:31:02Z</time></trkpt><trkpt lat="38.09227517588197" lon="13.15962738120094"><ele>318.33333333333337</ele><time>2026-05-03T07:31:03Z</time></trkpt><trkpt lat="38.092240179132595" lon="13.159560553640118"><ele>314.6666666666667</ele><time>2026-05-03T07:31:04Z</time></trkpt><trkpt lat="38.09220046658351" lon="13.15949613216081"><ele>311.0</ele><time>2026-05-03T07:31:05Z</time></trkpt><trkpt lat="38.09211391165462" lon="13.159524526012273"><ele>311.0</ele><time>2026-05-03T07:31:06Z</time></trkpt><trkpt lat="38.092037559432086" lon="13.159510924288982"><ele>311.0</ele><time>2026-05-03T07:31:07Z</time></trkpt><trkpt lat="38.09196357740196" lon="13.159499029082987"><ele>311.0</ele><time>2026-05-03T07:31:08Z</time></trkpt><trkpt lat="38.091887406363966" lon="13.159484786739986"><ele>311.0</ele><time>2026-05-03T07:31:09Z</time></trkpt><trkpt lat="38.09182234321681" lon="13.159456065495522"><ele>311.0</ele><time>2026-05-03T07:31:10Z</time></trkpt><trkpt lat="38.09176884506656" lon="13.159408808642505"><ele>311.0</ele><time>2026-05-03T07:31:11Z</time></trkpt><trkpt lat="38.09170888574387" lon="13.159356374953235"><ele>311.0</ele><time>2026-05-03T07:31:12Z</time></trkpt><trkpt lat="38.091650725021644" lon="13.159301915185557"><ele>309.8</ele><time>2026-05-03T07:31:13Z</time></trkpt><trkpt lat="38.09155622834491" lon="13.159223091215173"><ele>308.6</ele><time>2026-05-03T07:31:15Z</time></trkpt><trkpt lat="38.09146653918941" lon="13.159116058405187"><ele>307.4</ele><time>2026-05-03T07:31:17Z</time></trkpt><trkpt lat="38.09140652719288" lon="13.159081241593722"><ele>306.2</ele><time>2026-05-03T07:31:18Z</time></trkpt><trkpt lat="38.091322789606565" lon="13.158992205286664"><ele>305.0</ele><time>2026-05-03T07:31:20Z</time></trkpt><trkpt lat="38.09124292066862" lon="13.158891698608588"><ele>302.6</ele><time>2026-05-03T07:31:22Z</time></trkpt><trkpt lat="38.09119224600486" lon="13.158822584660252"><ele>300.2</ele><time>2026-05-03T07:31:23Z</time></trkpt><trkpt lat="38.09111030339136" lon="13.15871330468244"><ele>297.8</ele><time>2026-05-03T07:31:25Z</time></trkpt><trkpt lat="38.09103630748564" lon="13.158643660872913"><ele>295.4</ele><time>2026-05-03T07:31:27Z</time></trkpt><trkpt lat="38.09090934701905" lon="13.158587433776473"><ele>293.0</ele><time>2026-05-03T07:31:29Z</time></trkpt><trkpt lat="38.09082166641482" lon="13.158556125222521"><ele>291.57142857142856</ele><time>2026-05-03T07:31:30Z</time></trkpt><trkpt lat="38.0907453661109" lon="13.158526820480354"><ele>290.1428571428571</ele><time>2026-05-03T07:31:31Z</time></trkpt><trkpt lat="38.090669852137815" lon="13.158501347708823"><ele>288.7142857142857</ele><time>2026-05-03T07:31:32Z</time></trkpt><trkpt lat="38.09059889876947" lon="13.15846904851206"><ele>287.2857142857143</ele><time>2026-05-03T07:31:33Z</time></trkpt><trkpt lat="38.090534297730635" lon="13.15844922332202"><ele>285.8571428571429</ele><time>2026-05-03T07:31:34Z</time></trkpt><trkpt lat="38.09046394844138" lon="13.158420722315425"><ele>284.42857142857144</ele><time>2026-05-03T07:31:35Z</time></trkpt><trkpt lat="38.09039867342128" lon="13.15839753063281"><ele>283.0</ele><time>2026-05-03T07:31:36Z</time></trkpt><trkpt lat="38.09032613383019" lon="13.15836706884325"><ele>283.0</ele><time>2026-05-03T07:31:37Z</time></trkpt><trkpt lat="38.090259537247164" lon="13.158343027947513"><ele>283.0</ele><time>2026-05-03T07:31:38Z</time></trkpt><trkpt lat="38.090198266889445" lon="13.158323437749058"><ele>283.0</ele><time>2026-05-03T07:31:39Z</time></trkpt><trkpt lat="38.090136309505084" lon="13.158307245862405"><ele>283.0</ele><time>2026-05-03T07:31:40Z</time></trkpt><trkpt lat="38.09007151010216" lon="13.1582886621158"><ele>283.0</ele><time>2026-05-03T07:31:41Z</time></trkpt><trkpt lat="38.089958233304465" lon="13.158257974635196"><ele>283.0</ele><time>2026-05-03T07:31:43Z</time></trkpt><trkpt lat="38.08984087556867" lon="13.158229735400601"><ele>283.2</ele><time>2026-05-03T07:31:45Z</time></trkpt><trkpt lat="38.08976020100901" lon="13.15821390013312"><ele>283.4</ele><time>2026-05-03T07:31:46Z</time></trkpt><trkpt lat="38.089678126056704" lon="13.158197245041373"><ele>283.59999999999997</ele><time>2026-05-03T07:31:47Z</time></trkpt><trkpt lat="38.08957459367304" lon="13.15817050040415"><ele>283.8</ele><time>2026-05-03T07:31:48Z</time></trkpt><trkpt lat="38.08948218321481" lon="13.158127197263479"><ele>284.0</ele><time>2026-05-03T07:31:49Z</time></trkpt><trkpt lat="38.08940411008428" lon="13.158094115187744"><ele>284.0</ele><time>2026-05-03T07:31:50Z</time></trkpt><trkpt lat="38.089326307707914" lon="13.158083515638427"><ele>284.0</ele><time>2026-05-03T07:31:51Z</time></trkpt><trkpt lat="38.08924390528873" lon="13.158052012324676"><ele>284.0</ele><time>2026-05-03T07:31:53Z</time></trkpt><trkpt lat="38.0891113734501" lon="13.158236731299509"><ele>284.0</ele><time>2026-05-03T07:31:55Z</time></trkpt><trkpt lat="38.089092273064125" lon="13.158344598086583"><ele>284.0</ele><time>2026-05-03T07:31:56Z</time></trkpt><trkpt lat="38.08908179988945" lon="13.158442038256965"><ele>280.8</ele><time>2026-05-03T07:31:57Z</time></trkpt><trkpt lat="38.08905994936573" lon="13.15852543190559"><ele>277.59999999999997</ele><time>2026-05-03T07:31:58Z</time></trkpt><trkpt lat="38.08904048941863" lon="13.158622285646706"><ele>274.4</ele><time>2026-05-03T07:31:59Z</time></trkpt><trkpt lat="38.089027346548775" lon="13.158739400227415"><ele>271.2</ele><time>2026-05-03T07:32:00Z</time></trkpt><trkpt lat="38.0890026665692" lon="13.158866623514887"><ele>268.0</ele><time>2026-05-03T07:32:01Z</time></trkpt><trkpt lat="38.08897789937122" lon="13.159011144515981"><ele>268.75</ele><time>2026-05-03T07:32:02Z</time></trkpt><trkpt lat="38.08895326909263" lon="13.15916379105259"><ele>269.5</ele><time>2026-05-03T07:32:03Z</time></trkpt><trkpt lat="38.088927610939244" lon="13.1593303207355"><ele>270.25</ele><time>2026-05-03T07:32:04Z</time></trkpt><trkpt lat="38.088903130113025" lon="13.159497228087082"><ele>271.0</ele><time>2026-05-03T07:32:05Z</time></trkpt><trkpt lat="38.08888020325765" lon="13.159655864929253"><ele>271.0</ele><time>2026-05-03T07:32:06Z</time></trkpt><trkpt lat="38.08885656521368" lon="13.159794356796688"><ele>271.0</ele><time>2026-05-03T07:32:07Z</time></trkpt><trkpt lat="38.088846166858005" lon="13.159947091141541"><ele>271.0</ele><time>2026-05-03T07:32:08Z</time></trkpt><trkpt lat="38.08881980601726" lon="13.160103829534284"><ele>271.0</ele><time>2026-05-03T07:32:09Z</time></trkpt><trkpt lat="38.088795611603224" lon="13.16026348744497"><ele>271.5</ele><time>2026-05-03T07:32:10Z</time></trkpt><trkpt lat="38.0887632582087" lon="13.160422453862745"><ele>272.0</ele><time>2026-05-03T07:32:11Z</time></trkpt><trkpt lat="38.088729997674605" lon="13.160563180310977"><ele>272.5</ele><time>2026-05-03T07:32:12Z</time></trkpt><trkpt lat="38.08870204146446" lon="13.160698172387578"><ele>273.0</ele><time>2026-05-03T07:32:13Z</time></trkpt><trkpt lat="38.088690023498906" lon="13.16083391355933"><ele>273.25</ele><time>2026-05-03T07:32:14Z</time></trkpt><trkpt lat="38.08869166346943" lon="13.160970249121716"><ele>273.5</ele><time>2026-05-03T07:32:15Z</time></trkpt><trkpt lat="38.08870601520572" lon="13.161120567016308"><ele>273.75</ele><time>2026-05-03T07:32:16Z</time></trkpt><trkpt lat="38.08872596043302" lon="13.161279325595178"><ele>274.0</ele><time>2026-05-03T07:32:17Z</time></trkpt><trkpt lat="38.08874911624256" lon="13.161440474400543"><ele>274.25</ele><time>2026-05-03T07:32:18Z</time></trkpt><trkpt lat="38.08875183369913" lon="13.161605415428417"><ele>274.5</ele><time>2026-05-03T07:32:19Z</time></trkpt><trkpt lat="38.08878912677534" lon="13.16175315570281"><ele>274.75</ele><time>2026-05-03T07:32:20Z</time></trkpt><trkpt lat="38.08880867429781" lon="13.161902535484076"><ele>275.0</ele><time>2026-05-03T07:32:21Z</time></trkpt><trkpt lat="38.08882726242345" lon="13.162053070958866"><ele>275.0</ele><time>2026-05-03T07:32:22Z</time></trkpt><trkpt lat="38.08884476069465" lon="13.162207164709406"><ele>275.0</ele><time>2026-05-03T07:32:23Z</time></trkpt><trkpt lat="38.0888610332405" lon="13.162366233283416"><ele>275.0</ele><time>2026-05-03T07:32:24Z</time></trkpt><trkpt lat="38.08885083379355" lon="13.162528565178063"><ele>275.0</ele><time>2026-05-03T07:32:25Z</time></trkpt><trkpt lat="38.08884968320878" lon="13.162694120126867"><ele>274.75</ele><time>2026-05-03T07:32:26Z</time></trkpt><trkpt lat="38.08884186181051" lon="13.16286599968711"><ele>274.5</ele><time>2026-05-03T07:32:27Z</time></trkpt><trkpt lat="38.08883359075477" lon="13.163042899453513"><ele>274.25</ele><time>2026-05-03T07:32:28Z</time></trkpt><trkpt lat="38.088842305893955" lon="13.163214099821591"><ele>274.0</ele><time>2026-05-03T07:32:29Z</time></trkpt><trkpt lat="38.08884415567619" lon="13.163367846654527"><ele>274.0</ele><time>2026-05-03T07:32:30Z</time></trkpt><trkpt lat="38.08885237664917" lon="13.163502404878937"><ele>274.0</ele><time>2026-05-03T07:32:31Z</time></trkpt><trkpt lat="38.08885992184538" lon="13.16360591924017"><ele>274.0</ele><time>2026-05-03T07:32:32Z</time></trkpt><trkpt lat="38.088854605058415" lon="13.163712230902384"><ele>274.0</ele><time>2026-05-03T07:32:33Z</time></trkpt><trkpt lat="38.088817700373184" lon="13.163815723718283"><ele>274.0</ele><time>2026-05-03T07:32:34Z</time></trkpt><trkpt lat="38.08880530366224" lon="13.163922481015158"><ele>274.0</ele><time>2026-05-03T07:32:35Z</time></trkpt><trkpt lat="38.08867259349548" lon="13.164009076461529"><ele>275.0</ele><time>2026-05-03T07:32:36Z</time></trkpt><trkpt lat="38.08860500108968" lon="13.164138048126414"><ele>276.0</ele><time>2026-05-03T07:32:37Z</time></trkpt><trkpt lat="38.08851794797422" lon="13.16429327609876"><ele>277.0</ele><time>2026-05-03T07:32:38Z</time></trkpt><trkpt lat="38.08841547999633" lon="13.164478654946835"><ele>277.0</ele><time>2026-05-03T07:32:39Z</time></trkpt><trkpt lat="38.08831998363787" lon="13.16463854096902"><ele>277.0</ele><time>2026-05-03T07:32:40Z</time></trkpt><trkpt lat="38.08823758729579" lon="13.164782955036854"><ele>277.0</ele><time>2026-05-03T07:32:41Z</time></trkpt><trkpt lat="38.08817134257803" lon="13.164917006386034"><ele>277.0</ele><time>2026-05-03T07:32:42Z</time></trkpt><trkpt lat="38.08812021772153" lon="13.165058411191335"><ele>274.3333333333333</ele><time>2026-05-03T07:32:43Z</time></trkpt><trkpt lat="38.08807581687947" lon="13.165240608829082"><ele>271.6666666666667</ele><time>2026-05-03T07:32:44Z</time></trkpt><trkpt lat="38.088033890295755" lon="13.165437607953978"><ele>269.0</ele><time>2026-05-03T07:32:45Z</time></trkpt><trkpt lat="38.08799396423849" lon="13.165607436652417"><ele>268.5</ele><time>2026-05-03T07:32:46Z</time></trkpt><trkpt lat="38.08795860414674" lon="13.165762487832602"><ele>268.0</ele><time>2026-05-03T07:32:47Z</time></trkpt><trkpt lat="38.08793926490818" lon="13.165918174600145"><ele>267.5</ele><time>2026-05-03T07:32:48Z</time></trkpt><trkpt lat="38.0879318477891" lon="13.166066531844756"><ele>267.0</ele><time>2026-05-03T07:32:49Z</time></trkpt><trkpt lat="38.08794343561035" lon="13.166219969641666"><ele>267.0</ele><time>2026-05-03T07:32:50Z</time></trkpt><trkpt lat="38.08798273061518" lon="13.16637109212076"><ele>267.0</ele><time>2026-05-03T07:32:51Z</time></trkpt><trkpt lat="38.088014073441784" lon="13.166501399211514"><ele>267.0</ele><time>2026-05-03T07:32:52Z</time></trkpt><trkpt lat="38.08802823831299" lon="13.166598150115515"><ele>267.0</ele><time>2026-05-03T07:32:53Z</time></trkpt><trkpt lat="38.08805916449914" lon="13.166786084009333"><ele>266.6</ele><time>2026-05-03T07:32:55Z</time></trkpt><trkpt lat="38.08808848476418" lon="13.1669078159064"><ele>266.2</ele><time>2026-05-03T07:32:56Z</time></trkpt><trkpt lat="38.08812732995464" lon="13.16703969318923"><ele>265.8</ele><time>2026-05-03T07:32:57Z</time></trkpt><trkpt lat="38.08814247123287" lon="13.1671856375162"><ele>265.4</ele><time>2026-05-03T07:32:58Z</time></trkpt><trkpt lat="38.08816713621891" lon="13.16730527172872"><ele>265.0</ele><time>2026-05-03T07:32:59Z</time></trkpt><trkpt lat="38.08818390671474" lon="13.167406993895082"><ele>265.0</ele><time>2026-05-03T07:33:00Z</time></trkpt><trkpt lat="38.088186267684414" lon="13.167499660707964"><ele>265.0</ele><time>2026-05-03T07:33:01Z</time></trkpt><trkpt lat="38.08816551385551" lon="13.167577115356272"><ele>265.0</ele><time>2026-05-03T07:33:02Z</time></trkpt><trkpt lat="38.088128896601255" lon="13.167655744940822"><ele>265.0</ele><time>2026-05-03T07:33:03Z</time></trkpt><trkpt lat="38.08807448408665" lon="13.16773526259623"><ele>265.0</ele><time>2026-05-03T07:33:04Z</time></trkpt><trkpt lat="38.08801037398068" lon="13.167807064238852"><ele>265.0</ele><time>2026-05-03T07:33:05Z</time></trkpt><trkpt lat="38.08792485368927" lon="13.16782955069041"><ele>265.0</ele><time>2026-05-03T07:33:06Z</time></trkpt><trkpt lat="38.08782264528012" lon="13.167860052345137"><ele>265.0</ele><time>2026-05-03T07:33:07Z</time></trkpt><trkpt lat="38.087685482039475" lon="13.167857671296828"><ele>265.0</ele><time>2026-05-03T07:33:08Z</time></trkpt><trkpt lat="38.08753252040596" lon="13.167854711771708"><ele>265.0</ele><time>2026-05-03T07:33:09Z</time></trkpt><trkpt lat="38.08736469416389" lon="13.16785820864944"><ele>264.75</ele><time>2026-05-03T07:33:10Z</time></trkpt><trkpt lat="38.08723362957364" lon="13.167856415879998"><ele>264.5</ele><time>2026-05-03T07:33:11Z</time></trkpt><trkpt lat="38.08711673162357" lon="13.167854963491497"><ele>264.25</ele><time>2026-05-03T07:33:12Z</time></trkpt><trkpt lat="38.08699843466671" lon="13.167859434941027"><ele>264.0</ele><time>2026-05-03T07:33:13Z</time></trkpt><trkpt lat="38.08689049693024" lon="13.167889341163724"><ele>264.0</ele><time>2026-05-03T07:33:14Z</time></trkpt><trkpt lat="38.08680403674271" lon="13.16794517890843"><ele>264.0</ele><time>2026-05-03T07:33:15Z</time></trkpt><trkpt lat="38.086734601499955" lon="13.168022439983133"><ele>264.0</ele><time>2026-05-03T07:33:16Z</time></trkpt><trkpt lat="38.08668775712113" lon="13.168135617809769"><ele>264.0</ele><time>2026-05-03T07:33:17Z</time></trkpt><trkpt lat="38.086647738524235" lon="13.168287660308744"><ele>264.0</ele><time>2026-05-03T07:33:18Z</time></trkpt><trkpt lat="38.08658825911596" lon="13.168443177906077"><ele>263.4</ele><time>2026-05-03T07:33:19Z</time></trkpt><trkpt lat="38.08653906629578" lon="13.168591247981924"><ele>262.79999999999995</ele><time>2026-05-03T07:33:20Z</time></trkpt><trkpt lat="38.086496373696406" lon="13.168717105929678"><ele>262.20000000000005</ele><time>2026-05-03T07:33:21Z</time></trkpt><trkpt lat="38.08647190183832" lon="13.168833089332455"><ele>261.6</ele><time>2026-05-03T07:33:22Z</time></trkpt><trkpt lat="38.08642647203552" lon="13.168920840498993"><ele>261.0</ele><time>2026-05-03T07:33:23Z</time></trkpt><trkpt lat="38.086358683345075" lon="13.168981724590608"><ele>261.0</ele><time>2026-05-03T07:33:24Z</time></trkpt><trkpt lat="38.08626645086797" lon="13.169028606667437"><ele>261.0</ele><time>2026-05-03T07:33:25Z</time></trkpt><trkpt lat="38.086160254911846" lon="13.16902665245058"><ele>261.0</ele><time>2026-05-03T07:33:26Z</time></trkpt><trkpt lat="38.08606294459556" lon="13.169019383021514"><ele>261.0</ele><time>2026-05-03T07:33:27Z</time></trkpt><trkpt lat="38.08597884364646" lon="13.16899724534659"><ele>261.0</ele><time>2026-05-03T07:33:28Z</time></trkpt><trkpt lat="38.08589594707102" lon="13.168912581974487"><ele>261.0</ele><time>2026-05-03T07:33:29Z</time></trkpt><trkpt lat="38.08581220248392" lon="13.168802596118764"><ele>261.0</ele><time>2026-05-03T07:33:30Z</time></trkpt><trkpt lat="38.08573161719985" lon="13.16868092266935"><ele>261.0</ele><time>2026-05-03T07:33:31Z</time></trkpt><trkpt lat="38.08564932578175" lon="13.16856499527559"><ele>261.0</ele><time>2026-05-03T07:33:32Z</time></trkpt><trkpt lat="38.0855681428749" lon="13.16846899576515"><ele>260.40000000000003</ele><time>2026-05-03T07:33:33Z</time></trkpt><trkpt lat="38.08548137626735" lon="13.168388990417604"><ele>259.8</ele><time>2026-05-03T07:33:34Z</time></trkpt><trkpt lat="38.085379302485194" lon="13.168324031112551"><ele>259.20000000000005</ele><time>2026-05-03T07:33:35Z</time></trkpt><trkpt lat="38.08527520120852" lon="13.168272167869665"><ele>258.6</ele><time>2026-05-03T07:33:36Z</time></trkpt><trkpt lat="38.085172111428484" lon="13.168227350805632"><ele>258.0</ele><time>2026-05-03T07:33:37Z</time></trkpt><trkpt lat="38.08506812763524" lon="13.168189798840183"><ele>258.0</ele><time>2026-05-03T07:33:38Z</time></trkpt><trkpt lat="38.08495649850291" lon="13.1681693942474"><ele>258.0</ele><time>2026-05-03T07:33:39Z</time></trkpt><trkpt lat="38.08484570761765" lon="13.168152487211263"><ele>258.0</ele><time>2026-05-03T07:33:40Z</time></trkpt><trkpt lat="38.084738077039724" lon="13.168133825460892"><ele>258.0</ele><time>2026-05-03T07:33:41Z</time></trkpt><trkpt lat="38.084627255841774" lon="13.168118931013266"><ele>258.0</ele><time>2026-05-03T07:33:42Z</time></trkpt><trkpt lat="38.08452207440416" lon="13.168096813469273"><ele>257.2</ele><time>2026-05-03T07:33:43Z</time></trkpt><trkpt lat="38.08441990001631" lon="13.168076982287479"><ele>256.4</ele><time>2026-05-03T07:33:44Z</time></trkpt><trkpt lat="38.08432599391181" lon="13.168055079957634"><ele>255.59999999999997</ele><time>2026-05-03T07:33:45Z</time></trkpt><trkpt lat="38.08424127427584" lon="13.168024381887259"><ele>254.79999999999998</ele><time>2026-05-03T07:33:46Z</time></trkpt><trkpt lat="38.08415265144906" lon="13.167982090814448"><ele>254.0</ele><time>2026-05-03T07:33:47Z</time></trkpt><trkpt lat="38.08406719246848" lon="13.167945224386163"><ele>253.79999999999998</ele><time>2026-05-03T07:33:48Z</time></trkpt><trkpt lat="38.08398075128195" lon="13.167896308842042"><ele>253.59999999999997</ele><time>2026-05-03T07:33:49Z</time></trkpt><trkpt lat="38.083891745952464" lon="13.167847876203094"><ele>253.4</ele><time>2026-05-03T07:33:50Z</time></trkpt><trkpt lat="38.08378322673604" lon="13.167788720369531"><ele>253.2</ele><time>2026-05-03T07:33:51Z</time></trkpt><trkpt lat="38.083657102828816" lon="13.167730812085537"><ele>253.0</ele><time>2026-05-03T07:33:52Z</time></trkpt><trkpt lat="38.0835317043582" lon="13.167659627721228"><ele>253.0</ele><time>2026-05-03T07:33:53Z</time></trkpt><trkpt lat="38.08340390124227" lon="13.16758585780508"><ele>253.0</ele><time>2026-05-03T07:33:54Z</time></trkpt><trkpt lat="38.08328989518705" lon="13.167513833142346"><ele>253.0</ele><time>2026-05-03T07:33:55Z</time></trkpt><trkpt lat="38.08318007726111" lon="13.167459609761213"><ele>253.0</ele><time>2026-05-03T07:33:56Z</time></trkpt><trkpt lat="38.08306041122091" lon="13.16742058344885"><ele>253.5</ele><time>2026-05-03T07:33:57Z</time></trkpt><trkpt lat="38.082926429133195" lon="13.167404593318041"><ele>254.0</ele><time>2026-05-03T07:33:58Z</time></trkpt><trkpt lat="38.08277949413745" lon="13.167394880085928"><ele>254.5</ele><time>2026-05-03T07:33:59Z</time></trkpt><trkpt lat="38.08263799130026" lon="13.167402972559122"><ele>255.0</ele><time>2026-05-03T07:34:00Z</time></trkpt><trkpt lat="38.0825139579269" lon="13.167415744294416"><ele>254.25</ele><time>2026-05-03T07:34:01Z</time></trkpt><trkpt lat="38.082397269547535" lon="13.167423020996107"><ele>253.5</ele><time>2026-05-03T07:34:02Z</time></trkpt><trkpt lat="38.082278527725315" lon="13.167424983991358"><ele>252.75</ele><time>2026-05-03T07:34:03Z</time></trkpt><trkpt lat="38.08215726841683" lon="13.16743141844258"><ele>252.0</ele><time>2026-05-03T07:34:04Z</time></trkpt><trkpt lat="38.08203983477294" lon="13.167436446329429"><ele>252.0</ele><time>2026-05-03T07:34:05Z</time></trkpt><trkpt lat="38.081920440166485" lon="13.16743930644625"><ele>252.0</ele><time>2026-05-03T07:34:06Z</time></trkpt><trkpt lat="38.08180044833178" lon="13.167438130650494"><ele>252.0</ele><time>2026-05-03T07:34:07Z</time></trkpt><trkpt lat="38.081676446449535" lon="13.167444340972965"><ele>252.0</ele><time>2026-05-03T07:34:08Z</time></trkpt><trkpt lat="38.081559481379145" lon="13.16745402718475"><ele>251.5</ele><time>2026-05-03T07:34:09Z</time></trkpt><trkpt lat="38.0814425803221" lon="13.167471473964543"><ele>251.0</ele><time>2026-05-03T07:34:10Z</time></trkpt><trkpt lat="38.08132734234976" lon="13.167504544668075"><ele>250.5</ele><time>2026-05-03T07:34:11Z</time></trkpt><trkpt lat="38.08121059318313" lon="13.167536256216824"><ele>250.0</ele><time>2026-05-03T07:34:12Z</time></trkpt><trkpt lat="38.08109720068072" lon="13.167565660282307"><ele>250.0</ele><time>2026-05-03T07:34:13Z</time></trkpt><trkpt lat="38.08098215554448" lon="13.167633126460506"><ele>250.0</ele><time>2026-05-03T07:34:14Z</time></trkpt><trkpt lat="38.080870161139984" lon="13.167686408716436"><ele>250.0</ele><time>2026-05-03T07:34:15Z</time></trkpt><trkpt lat="38.080776504708105" lon="13.167745923872344"><ele>250.0</ele><time>2026-05-03T07:34:16Z</time></trkpt><trkpt lat="38.080685118514765" lon="13.16782800737025"><ele>249.25</ele><time>2026-05-03T07:34:17Z</time></trkpt><trkpt lat="38.08057579864682" lon="13.16788370789141"><ele>248.5</ele><time>2026-05-03T07:34:18Z</time></trkpt><trkpt lat="38.080465916105744" lon="13.16795392500901"><ele>247.75</ele><time>2026-05-03T07:34:19Z</time></trkpt><trkpt lat="38.08036814098455" lon="13.168033392590347"><ele>247.0</ele><time>2026-05-03T07:34:20Z</time></trkpt><trkpt lat="38.080288038791714" lon="13.168130715362834"><ele>248.0</ele><time>2026-05-03T07:34:21Z</time></trkpt><trkpt lat="38.08022033776278" lon="13.168250740857841"><ele>249.0</ele><time>2026-05-03T07:34:22Z</time></trkpt><trkpt lat="38.080172754442955" lon="13.168411906323596"><ele>250.0</ele><time>2026-05-03T07:34:23Z</time></trkpt><trkpt lat="38.08011554235712" lon="13.168582719051702"><ele>251.0</ele><time>2026-05-03T07:34:24Z</time></trkpt><trkpt lat="38.080063676559845" lon="13.16875855616434"><ele>251.0</ele><time>2026-05-03T07:34:25Z</time></trkpt><trkpt lat="38.08000717087659" lon="13.16895496503898"><ele>251.0</ele><time>2026-05-03T07:34:26Z</time></trkpt><trkpt lat="38.07995156703399" lon="13.169160235463488"><ele>251.0</ele><time>2026-05-03T07:34:27Z</time></trkpt><trkpt lat="38.0798938952247" lon="13.169334428428199"><ele>250.0</ele><time>2026-05-03T07:34:28Z</time></trkpt><trkpt lat="38.07983452605163" lon="13.16949857726637"><ele>249.0</ele><time>2026-05-03T07:34:29Z</time></trkpt><trkpt lat="38.07978609895327" lon="13.169655351918665"><ele>248.0</ele><time>2026-05-03T07:34:30Z</time></trkpt><trkpt lat="38.07973330961832" lon="13.1697855516526"><ele>247.0</ele><time>2026-05-03T07:34:31Z</time></trkpt><trkpt lat="38.07967049318053" lon="13.169894817488249"><ele>247.0</ele><time>2026-05-03T07:34:32Z</time></trkpt><trkpt lat="38.07962015368538" lon="13.170011457922083"><ele>247.0</ele><time>2026-05-03T07:34:33Z</time></trkpt><trkpt lat="38.07956984351028" lon="13.17012124651052"><ele>247.0</ele><time>2026-05-03T07:34:34Z</time></trkpt><trkpt lat="38.07954649243133" lon="13.17025325512376"><ele>247.0</ele><time>2026-05-03T07:34:35Z</time></trkpt><trkpt lat="38.079526061923914" lon="13.170398608880191"><ele>247.0</ele><time>2026-05-03T07:34:36Z</time></trkpt><trkpt lat="38.079495863826494" lon="13.170503705051184"><ele>246.99999999999997</ele><time>2026-05-03T07:34:37Z</time></trkpt><trkpt lat="38.07942044221706" lon="13.170559018240196"><ele>247.0</ele><time>2026-05-03T07:34:38Z</time></trkpt><trkpt lat="38.07935707372383" lon="13.170567633223758"><ele>247.0</ele><time>2026-05-03T07:34:39Z</time></trkpt><trkpt lat="38.07926698901619" lon="13.170542214376612"><ele>247.0</ele><time>2026-05-03T07:34:40Z</time></trkpt><trkpt lat="38.079182088168054" lon="13.17050692913691"><ele>246.99999999999997</ele><time>2026-05-03T07:34:41Z</time></trkpt><trkpt lat="38.07910444530839" lon="13.17042814837298"><ele>247.0</ele><time>2026-05-03T07:34:42Z</time></trkpt><trkpt lat="38.079025810953524" lon="13.170333630535628"><ele>246.66666666666666</ele><time>2026-05-03T07:34:43Z</time></trkpt><trkpt lat="38.07896759006556" lon="13.170174647390926"><ele>246.33333333333331</ele><time>2026-05-03T07:34:44Z</time></trkpt><trkpt lat="38.07888416996105" lon="13.170008009541837"><ele>246.0</ele><time>2026-05-03T07:34:45Z</time></trkpt><trkpt lat="38.07878353633826" lon="13.169838509803771"><ele>246.0</ele><time>2026-05-03T07:34:46Z</time></trkpt><trkpt lat="38.07871932401731" lon="13.169684134790026"><ele>246.0</ele><time>2026-05-03T07:34:47Z</time></trkpt><trkpt lat="38.078654171844406" lon="13.169565321097503"><ele>246.0</ele><time>2026-05-03T07:34:48Z</time></trkpt><trkpt lat="38.07858530068734" lon="13.169449044410682"><ele>246.0</ele><time>2026-05-03T07:34:49Z</time></trkpt><trkpt lat="38.07851245587434" lon="13.169353930835806"><ele>246.0</ele><time>2026-05-03T07:34:50Z</time></trkpt><trkpt lat="38.07843205458494" lon="13.16929181928031"><ele>246.00000000000003</ele><time>2026-05-03T07:34:51Z</time></trkpt><trkpt lat="38.07832903414882" lon="13.16927160848711"><ele>246.00000000000003</ele><time>2026-05-03T07:34:52Z</time></trkpt><trkpt lat="38.078232974920724" lon="13.169283806410116"><ele>246.0</ele><time>2026-05-03T07:34:53Z</time></trkpt><trkpt lat="38.07810502151627" lon="13.169327452174509"><ele>246.0</ele><time>2026-05-03T07:34:54Z</time></trkpt><trkpt lat="38.07797721584621" lon="13.169371284327777"><ele>246.75</ele><time>2026-05-03T07:34:55Z</time></trkpt><trkpt lat="38.07783965576147" lon="13.169436098289266"><ele>247.5</ele><time>2026-05-03T07:34:56Z</time></trkpt><trkpt lat="38.07772540510418" lon="13.169458113119418"><ele>248.25</ele><time>2026-05-03T07:34:57Z</time></trkpt><trkpt lat="38.07759441966556" lon="13.169496947673494"><ele>249.0</ele><time>2026-05-03T07:34:58Z</time></trkpt><trkpt lat="38.0774661796359" lon="13.169525748758797"><ele>248.75</ele><time>2026-05-03T07:34:59Z</time></trkpt><trkpt lat="38.07732535101407" lon="13.169549990622363"><ele>248.5</ele><time>2026-05-03T07:35:00Z</time></trkpt><trkpt lat="38.07718141184547" lon="13.169587782139747"><ele>248.25</ele><time>2026-05-03T07:35:01Z</time></trkpt><trkpt lat="38.077023655936486" lon="13.169608400100378"><ele>248.0</ele><time>2026-05-03T07:35:02Z</time></trkpt><trkpt lat="38.07687927799791" lon="13.16963262141709"><ele>248.0</ele><time>2026-05-03T07:35:03Z</time></trkpt><trkpt lat="38.07674175186481" lon="13.169661905784258"><ele>248.0</ele><time>2026-05-03T07:35:04Z</time></trkpt><trkpt lat="38.07662128370619" lon="13.169711735046027"><ele>248.0</ele><time>2026-05-03T07:35:05Z</time></trkpt><trkpt lat="38.0764948356439" lon="13.169798603437531"><ele>248.0</ele><time>2026-05-03T07:35:06Z</time></trkpt><trkpt lat="38.07635726127278" lon="13.169874760965278"><ele>250.0</ele><time>2026-05-03T07:35:07Z</time></trkpt><trkpt lat="38.07621116259425" lon="13.169964674539026"><ele>252.0</ele><time>2026-05-03T07:35:08Z</time></trkpt><trkpt lat="38.07606510219466" lon="13.17005553710909"><ele>254.0</ele><time>2026-05-03T07:35:09Z</time></trkpt><trkpt lat="38.07593134388863" lon="13.170139160037733"><ele>254.0</ele><time>2026-05-03T07:35:10Z</time></trkpt><trkpt lat="38.07580118925681" lon="13.170207736725331"><ele>254.0</ele><time>2026-05-03T07:35:11Z</time></trkpt><trkpt lat="38.07567281722839" lon="13.17026993982836"><ele>254.0</ele><time>2026-05-03T07:35:12Z</time></trkpt><trkpt lat="38.075559807569185" lon="13.17035047677473"><ele>254.0</ele><time>2026-05-03T07:35:13Z</time></trkpt><trkpt lat="38.075444421197545" lon="13.1704050016144"><ele>252.66666666666669</ele><time>2026-05-03T07:35:14Z</time></trkpt><trkpt lat="38.07534070370777" lon="13.170540837194931"><ele>251.33333333333331</ele><time>2026-05-03T07:35:15Z</time></trkpt><trkpt lat="38.0752180680591" lon="13.170674600627029"><ele>250.0</ele><time>2026-05-03T07:35:16Z</time></trkpt><trkpt lat="38.07510547519718" lon="13.170794716602474"><ele>250.0</ele><time>2026-05-03T07:35:17Z</time></trkpt><trkpt lat="38.074988841487354" lon="13.170887008569885"><ele>250.0</ele><time>2026-05-03T07:35:18Z</time></trkpt><trkpt lat="38.074893787230316" lon="13.170984029118227"><ele>250.0</ele><time>2026-05-03T07:35:19Z</time></trkpt><trkpt lat="38.07481302985642" lon="13.171081006494298"><ele>250.0</ele><time>2026-05-03T07:35:20Z</time></trkpt><trkpt lat="38.074740713919155" lon="13.171167125565912"><ele>249.6</ele><time>2026-05-03T07:35:21Z</time></trkpt><trkpt lat="38.07471159346718" lon="13.171270122116503"><ele>249.2</ele><time>2026-05-03T07:35:22Z</time></trkpt><trkpt lat="38.074709137017706" lon="13.171376265279257"><ele>248.8</ele><time>2026-05-03T07:35:23Z</time></trkpt><trkpt lat="38.0747295672903" lon="13.171498772106181"><ele>248.4</ele><time>2026-05-03T07:35:24Z</time></trkpt><trkpt lat="38.07479483966509" lon="13.171619949453197"><ele>248.0</ele><time>2026-05-03T07:35:25Z</time></trkpt><trkpt lat="38.074833037769494" lon="13.171762672254523"><ele>248.0</ele><time>2026-05-03T07:35:26Z</time></trkpt><trkpt lat="38.07484725306057" lon="13.171893204335962"><ele>248.0</ele><time>2026-05-03T07:35:27Z</time></trkpt><trkpt lat="38.07483263516242" lon="13.172036537494876"><ele>248.0</ele><time>2026-05-03T07:35:28Z</time></trkpt><trkpt lat="38.07481237656505" lon="13.1721924656443"><ele>248.0</ele><time>2026-05-03T07:35:29Z</time></trkpt><trkpt lat="38.074787257864116" lon="13.172360861488787"><ele>249.25</ele><time>2026-05-03T07:35:30Z</time></trkpt><trkpt lat="38.07475650828039" lon="13.17252652341699"><ele>250.5</ele><time>2026-05-03T07:35:31Z</time></trkpt><trkpt lat="38.07472283401772" lon="13.172664785327955"><ele>251.75</ele><time>2026-05-03T07:35:32Z</time></trkpt><trkpt lat="38.07467045011562" lon="13.172777918495472"><ele>253.0</ele><time>2026-05-03T07:35:33Z</time></trkpt><trkpt lat="38.074595378007785" lon="13.172903732700245"><ele>253.0</ele><time>2026-05-03T07:35:34Z</time></trkpt><trkpt lat="38.07450567038513" lon="13.173053533636876"><ele>253.0</ele><time>2026-05-03T07:35:35Z</time></trkpt><trkpt lat="38.07442604916639" lon="13.173228483383626"><ele>253.0</ele><time>2026-05-03T07:35:36Z</time></trkpt><trkpt lat="38.074349815995866" lon="13.17337378263503"><ele>253.0</ele><time>2026-05-03T07:35:37Z</time></trkpt><trkpt lat="38.07429432596128" lon="13.173528026172272"><ele>255.0</ele><time>2026-05-03T07:35:38Z</time></trkpt><trkpt lat="38.07423402790016" lon="13.173694796260925"><ele>257.0</ele><time>2026-05-03T07:35:39Z</time></trkpt><trkpt lat="38.07418275310336" lon="13.17388624527144"><ele>259.0</ele><time>2026-05-03T07:35:40Z</time></trkpt><trkpt lat="38.07413020034147" lon="13.174070764410315"><ele>261.66666666666663</ele><time>2026-05-03T07:35:41Z</time></trkpt><trkpt lat="38.074074397056286" lon="13.174261468523406"><ele>264.3333333333333</ele><time>2026-05-03T07:35:42Z</time></trkpt><trkpt lat="38.07403606431844" lon="13.174468901458523"><ele>267.0</ele><time>2026-05-03T07:35:43Z</time></trkpt><trkpt lat="38.0739979628991" lon="13.174673069890433"><ele>267.0</ele><time>2026-05-03T07:35:44Z</time></trkpt><trkpt lat="38.07399983204813" lon="13.174777433359708"><ele>267.0</ele><time>2026-05-03T07:35:45Z</time></trkpt><trkpt lat="38.07401461822076" lon="13.17494838775396"><ele>267.0</ele><time>2026-05-03T07:35:46Z</time></trkpt><trkpt lat="38.07400960229023" lon="13.17508916908696"><ele>267.0</ele><time>2026-05-03T07:35:47Z</time></trkpt><trkpt lat="38.07399123408157" lon="13.17520841725826"><ele>267.0</ele><time>2026-05-03T07:35:48Z</time></trkpt><trkpt lat="38.073955135377325" lon="13.175285687649975"><ele>267.5714285714286</ele><time>2026-05-03T07:35:49Z</time></trkpt><trkpt lat="38.07388861477747" lon="13.175302372398642"><ele>268.14285714285717</ele><time>2026-05-03T07:35:50Z</time></trkpt><trkpt lat="38.073814656161495" lon="13.175332097786585"><ele>268.7142857142857</ele><time>2026-05-03T07:35:51Z</time></trkpt><trkpt lat="38.07373294500437" lon="13.175351927518586"><ele>269.28571428571433</ele><time>2026-05-03T07:35:52Z</time></trkpt><trkpt lat="38.07366491129602" lon="13.175356379713381"><ele>269.8571428571429</ele><time>2026-05-03T07:35:53Z</time></trkpt><trkpt lat="38.07359717513263" lon="13.175351359564598"><ele>270.42857142857144</ele><time>2026-05-03T07:35:54Z</time></trkpt><trkpt lat="38.073560420073484" lon="13.175257959133036"><ele>271.0</ele><time>2026-05-03T07:35:55Z</time></trkpt><trkpt lat="38.07352210457741" lon="13.175169000052346"><ele>271.0</ele><time>2026-05-03T07:35:56Z</time></trkpt><trkpt lat="38.0734867855517" lon="13.175049103162372"><ele>271.0</ele><time>2026-05-03T07:35:57Z</time></trkpt><trkpt lat="38.07342666830908" lon="13.174899817766587"><ele>271.0</ele><time>2026-05-03T07:35:58Z</time></trkpt><trkpt lat="38.07338115344141" lon="13.174741523830859"><ele>271.0</ele><time>2026-05-03T07:35:59Z</time></trkpt><trkpt lat="38.07332003931087" lon="13.174624324482037"><ele>272.0</ele><time>2026-05-03T07:36:00Z</time></trkpt><trkpt lat="38.0732503448343" lon="13.174531987811713"><ele>273.0</ele><time>2026-05-03T07:36:01Z</time></trkpt><trkpt lat="38.0731785116387" lon="13.174486670143706"><ele>274.0</ele><time>2026-05-03T07:36:02Z</time></trkpt><trkpt lat="38.07308639177151" lon="13.17446315673881"><ele>275.0</ele><time>2026-05-03T07:36:03Z</time></trkpt><trkpt lat="38.07297418023161" lon="13.174460634325506"><ele>276.0</ele><time>2026-05-03T07:36:04Z</time></trkpt><trkpt lat="38.072857792798395" lon="13.17443013584497"><ele>276.0</ele><time>2026-05-03T07:36:05Z</time></trkpt><trkpt lat="38.072758341932584" lon="13.174408847932744"><ele>276.0</ele><time>2026-05-03T07:36:06Z</time></trkpt><trkpt lat="38.07268449190218" lon="13.1743872342368"><ele>276.0</ele><time>2026-05-03T07:36:07Z</time></trkpt><trkpt lat="38.07264083670263" lon="13.174326172762544"><ele>276.0</ele><time>2026-05-03T07:36:08Z</time></trkpt><trkpt lat="38.072587686981876" lon="13.174275181527788"><ele>276.0</ele><time>2026-05-03T07:36:09Z</time></trkpt><trkpt lat="38.07253747453664" lon="13.174221361072684"><ele>276.0</ele><time>2026-05-03T07:36:10Z</time></trkpt><trkpt lat="38.072469830129734" lon="13.174148598796775"><ele>275.5</ele><time>2026-05-03T07:36:12Z</time></trkpt><trkpt lat="38.07243643226083" lon="13.174232157267879"><ele>275.0</ele><time>2026-05-03T07:36:35Z</time></trkpt><trkpt lat="38.07235938959051" lon="13.174180707715538"><ele>274.5</ele><time>2026-05-03T07:36:54Z</time></trkpt><trkpt lat="38.072302250011255" lon="13.174106516187857"><ele>274.0</ele><time>2026-05-03T07:37:16Z</time></trkpt><trkpt lat="38.07220507632407" lon="13.174041348415718"><ele>273.5</ele><time>2026-05-03T07:37:18Z</time></trkpt><trkpt lat="38.07214645223923" lon="13.174009200860347"><ele>273.0</ele><time>2026-05-03T07:37:19Z</time></trkpt><trkpt lat="38.07208671310579" lon="13.17398129288311"><ele>273.0</ele><time>2026-05-03T07:37:20Z</time></trkpt><trkpt lat="38.072015284357434" lon="13.173934335785692"><ele>273.0</ele><time>2026-05-03T07:37:21Z</time></trkpt><trkpt lat="38.07193860564618" lon="13.173907127377918"><ele>273.0</ele><time>2026-05-03T07:37:22Z</time></trkpt><trkpt lat="38.07185844136651" lon="13.173879375592206"><ele>273.0</ele><time>2026-05-03T07:37:23Z</time></trkpt><trkpt lat="38.071767836960774" lon="13.173866328601214"><ele>273.0</ele><time>2026-05-03T07:37:24Z</time></trkpt><trkpt lat="38.071682494436544" lon="13.17383026681535"><ele>273.0</ele><time>2026-05-03T07:37:25Z</time></trkpt><trkpt lat="38.07159253888441" lon="13.173804983384366"><ele>274.6</ele><time>2026-05-03T07:37:26Z</time></trkpt><trkpt lat="38.07149779092903" lon="13.173751951669725"><ele>276.20000000000005</ele><time>2026-05-03T07:37:27Z</time></trkpt><trkpt lat="38.07139282226383" lon="13.173741217283736"><ele>277.8</ele><time>2026-05-03T07:37:28Z</time></trkpt><trkpt lat="38.07129387621207" lon="13.173743497781624"><ele>279.40000000000003</ele><time>2026-05-03T07:37:29Z</time></trkpt><trkpt lat="38.0711939020073" lon="13.173749958075073"><ele>281.0</ele><time>2026-05-03T07:37:30Z</time></trkpt><trkpt lat="38.07110005080605" lon="13.173726125272692"><ele>281.0</ele><time>2026-05-03T07:37:31Z</time></trkpt><trkpt lat="38.071012287506996" lon="13.173729684785572"><ele>281.0</ele><time>2026-05-03T07:37:32Z</time></trkpt><trkpt lat="38.0708916159365" lon="13.173751049193788"><ele>281.0</ele><time>2026-05-03T07:37:33Z</time></trkpt><trkpt lat="38.07079416607309" lon="13.17377444243515"><ele>281.0</ele><time>2026-05-03T07:37:34Z</time></trkpt><trkpt lat="38.07071028906462" lon="13.17382419225225"><ele>281.0</ele><time>2026-05-03T07:37:35Z</time></trkpt><trkpt lat="38.07062308959644" lon="13.173853949369708"><ele>280.0</ele><time>2026-05-03T07:37:36Z</time></trkpt><trkpt lat="38.07053780361082" lon="13.1738846673604"><ele>279.0</ele><time>2026-05-03T07:37:37Z</time></trkpt><trkpt lat="38.07044785246943" lon="13.173915464513575"><ele>278.0</ele><time>2026-05-03T07:37:38Z</time></trkpt><trkpt lat="38.070358642883406" lon="13.173952357600548"><ele>277.0</ele><time>2026-05-03T07:37:39Z</time></trkpt><trkpt lat="38.07027168943201" lon="13.173987899789605"><ele>276.0</ele><time>2026-05-03T07:37:40Z</time></trkpt><trkpt lat="38.07019599722074" lon="13.174063474420198"><ele>280.8</ele><time>2026-05-03T07:37:41Z</time></trkpt><trkpt lat="38.07014336728734" lon="13.17415970383207"><ele>285.6</ele><time>2026-05-03T07:37:42Z</time></trkpt><trkpt lat="38.070114986321805" lon="13.17427025375616"><ele>290.4</ele><time>2026-05-03T07:37:43Z</time></trkpt><trkpt lat="38.070101623835015" lon="13.174398093641576"><ele>295.2</ele><time>2026-05-03T07:37:44Z</time></trkpt><trkpt lat="38.07010062443632" lon="13.174532194688766"><ele>300.0</ele><time>2026-05-03T07:37:45Z</time></trkpt><trkpt lat="38.0701038411838" lon="13.174659255288873"><ele>300.0</ele><time>2026-05-03T07:37:46Z</time></trkpt><trkpt lat="38.070095245467165" lon="13.17478215842651"><ele>300.0</ele><time>2026-05-03T07:37:47Z</time></trkpt><trkpt lat="38.070089626263744" lon="13.174906120521422"><ele>300.0</ele><time>2026-05-03T07:37:48Z</time></trkpt><trkpt lat="38.07008333918978" lon="13.175030363855724"><ele>300.0</ele><time>2026-05-03T07:37:49Z</time></trkpt><trkpt lat="38.07007281380655" lon="13.175150736948169"><ele>300.0</ele><time>2026-05-03T07:37:50Z</time></trkpt><trkpt lat="38.070096392843894" lon="13.175256558044426"><ele>302.6</ele><time>2026-05-03T07:37:51Z</time></trkpt><trkpt lat="38.07010599749406" lon="13.175356097843547"><ele>305.2</ele><time>2026-05-03T07:37:52Z</time></trkpt><trkpt lat="38.070118872884194" lon="13.175489534676291"><ele>307.8</ele><time>2026-05-03T07:37:53Z</time></trkpt><trkpt lat="38.070065196041156" lon="13.175636968450004"><ele>310.4</ele><time>2026-05-03T07:37:54Z</time></trkpt><trkpt lat="38.070041701501516" lon="13.175770239310495"><ele>313.0</ele><time>2026-05-03T07:37:55Z</time></trkpt><trkpt lat="38.070010958589585" lon="13.17590121036365"><ele>315.0</ele><time>2026-05-03T07:37:56Z</time></trkpt><trkpt lat="38.06996601985083" lon="13.176026806793272"><ele>317.0</ele><time>2026-05-03T07:37:57Z</time></trkpt><trkpt lat="38.06991799412167" lon="13.176162912915512"><ele>319.0</ele><time>2026-05-03T07:37:58Z</time></trkpt><trkpt lat="38.06985447528095" lon="13.176285236916815"><ele>321.0</ele><time>2026-05-03T07:37:59Z</time></trkpt><trkpt lat="38.06980612824994" lon="13.176429408616128"><ele>314.75</ele><time>2026-05-03T07:38:00Z</time></trkpt><trkpt lat="38.06976740841928" lon="13.17658634772559"><ele>308.5</ele><time>2026-05-03T07:38:01Z</time></trkpt><trkpt lat="38.06974537131033" lon="13.176737537801195"><ele>302.25</ele><time>2026-05-03T07:38:02Z</time></trkpt><trkpt lat="38.06971662615897" lon="13.176892438191881"><ele>296.0</ele><time>2026-05-03T07:38:03Z</time></trkpt><trkpt lat="38.06968515111153" lon="13.177047353907675"><ele>296.0</ele><time>2026-05-03T07:38:04Z</time></trkpt><trkpt lat="38.06964857251644" lon="13.17719687660153"><ele>296.0</ele><time>2026-05-03T07:38:05Z</time></trkpt><trkpt lat="38.069594833846054" lon="13.17734801745524"><ele>296.0</ele><time>2026-05-03T07:38:06Z</time></trkpt><trkpt lat="38.069554563963145" lon="13.177479755127129"><ele>296.0</ele><time>2026-05-03T07:38:07Z</time></trkpt><trkpt lat="38.06952022813311" lon="13.177591248366438"><ele>298.25</ele><time>2026-05-03T07:38:08Z</time></trkpt><trkpt lat="38.06948703553018" lon="13.177722659329316"><ele>300.5</ele><time>2026-05-03T07:38:09Z</time></trkpt><trkpt lat="38.069458010136486" lon="13.177881297910053"><ele>302.75</ele><time>2026-05-03T07:38:10Z</time></trkpt><trkpt lat="38.069425263054" lon="13.1780531392897"><ele>305.0</ele><time>2026-05-03T07:38:11Z</time></trkpt><trkpt lat="38.06940266650432" lon="13.178218072010004"><ele>307.0</ele><time>2026-05-03T07:38:12Z</time></trkpt><trkpt lat="38.069383381561124" lon="13.178392446557975"><ele>309.0</ele><time>2026-05-03T07:38:13Z</time></trkpt><trkpt lat="38.06936961960601" lon="13.178557151744208"><ele>311.0</ele><time>2026-05-03T07:38:14Z</time></trkpt><trkpt lat="38.06935575966849" lon="13.178717667396226"><ele>313.0</ele><time>2026-05-03T07:38:15Z</time></trkpt><trkpt lat="38.06932898982391" lon="13.178872316887146"><ele>316.25</ele><time>2026-05-03T07:38:16Z</time></trkpt><trkpt lat="38.0692784326833" lon="13.17903046247832"><ele>319.5</ele><time>2026-05-03T07:38:17Z</time></trkpt><trkpt lat="38.06922147121824" lon="13.179184682137826"><ele>322.75</ele><time>2026-05-03T07:38:18Z</time></trkpt><trkpt lat="38.06917329854749" lon="13.179317138986598"><ele>326.0</ele><time>2026-05-03T07:38:19Z</time></trkpt><trkpt lat="38.06913861903025" lon="13.179432722180717"><ele>326.0</ele><time>2026-05-03T07:38:20Z</time></trkpt><trkpt lat="38.06911150384124" lon="13.179542023996273"><ele>326.0</ele><time>2026-05-03T07:38:21Z</time></trkpt><trkpt lat="38.0690901281018" lon="13.179662114655617"><ele>326.0</ele><time>2026-05-03T07:38:23Z</time></trkpt><trkpt lat="38.06906765776892" lon="13.179748663989011"><ele>326.0</ele><time>2026-05-03T07:38:25Z</time></trkpt><trkpt lat="38.06902322482045" lon="13.17989645665217"><ele>326.0</ele><time>2026-05-03T07:38:27Z</time></trkpt><trkpt lat="38.06898256601643" lon="13.180006366506957"><ele>325.20000000000005</ele><time>2026-05-03T07:38:28Z</time></trkpt><trkpt lat="38.068936182395596" lon="13.180141084534068"><ele>324.40000000000003</ele><time>2026-05-03T07:38:29Z</time></trkpt><trkpt lat="38.06888391816321" lon="13.18029926439614"><ele>323.6</ele><time>2026-05-03T07:38:30Z</time></trkpt><trkpt lat="38.068841534606456" lon="13.180427767681289"><ele>322.8</ele><time>2026-05-03T07:38:31Z</time></trkpt><trkpt lat="38.068810432093045" lon="13.180526500958218"><ele>322.0</ele><time>2026-05-03T07:38:32Z</time></trkpt><trkpt lat="38.06876279213637" lon="13.18069029909492"><ele>322.0</ele><time>2026-05-03T07:38:34Z</time></trkpt><trkpt lat="38.06873076594537" lon="13.180801209769605"><ele>322.0</ele><time>2026-05-03T07:38:35Z</time></trkpt><trkpt lat="38.06869618036104" lon="13.180923350323228"><ele>322.0</ele><time>2026-05-03T07:38:36Z</time></trkpt><trkpt lat="38.0686587960932" lon="13.181050761848784"><ele>322.0</ele><time>2026-05-03T07:38:37Z</time></trkpt><trkpt lat="38.06862794760025" lon="13.181178843709237"><ele>322.0</ele><time>2026-05-03T07:38:38Z</time></trkpt><trkpt lat="38.06859938206923" lon="13.181291586589332"><ele>322.0</ele><time>2026-05-03T07:38:39Z</time></trkpt><trkpt lat="38.06857931893384" lon="13.18137654021294"><ele>322.0</ele><time>2026-05-03T07:38:40Z</time></trkpt><trkpt lat="38.068559468598544" lon="13.18149052105822"><ele>322.0</ele><time>2026-05-03T07:38:42Z</time></trkpt><trkpt lat="38.06854159652318" lon="13.181604954425445"><ele>322.0</ele><time>2026-05-03T07:38:44Z</time></trkpt><trkpt lat="38.06852704530293" lon="13.181690673995664"><ele>322.0</ele><time>2026-05-03T07:38:45Z</time></trkpt><trkpt lat="38.06850726045454" lon="13.181794382069292"><ele>322.0</ele><time>2026-05-03T07:38:46Z</time></trkpt><trkpt lat="38.06848229160263" lon="13.18191360461431"><ele>326.5</ele><time>2026-05-03T07:38:47Z</time></trkpt><trkpt lat="38.0684494982007" lon="13.182039600585462"><ele>331.0</ele><time>2026-05-03T07:38:48Z</time></trkpt><trkpt lat="38.06839606794336" lon="13.182171726001211"><ele>335.5</ele><time>2026-05-03T07:38:48.999Z</time></trkpt><trkpt lat="38.068331580792716" lon="13.182308558939601"><ele>340.0</ele><time>2026-05-03T07:38:49.999Z</time></trkpt><trkpt lat="38.06825678640616" lon="13.182443435545652"><ele>340.75</ele><time>2026-05-03T07:38:50.999Z</time></trkpt><trkpt lat="38.06817398369078" lon="13.182599051579496"><ele>341.5</ele><time>2026-05-03T07:38:51.999Z</time></trkpt><trkpt lat="38.06808470017614" lon="13.182752245881057"><ele>342.25</ele><time>2026-05-03T07:38:52.999Z</time></trkpt><trkpt lat="38.06799160371777" lon="13.1828961523099"><ele>343.0</ele><time>2026-05-03T07:38:53.999Z</time></trkpt><trkpt lat="38.06790176349215" lon="13.183031194973799"><ele>343.0</ele><time>2026-05-03T07:38:54.999Z</time></trkpt><trkpt lat="38.067808206501645" lon="13.183156155124337"><ele>343.0</ele><time>2026-05-03T07:38:56Z</time></trkpt><trkpt lat="38.06772097044032" lon="13.183270563933254"><ele>343.0</ele><time>2026-05-03T07:38:57Z</time></trkpt><trkpt lat="38.067641703024734" lon="13.183374033095083"><ele>343.0</ele><time>2026-05-03T07:38:58Z</time></trkpt><trkpt lat="38.06757367769676" lon="13.183485327363714"><ele>346.25</ele><time>2026-05-03T07:38:59Z</time></trkpt><trkpt lat="38.067497240653594" lon="13.18358393253315"><ele>349.5</ele><time>2026-05-03T07:39:00Z</time></trkpt><trkpt lat="38.0674191582185" lon="13.183688738272892"><ele>352.75</ele><time>2026-05-03T07:39:01Z</time></trkpt><trkpt lat="38.06734523640181" lon="13.183799241267693"><ele>356.0</ele><time>2026-05-03T07:39:02Z</time></trkpt><trkpt lat="38.067264114209365" lon="13.183901597287067"><ele>358.4</ele><time>2026-05-03T07:39:03Z</time></trkpt><trkpt lat="38.067189260198106" lon="13.183998812740167"><ele>360.8</ele><time>2026-05-03T07:39:04Z</time></trkpt><trkpt lat="38.06711594110356" lon="13.18407739107722"><ele>363.2</ele><time>2026-05-03T07:39:05Z</time></trkpt><trkpt lat="38.06705352466239" lon="13.184148781133054"><ele>365.59999999999997</ele><time>2026-05-03T07:39:06Z</time></trkpt><trkpt lat="38.066989426170466" lon="13.184208261971234"><ele>368.0</ele><time>2026-05-03T07:39:07Z</time></trkpt><trkpt lat="38.06690731736196" lon="13.18428483930292"><ele>368.25</ele><time>2026-05-03T07:39:08Z</time></trkpt><trkpt lat="38.066822852996545" lon="13.184356332082434"><ele>368.5</ele><time>2026-05-03T07:39:09Z</time></trkpt><trkpt lat="38.06673129118774" lon="13.184442806761178"><ele>368.75</ele><time>2026-05-03T07:39:10Z</time></trkpt><trkpt lat="38.066628094730994" lon="13.184534581302854"><ele>369.0</ele><time>2026-05-03T07:39:11Z</time></trkpt><trkpt lat="38.066519626148796" lon="13.184625909432103"><ele>371.2</ele><time>2026-05-03T07:39:12Z</time></trkpt><trkpt lat="38.06641426437698" lon="13.184703776776715"><ele>373.4</ele><time>2026-05-03T07:39:13Z</time></trkpt><trkpt lat="38.066323894770925" lon="13.184766994630444"><ele>375.6</ele><time>2026-05-03T07:39:14Z</time></trkpt><trkpt lat="38.06623692729847" lon="13.18483888046084"><ele>377.8</ele><time>2026-05-03T07:39:15Z</time></trkpt><trkpt lat="38.06616756705425" lon="13.184915790978199"><ele>380.0</ele><time>2026-05-03T07:39:16Z</time></trkpt><trkpt lat="38.06610801294175" lon="13.185008179007188"><ele>380.0</ele><time>2026-05-03T07:39:17Z</time></trkpt><trkpt lat="38.06606098728754" lon="13.185100687953696"><ele>380.0</ele><time>2026-05-03T07:39:18Z</time></trkpt><trkpt lat="38.065998804148066" lon="13.185200626338169"><ele>380.0</ele><time>2026-05-03T07:39:19Z</time></trkpt><trkpt lat="38.0659320777597" lon="13.185317684633041"><ele>380.0</ele><time>2026-05-03T07:39:20Z</time></trkpt><trkpt lat="38.06587318778227" lon="13.185442043256508"><ele>380.0</ele><time>2026-05-03T07:39:21Z</time></trkpt><trkpt lat="38.06584676991205" lon="13.185546994803481"><ele>380.0</ele><time>2026-05-03T07:39:22Z</time></trkpt><trkpt lat="38.06583694954363" lon="13.185628325939437"><ele>380.0</ele><time>2026-05-03T07:39:23Z</time></trkpt><trkpt lat="38.06584188029245" lon="13.185723155132537"><ele>380.0</ele><time>2026-05-03T07:39:24Z</time></trkpt><trkpt lat="38.065836197174704" lon="13.185844569317116"><ele>380.0</ele><time>2026-05-03T07:39:25Z</time></trkpt><trkpt lat="38.06580889420333" lon="13.185994058819903"><ele>380.0</ele><time>2026-05-03T07:39:26Z</time></trkpt><trkpt lat="38.065788062644295" lon="13.18612531831804"><ele>382.83333333333337</ele><time>2026-05-03T07:39:27Z</time></trkpt><trkpt lat="38.06578335869148" lon="13.186243678962887"><ele>385.6666666666667</ele><time>2026-05-03T07:39:28Z</time></trkpt><trkpt lat="38.06577369351897" lon="13.186355257640251"><ele>388.5</ele><time>2026-05-03T07:39:29Z</time></trkpt><trkpt lat="38.065755481404" lon="13.18646922864311"><ele>391.33333333333337</ele><time>2026-05-03T07:39:30Z</time></trkpt><trkpt lat="38.065728637978154" lon="13.186573016788207"><ele>394.1666666666667</ele><time>2026-05-03T07:39:31Z</time></trkpt><trkpt lat="38.06570299290464" lon="13.186680236866819"><ele>397.0</ele><time>2026-05-03T07:39:32Z</time></trkpt><trkpt lat="38.065692057204096" lon="13.186788622741863"><ele>399.20000000000005</ele><time>2026-05-03T07:39:33Z</time></trkpt><trkpt lat="38.065666971322976" lon="13.18689320954481"><ele>401.4</ele><time>2026-05-03T07:39:34Z</time></trkpt><trkpt lat="38.06564227978887" lon="13.187017774461541"><ele>403.6</ele><time>2026-05-03T07:39:35Z</time></trkpt><trkpt lat="38.065625918208" lon="13.187133311796476"><ele>405.79999999999995</ele><time>2026-05-03T07:39:36Z</time></trkpt><trkpt lat="38.06561418211765" lon="13.187254394051237"><ele>408.0</ele><time>2026-05-03T07:39:37Z</time></trkpt><trkpt lat="38.06560612476732" lon="13.187355407158634"><ele>409.5</ele><time>2026-05-03T07:39:38Z</time></trkpt><trkpt lat="38.065614372444706" lon="13.187449906684423"><ele>411.0</ele><time>2026-05-03T07:39:39Z</time></trkpt><trkpt lat="38.06561901441285" lon="13.187545357827423"><ele>412.5</ele><time>2026-05-03T07:39:40Z</time></trkpt><trkpt lat="38.06563639038215" lon="13.187642433361956"><ele>414.0</ele><time>2026-05-03T07:39:41Z</time></trkpt><trkpt lat="38.06566743522727" lon="13.18774537671132"><ele>415.5</ele><time>2026-05-03T07:39:42Z</time></trkpt><trkpt lat="38.06569062185422" lon="13.18784439318943"><ele>417.0</ele><time>2026-05-03T07:39:43Z</time></trkpt><trkpt lat="38.065707615101566" lon="13.187928031010426"><ele>417.0</ele><time>2026-05-03T07:39:44Z</time></trkpt><trkpt lat="38.06569954131954" lon="13.188067179364863"><ele>417.0</ele><time>2026-05-03T07:39:46Z</time></trkpt><trkpt lat="38.06562177230983" lon="13.188064238062415"><ele>417.0</ele><time>2026-05-03T07:39:59Z</time></trkpt><trkpt lat="38.06550682099534" lon="13.187991762726256"><ele>417.0</ele><time>2026-05-03T07:40:01Z</time></trkpt><trkpt lat="38.06539031129375" lon="13.187979345913815"><ele>417.0</ele><time>2026-05-03T07:40:03Z</time></trkpt><trkpt lat="38.06531050550286" lon="13.187983916402178"><ele>417.0</ele><time>2026-05-03T07:40:04Z</time></trkpt><trkpt lat="38.065240811760304" lon="13.187989369476142"><ele>417.0</ele><time>2026-05-03T07:40:05Z</time></trkpt><trkpt lat="38.06516046689435" lon="13.18799896112413"><ele>417.0</ele><time>2026-05-03T07:40:06Z</time></trkpt><trkpt lat="38.06508540581744" lon="13.187996917308373"><ele>417.0</ele><time>2026-05-03T07:40:07Z</time></trkpt><trkpt lat="38.0649727824789" lon="13.188010247140848"><ele>417.0</ele><time>2026-05-03T07:40:09Z</time></trkpt><trkpt lat="38.06490042717715" lon="13.188043599092607"><ele>417.0</ele><time>2026-05-03T07:40:11Z</time></trkpt><trkpt lat="38.06490675578611" lon="13.188129231825775"><ele>419.6</ele><time>2026-05-03T07:40:20.999Z</time></trkpt><trkpt lat="38.064917111693525" lon="13.18825514166709"><ele>422.20000000000005</ele><time>2026-05-03T07:40:22.999Z</time></trkpt><trkpt lat="38.06492267765409" lon="13.18835444474259"><ele>424.8</ele><time>2026-05-03T07:40:23.999Z</time></trkpt><trkpt lat="38.06493558522355" lon="13.188443184635851"><ele>427.4</ele><time>2026-05-03T07:40:24.999Z</time></trkpt><trkpt lat="38.06493555113129" lon="13.188566185162632"><ele>430.0</ele><time>2026-05-03T07:40:26.999Z</time></trkpt><trkpt lat="38.06490094228827" lon="13.188705522370093"><ele>430.00000000000006</ele><time>2026-05-03T07:40:28.999Z</time></trkpt><trkpt lat="38.06486259648741" lon="13.18882203277086"><ele>430.0</ele><time>2026-05-03T07:40:30.999Z</time></trkpt><trkpt lat="38.06484048202189" lon="13.188931506221255"><ele>430.0</ele><time>2026-05-03T07:40:32.999Z</time></trkpt><trkpt lat="38.06481054807073" lon="13.189017245783269"><ele>430.0</ele><time>2026-05-03T07:40:33.999Z</time></trkpt><trkpt lat="38.06478037998097" lon="13.189130892753909"><ele>430.00000000000006</ele><time>2026-05-03T07:40:35.999Z</time></trkpt><trkpt lat="38.06477478038114" lon="13.189237555547413"><ele>430.0</ele><time>2026-05-03T07:40:37.999Z</time></trkpt><trkpt lat="38.06484941085378" lon="13.189325580127402"><ele>432.33333333333337</ele><time>2026-05-03T07:40:50.999Z</time></trkpt><trkpt lat="38.064890034221435" lon="13.18940886251391"><ele>434.6666666666667</ele><time>2026-05-03T07:40:52.999Z</time></trkpt><trkpt lat="38.06491284436269" lon="13.18950317223888"><ele>437.0</ele><time>2026-05-03T07:40:54.999Z</time></trkpt><trkpt lat="38.06497843153764" lon="13.18957803539719"><ele>439.33333333333337</ele><time>2026-05-03T07:40:57.999Z</time></trkpt><trkpt lat="38.06503194906446" lon="13.18964047653912"><ele>441.6666666666667</ele><time>2026-05-03T07:41:00.999Z</time></trkpt><trkpt lat="38.06507212609653" lon="13.189743812967409"><ele>444.0</ele><time>2026-05-03T07:41:03Z</time></trkpt><trkpt lat="38.065092508747604" lon="13.189832086189517"><ele>447.8333333333333</ele><time>2026-05-03T07:41:11Z</time></trkpt><trkpt lat="38.06500555641995" lon="13.189869336536496"><ele>451.66666666666663</ele><time>2026-05-03T07:42:52.999Z</time></trkpt><trkpt lat="38.064941877882724" lon="13.189909681465068"><ele>455.5</ele><time>2026-05-03T07:42:54.999Z</time></trkpt><trkpt lat="38.06487669821767" lon="13.189978539943908"><ele>459.3333333333333</ele><time>2026-05-03T07:43:06.999Z</time></trkpt><trkpt lat="38.064817576251414" lon="13.19002482508671"><ele>463.16666666666663</ele><time>2026-05-03T07:43:13Z</time></trkpt><trkpt lat="38.06474359183399" lon="13.190027692174864"><ele>467.0</ele><time>2026-05-03T07:43:20Z</time></trkpt><trkpt lat="38.06466020908202" lon="13.190067837272755"><ele>466.99999999999994</ele><time>2026-05-03T07:43:22Z</time></trkpt><trkpt lat="38.064596688812735" lon="13.190120700935248"><ele>467.0</ele><time>2026-05-03T07:43:25Z</time></trkpt><trkpt lat="38.064531945991085" lon="13.19010880148241"><ele>467.0</ele><time>2026-05-03T07:43:28Z</time></trkpt><trkpt lat="38.06447927892542" lon="13.190159707136365"><ele>467.0</ele><time>2026-05-03T07:44:53.999Z</time></trkpt><trkpt lat="38.06447963205719" lon="13.190271178416694"><ele>466.99999999999994</ele><time>2026-05-03T07:44:56.999Z</time></trkpt><trkpt lat="38.06453816194259" lon="13.190338153290016"><ele>467.0</ele><time>2026-05-03T07:44:58.999Z</time></trkpt><trkpt lat="38.06454684142173" lon="13.19043408911986"><ele>466.99999999999994</ele><time>2026-05-03T07:45:00.999Z</time></trkpt><trkpt lat="38.06453767560124" lon="13.190523771655808"><ele>467.0</ele><time>2026-05-03T07:45:02.999Z</time></trkpt><trkpt lat="38.0644859784566" lon="13.190576675274546"><ele>466.99999999999994</ele><time>2026-05-03T07:45:04.999Z</time></trkpt><trkpt lat="38.064476249841626" lon="13.190656593201604"><ele>466.99999999999994</ele><time>2026-05-03T07:45:08.999Z</time></trkpt><trkpt lat="38.06446411520729" lon="13.190749597638447"><ele>467.0</ele><time>2026-05-03T07:45:10.999Z</time></trkpt><trkpt lat="38.06444352568947" lon="13.190827395760678"><ele>466.99999999999994</ele><time>2026-05-03T07:47:41Z</time></trkpt><trkpt lat="38.064453962049896" lon="13.190925969876776"><ele>466.99999999999994</ele><time>2026-05-03T07:47:46Z</time></trkpt><trkpt lat="38.06448944668631" lon="13.191009596446502"><ele>470.49999999999994</ele><time>2026-05-03T07:47:59Z</time></trkpt><trkpt lat="38.06454077604239" lon="13.191099956684607"><ele>474.0</ele><time>2026-05-03T07:48:02Z</time></trkpt><trkpt lat="38.06453353363191" lon="13.19118887173243"><ele>477.5</ele><time>2026-05-03T07:48:05Z</time></trkpt><trkpt lat="38.064463992432984" lon="13.191163316919274"><ele>481.0</ele><time>2026-05-03T07:48:26Z</time></trkpt><trkpt lat="38.06439178793003" lon="13.19113533962544"><ele>484.49999999999994</ele><time>2026-05-03T07:48:30Z</time></trkpt><trkpt lat="38.06431713161636" lon="13.191111652527898"><ele>488.0</ele><time>2026-05-03T07:48:33Z</time></trkpt><trkpt lat="38.06425334016314" lon="13.191138085927271"><ele>487.99999999999994</ele><time>2026-05-03T07:48:36Z</time></trkpt><trkpt lat="38.064187330875896" lon="13.191184659084746"><ele>488.0</ele><time>2026-05-03T07:48:39Z</time></trkpt><trkpt lat="38.06411582822134" lon="13.191230232560025"><ele>487.99999999999994</ele><time>2026-05-03T07:48:44Z</time></trkpt><trkpt lat="38.064057390607026" lon="13.191280437471667"><ele>487.99999999999994</ele><time>2026-05-03T07:48:47Z</time></trkpt><trkpt lat="38.06399269869348" lon="13.191269339092365"><ele>488.0</ele><time>2026-05-03T07:48:50Z</time></trkpt><trkpt lat="38.06393048928492" lon="13.191291835243717"><ele>487.99999999999994</ele><time>2026-05-03T07:49:35Z</time></trkpt><trkpt lat="38.06386302206913" lon="13.19127220303033"><ele>487.99999999999994</ele><time>2026-05-03T07:49:38Z</time></trkpt><trkpt lat="38.063801147247055" lon="13.19129476958392"><ele>486.99999999999994</ele><time>2026-05-03T07:49:43Z</time></trkpt><trkpt lat="38.06375211425005" lon="13.191356832527857"><ele>486.0</ele><time>2026-05-03T07:49:46Z</time></trkpt><trkpt lat="38.06371364834049" lon="13.19145387843507"><ele>485.0</ele><time>2026-05-03T07:50:08Z</time></trkpt><trkpt lat="38.06366352710877" lon="13.19153227297623"><ele>484.0</ele><time>2026-05-03T07:50:13Z</time></trkpt><trkpt lat="38.06359228963671" lon="13.191605955715902"><ele>482.99999999999994</ele><time>2026-05-03T07:50:17Z</time></trkpt><trkpt lat="38.06352900924881" lon="13.191643038991458"><ele>482.0</ele><time>2026-05-03T07:50:20Z</time></trkpt><trkpt lat="38.06351434132899" lon="13.191728432988688"><ele>485.49999999999994</ele><time>2026-05-03T07:50:22Z</time></trkpt><trkpt lat="38.063485077286565" lon="13.191809141380752"><ele>489.0</ele><time>2026-05-03T07:50:24Z</time></trkpt><trkpt lat="38.063471671080855" lon="13.191916118288184"><ele>492.5</ele><time>2026-05-03T07:50:26Z</time></trkpt><trkpt lat="38.063418216731804" lon="13.191981749781556"><ele>496.0</ele><time>2026-05-03T07:50:28Z</time></trkpt><trkpt lat="38.063394844435464" lon="13.192079615497423"><ele>499.49999999999994</ele><time>2026-05-03T07:50:30Z</time></trkpt><trkpt lat="38.063374652358526" lon="13.192192815336528"><ele>503.0</ele><time>2026-05-03T07:50:32Z</time></trkpt><trkpt lat="38.06335082857431" lon="13.192302708518522"><ele>506.66666666666663</ele><time>2026-05-03T07:50:34Z</time></trkpt><trkpt lat="38.063318230774094" lon="13.192407311250758"><ele>510.3333333333333</ele><time>2026-05-03T07:50:36Z</time></trkpt><trkpt lat="38.06322595226544" lon="13.19244728422395"><ele>514.0</ele><time>2026-05-03T07:50:38Z</time></trkpt><trkpt lat="38.06315493283735" lon="13.192449051003244"><ele>517.6666666666666</ele><time>2026-05-03T07:50:40Z</time></trkpt><trkpt lat="38.063058197245375" lon="13.192467163975127"><ele>521.3333333333334</ele><time>2026-05-03T07:50:42Z</time></trkpt><trkpt lat="38.062988668054345" lon="13.192470562135757"><ele>525.0</ele><time>2026-05-03T07:50:44Z</time></trkpt><trkpt lat="38.06291592602918" lon="13.192466213572233"><ele>525.3333333333334</ele><time>2026-05-03T07:50:46Z</time></trkpt><trkpt lat="38.06284003329055" lon="13.192493579539097"><ele>525.6666666666666</ele><time>2026-05-03T07:50:48Z</time></trkpt><trkpt lat="38.06277410755388" lon="13.19253824492968"><ele>526.0</ele><time>2026-05-03T07:50:50Z</time></trkpt><trkpt lat="38.06271065554527" lon="13.192558824153842"><ele>526.3333333333333</ele><time>2026-05-03T07:50:54Z</time></trkpt><trkpt lat="38.062639664940086" lon="13.192635590904706"><ele>526.6666666666666</ele><time>2026-05-03T07:50:58Z</time></trkpt><trkpt lat="38.06254058710683" lon="13.19267038519441"><ele>527.0</ele><time>2026-05-03T07:51:01Z</time></trkpt><trkpt lat="38.0624684713522" lon="13.192692612964954"><ele>528.5</ele><time>2026-05-03T07:51:03Z</time></trkpt><trkpt lat="38.0624064649165" lon="13.192758084380706"><ele>530.0</ele><time>2026-05-03T07:51:05Z</time></trkpt><trkpt lat="38.062369516331486" lon="13.192838753576167"><ele>531.5</ele><time>2026-05-03T07:51:07Z</time></trkpt><trkpt lat="38.0623563168726" lon="13.192946295886099"><ele>533.0</ele><time>2026-05-03T07:51:09Z</time></trkpt><trkpt lat="38.06231534377356" lon="13.193036984336032"><ele>534.5</ele><time>2026-05-03T07:51:11Z</time></trkpt><trkpt lat="38.06229243018856" lon="13.193141436014168"><ele>536.0</ele><time>2026-05-03T07:51:13Z</time></trkpt><trkpt lat="38.06227240723731" lon="13.193233214835365"><ele>538.6666666666666</ele><time>2026-05-03T07:51:15Z</time></trkpt><trkpt lat="38.062259988697" lon="13.193316846536728"><ele>541.3333333333333</ele><time>2026-05-03T07:51:18Z</time></trkpt><trkpt lat="38.06219512527347" lon="13.193313751392004"><ele>544.0</ele><time>2026-05-03T07:51:21Z</time></trkpt><trkpt lat="38.062113673786236" lon="13.19329392074543"><ele>546.6666666666666</ele><time>2026-05-03T07:52:06Z</time></trkpt><trkpt lat="38.06204970350073" lon="13.19334377296367"><ele>549.3333333333334</ele><time>2026-05-03T07:52:15Z</time></trkpt><trkpt lat="38.061963051296644" lon="13.193371714676612"><ele>552.0</ele><time>2026-05-03T07:52:17Z</time></trkpt><trkpt lat="38.06187087633748" lon="13.19339940459638"><ele>552.0</ele><time>2026-05-03T07:52:19Z</time></trkpt><trkpt lat="38.0617667978788" lon="13.193439244611097"><ele>552.0</ele><time>2026-05-03T07:52:21Z</time></trkpt><trkpt lat="38.06168025678709" lon="13.193488781819273"><ele>552.0</ele><time>2026-05-03T07:52:23Z</time></trkpt><trkpt lat="38.06161396892506" lon="13.193544220549887"><ele>552.0</ele><time>2026-05-03T07:52:25Z</time></trkpt><trkpt lat="38.06157397102746" lon="13.193619740528717"><ele>552.0</ele><time>2026-05-03T07:52:27Z</time></trkpt><trkpt lat="38.061509350009345" lon="13.193669251168883"><ele>552.0</ele><time>2026-05-03T07:52:41Z</time></trkpt><trkpt lat="38.06147124719534" lon="13.193768946483232"><ele>553.6</ele><time>2026-05-03T07:54:00Z</time></trkpt><trkpt lat="38.06140532966369" lon="13.193803065889695"><ele>555.2</ele><time>2026-05-03T07:54:02Z</time></trkpt><trkpt lat="38.06131990773979" lon="13.19380972926405"><ele>556.8</ele><time>2026-05-03T07:54:04Z</time></trkpt><trkpt lat="38.061238368262806" lon="13.193827722187145"><ele>558.4</ele><time>2026-05-03T07:54:06Z</time></trkpt><trkpt lat="38.0611345134088" lon="13.193863652879818"><ele>560.0</ele><time>2026-05-03T07:54:08Z</time></trkpt><trkpt lat="38.06102499310375" lon="13.193911481197997"><ele>560.0</ele><time>2026-05-03T07:54:10Z</time></trkpt><trkpt lat="38.060938130236416" lon="13.193997872241756"><ele>560.0</ele><time>2026-05-03T07:54:12Z</time></trkpt><trkpt lat="38.06089116015651" lon="13.194051899851427"><ele>560.0</ele><time>2026-05-03T07:54:13Z</time></trkpt><trkpt lat="38.06079504978031" lon="13.194124429592497"><ele>560.0</ele><time>2026-05-03T07:54:15Z</time></trkpt><trkpt lat="38.06074913071942" lon="13.194180905386002"><ele>560.0</ele><time>2026-05-03T07:54:16Z</time></trkpt><trkpt lat="38.06070566285383" lon="13.194247082161906"><ele>560.0</ele><time>2026-05-03T07:54:17Z</time></trkpt><trkpt lat="38.060623332945454" lon="13.194362962762355"><ele>562.6</ele><time>2026-05-03T07:54:19Z</time></trkpt><trkpt lat="38.0605399149572" lon="13.194438551658441"><ele>565.2</ele><time>2026-05-03T07:54:21Z</time></trkpt><trkpt lat="38.06044449610538" lon="13.194490438554194"><ele>567.8</ele><time>2026-05-03T07:54:23Z</time></trkpt><trkpt lat="38.06039480043862" lon="13.194441050886923"><ele>570.4</ele><time>2026-05-03T07:54:25Z</time></trkpt><trkpt lat="38.06037809166882" lon="13.1943229323684"><ele>573.0</ele><time>2026-05-03T07:54:27Z</time></trkpt><trkpt lat="38.060364148316445" lon="13.194199782703116"><ele>573.0</ele><time>2026-05-03T07:54:30Z</time></trkpt><trkpt lat="38.06029481792873" lon="13.194140309090347"><ele>573.0</ele><time>2026-05-03T07:54:32Z</time></trkpt><trkpt lat="38.060198687423714" lon="13.194110397280792"><ele>573.0</ele><time>2026-05-03T07:54:35Z</time></trkpt><trkpt lat="38.06013290862309" lon="13.194116208324624"><ele>573.0</ele><time>2026-05-03T07:54:36Z</time></trkpt><trkpt lat="38.06001213359548" lon="13.194124020310175"><ele>573.0</ele><time>2026-05-03T07:54:38Z</time></trkpt><trkpt lat="38.05990900472151" lon="13.194125479804208"><ele>573.8</ele><time>2026-05-03T07:54:40Z</time></trkpt><trkpt lat="38.059793353880366" lon="13.19415554963805"><ele>574.5999999999999</ele><time>2026-05-03T07:54:42Z</time></trkpt><trkpt lat="38.05967422463144" lon="13.194193467298145"><ele>575.4000000000001</ele><time>2026-05-03T07:54:44Z</time></trkpt><trkpt lat="38.059563535963406" lon="13.194254452154844"><ele>576.2</ele><time>2026-05-03T07:54:46Z</time></trkpt><trkpt lat="38.0594978908602" lon="13.194291018852429"><ele>577.0</ele><time>2026-05-03T07:54:47Z</time></trkpt><trkpt lat="38.05943922003431" lon="13.194336757633137"><ele>577.0</ele><time>2026-05-03T07:54:48Z</time></trkpt><trkpt lat="38.0593922628298" lon="13.194393147265059"><ele>577.0</ele><time>2026-05-03T07:54:49Z</time></trkpt><trkpt lat="38.059343938214674" lon="13.194541685670766"><ele>577.0</ele><time>2026-05-03T07:54:51Z</time></trkpt><trkpt lat="38.0593399344996" lon="13.1946260229108"><ele>577.0</ele><time>2026-05-03T07:54:52Z</time></trkpt><trkpt lat="38.05930912096554" lon="13.19477328412459"><ele>577.0</ele><time>2026-05-03T07:54:54Z</time></trkpt><trkpt lat="38.05922706434801" lon="13.194867823484364"><ele>578.4</ele><time>2026-05-03T07:54:56Z</time></trkpt><trkpt lat="38.059116809571215" lon="13.19493758043138"><ele>579.8000000000001</ele><time>2026-05-03T07:54:58Z</time></trkpt><trkpt lat="38.05907530473426" lon="13.195052743575717"><ele>581.2</ele><time>2026-05-03T07:55:00Z</time></trkpt><trkpt lat="38.05906982208124" lon="13.195154016882148"><ele>582.6</ele><time>2026-05-03T07:55:01Z</time></trkpt><trkpt lat="38.05906681404321" lon="13.195256840831798"><ele>584.0</ele><time>2026-05-03T07:55:02Z</time></trkpt><trkpt lat="38.05906978416621" lon="13.195376475390871"><ele>584.0</ele><time>2026-05-03T07:55:03Z</time></trkpt><trkpt lat="38.059072034979145" lon="13.195478023597607"><ele>584.0</ele><time>2026-05-03T07:55:04Z</time></trkpt><trkpt lat="38.05908958131258" lon="13.195587925051788"><ele>584.0</ele><time>2026-05-03T07:55:05Z</time></trkpt><trkpt lat="38.059146176985614" lon="13.195767473725521"><ele>584.0</ele><time>2026-05-03T07:55:07Z</time></trkpt><trkpt lat="38.05920681474138" lon="13.195890190363636"><ele>584.0</ele><time>2026-05-03T07:55:08Z</time></trkpt><trkpt lat="38.05925103981106" lon="13.19598597193386"><ele>585.2</ele><time>2026-05-03T07:55:09Z</time></trkpt><trkpt lat="38.05929428622095" lon="13.196064751423933"><ele>586.4</ele><time>2026-05-03T07:55:10Z</time></trkpt><trkpt lat="38.05933027591621" lon="13.196145233708268"><ele>587.6</ele><time>2026-05-03T07:55:11Z</time></trkpt><trkpt lat="38.0593585353774" lon="13.196277630384087"><ele>588.8</ele><time>2026-05-03T07:55:13Z</time></trkpt><trkpt lat="38.05935921576043" lon="13.196422138574416"><ele>590.0</ele><time>2026-05-03T07:55:15Z</time></trkpt><trkpt lat="38.059339872664424" lon="13.196561363638315"><ele>591.0</ele><time>2026-05-03T07:55:17Z</time></trkpt><trkpt lat="38.059302092606025" lon="13.196680993159022"><ele>592.0</ele><time>2026-05-03T07:55:19Z</time></trkpt><trkpt lat="38.059290511144596" lon="13.19676917617108"><ele>593.0</ele><time>2026-05-03T07:55:20Z</time></trkpt><trkpt lat="38.059281600546235" lon="13.196875350861069"><ele>594.0</ele><time>2026-05-03T07:55:21Z</time></trkpt><trkpt lat="38.05927340579846" lon="13.196967527280616"><ele>595.0</ele><time>2026-05-03T07:55:22Z</time></trkpt><trkpt lat="38.05923750913997" lon="13.197114956554675"><ele>595.0</ele><time>2026-05-03T07:55:24Z</time></trkpt><trkpt lat="38.059196784880626" lon="13.197184251495278"><ele>595.0</ele><time>2026-05-03T07:55:25Z</time></trkpt><trkpt lat="38.05915303736662" lon="13.197271502908722"><ele>595.0</ele><time>2026-05-03T07:55:26Z</time></trkpt><trkpt lat="38.05911535660243" lon="13.19735375513165"><ele>595.0</ele><time>2026-05-03T07:55:27Z</time></trkpt><trkpt lat="38.05908707010514" lon="13.19744210763067"><ele>595.0</ele><time>2026-05-03T07:55:28Z</time></trkpt><trkpt lat="38.05905119777146" lon="13.19753445966789"><ele>595.0</ele><time>2026-05-03T07:55:29Z</time></trkpt><trkpt lat="38.059023637959065" lon="13.197609845195357"><ele>595.0</ele><time>2026-05-03T07:55:30Z</time></trkpt><trkpt lat="38.05898186427512" lon="13.197673331603868"><ele>595.8</ele><time>2026-05-03T07:55:31Z</time></trkpt><trkpt lat="38.05891779587118" lon="13.197783429585204"><ele>596.6</ele><time>2026-05-03T07:55:33Z</time></trkpt><trkpt lat="38.05893253109592" lon="13.197909217607368"><ele>597.4</ele><time>2026-05-03T07:55:35Z</time></trkpt><trkpt lat="38.05900977729819" lon="13.198015397227222"><ele>598.2</ele><time>2026-05-03T07:55:37Z</time></trkpt><trkpt lat="38.05905487565226" lon="13.198093689918005"><ele>599.0</ele><time>2026-05-03T07:55:38Z</time></trkpt><trkpt lat="38.05911331260674" lon="13.198206722485994"><ele>601.5</ele><time>2026-05-03T07:55:39Z</time></trkpt><trkpt lat="38.05917174324711" lon="13.198313078329935"><ele>604.0</ele><time>2026-05-03T07:55:40Z</time></trkpt><trkpt lat="38.059226018428994" lon="13.198407291661054"><ele>606.5</ele><time>2026-05-03T07:55:41Z</time></trkpt><trkpt lat="38.05926166900184" lon="13.198479903324948"><ele>609.0</ele><time>2026-05-03T07:55:42Z</time></trkpt><trkpt lat="38.05930687107342" lon="13.19857661140679"><ele>611.5</ele><time>2026-05-03T07:55:43Z</time></trkpt><trkpt lat="38.05934582348295" lon="13.198657587442435"><ele>614.0</ele><time>2026-05-03T07:55:44Z</time></trkpt><trkpt lat="38.0594033988755" lon="13.198740841473619"><ele>613.9999999999999</ele><time>2026-05-03T07:55:45Z</time></trkpt><trkpt lat="38.05944696035701" lon="13.198808982936255"><ele>614.0</ele><time>2026-05-03T07:55:46Z</time></trkpt><trkpt lat="38.05949741045174" lon="13.19887490186955"><ele>614.0</ele><time>2026-05-03T07:55:47Z</time></trkpt><trkpt lat="38.059545298070915" lon="13.198940555674849"><ele>614.0</ele><time>2026-05-03T07:55:48Z</time></trkpt><trkpt lat="38.0595759403059" lon="13.199017650131802"><ele>614.0</ele><time>2026-05-03T07:55:49Z</time></trkpt><trkpt lat="38.0596085884079" lon="13.199097923283384"><ele>613.9999999999999</ele><time>2026-05-03T07:55:50Z</time></trkpt><trkpt lat="38.0596665700843" lon="13.199176224762118"><ele>614.0</ele><time>2026-05-03T07:55:51Z</time></trkpt><trkpt lat="38.05972598009113" lon="13.1992509657663"><ele>616.4</ele><time>2026-05-03T07:55:52Z</time></trkpt><trkpt lat="38.05979566682538" lon="13.199334993605731"><ele>618.8</ele><time>2026-05-03T07:55:53Z</time></trkpt><trkpt lat="38.059857603367035" lon="13.199410356075216"><ele>621.2</ele><time>2026-05-03T07:55:55Z</time></trkpt><trkpt lat="38.05990084298382" lon="13.199468816564593"><ele>623.6</ele><time>2026-05-03T07:57:47Z</time></trkpt><trkpt lat="38.05978882749367" lon="13.199514802980898"><ele>626.0</ele><time>2026-05-03T07:58:51Z</time></trkpt><trkpt lat="38.05969772088664" lon="13.199519819775048"><ele>626.0</ele><time>2026-05-03T07:58:52Z</time></trkpt><trkpt lat="38.059595384122616" lon="13.199566855780873"><ele>626.0</ele><time>2026-05-03T07:58:53Z</time></trkpt><trkpt lat="38.05949290544471" lon="13.199611036629664"><ele>626.0</ele><time>2026-05-03T07:58:54Z</time></trkpt><trkpt lat="38.05939609358478" lon="13.199713547995614"><ele>626.0</ele><time>2026-05-03T07:58:55Z</time></trkpt><trkpt lat="38.059301462159944" lon="13.199839166375794"><ele>626.6666666666666</ele><time>2026-05-03T07:58:56Z</time></trkpt><trkpt lat="38.05916440056746" lon="13.200028297456019"><ele>627.3333333333334</ele><time>2026-05-03T07:58:57Z</time></trkpt><trkpt lat="38.059015994892206" lon="13.20022568831283"><ele>628.0</ele><time>2026-05-03T07:58:58Z</time></trkpt><trkpt lat="38.058905880305765" lon="13.200395454864907"><ele>628.0</ele><time>2026-05-03T07:58:59Z</time></trkpt><trkpt lat="38.05881217636924" lon="13.200536903143501"><ele>628.0</ele><time>2026-05-03T07:59:00Z</time></trkpt><trkpt lat="38.05873291381021" lon="13.200663855848665"><ele>628.0</ele><time>2026-05-03T07:59:01Z</time></trkpt><trkpt lat="38.05871124012861" lon="13.20081146096467"><ele>628.0</ele><time>2026-05-03T07:59:02Z</time></trkpt><trkpt lat="38.05870278264551" lon="13.200969701796641"><ele>629.75</ele><time>2026-05-03T07:59:03Z</time></trkpt><trkpt lat="38.05870539225055" lon="13.201162556978518"><ele>631.5</ele><time>2026-05-03T07:59:04Z</time></trkpt><trkpt lat="38.058688394909595" lon="13.201370111958612"><ele>633.25</ele><time>2026-05-03T07:59:05Z</time></trkpt><trkpt lat="38.058684927325395" lon="13.201536592781448"><ele>635.0</ele><time>2026-05-03T07:59:06Z</time></trkpt><trkpt lat="38.05866865873234" lon="13.20165341951436"><ele>636.9999999999999</ele><time>2026-05-03T07:59:07Z</time></trkpt><trkpt lat="38.058633927253936" lon="13.2017294327068"><ele>639.0</ele><time>2026-05-03T07:59:08Z</time></trkpt><trkpt lat="38.05857988396412" lon="13.201777985567018"><ele>641.0</ele><time>2026-05-03T07:59:09Z</time></trkpt><trkpt lat="38.05851872680642" lon="13.201804555073846"><ele>643.0</ele><time>2026-05-03T07:59:10Z</time></trkpt><trkpt lat="38.05845450354153" lon="13.201795437608029"><ele>645.0</ele><time>2026-05-03T07:59:11Z</time></trkpt><trkpt lat="38.05837808594058" lon="13.201741935976333"><ele>646.9999999999999</ele><time>2026-05-03T07:59:12Z</time></trkpt><trkpt lat="38.05830295650025" lon="13.201671213596578"><ele>649.0</ele><time>2026-05-03T07:59:13Z</time></trkpt><trkpt lat="38.058217283509606" lon="13.201601040160606"><ele>650.75</ele><time>2026-05-03T07:59:14Z</time></trkpt><trkpt lat="38.05812959198071" lon="13.201533940422713"><ele>652.5</ele><time>2026-05-03T07:59:15Z</time></trkpt><trkpt lat="38.05799304924758" lon="13.201421255949931"><ele>654.25</ele><time>2026-05-03T07:59:16Z</time></trkpt><trkpt lat="38.057843098434" lon="13.201298374993303"><ele>656.0</ele><time>2026-05-03T07:59:17Z</time></trkpt><trkpt lat="38.05765326515796" lon="13.201135411963016"><ele>657.5</ele><time>2026-05-03T07:59:18Z</time></trkpt><trkpt lat="38.05749261821362" lon="13.201004255556104"><ele>659.0</ele><time>2026-05-03T07:59:19Z</time></trkpt><trkpt lat="38.05740043176915" lon="13.200928278133746"><ele>660.5</ele><time>2026-05-03T07:59:20Z</time></trkpt><trkpt lat="38.057312452374575" lon="13.200842061832777"><ele>662.0</ele><time>2026-05-03T07:59:21Z</time></trkpt><trkpt lat="38.05725341040002" lon="13.200772247780614"><ele>662.0</ele><time>2026-05-03T07:59:22Z</time></trkpt><trkpt lat="38.057269606651" lon="13.20085370929042"><ele>662.0</ele><time>2026-05-03T07:59:41Z</time></trkpt><trkpt lat="38.05718957380335" lon="13.201056895058834"><ele>662.0</ele><time>2026-05-03T07:59:42Z</time></trkpt><trkpt lat="38.057188490669816" lon="13.201185754834766"><ele>662.0</ele><time>2026-05-03T07:59:44Z</time></trkpt><trkpt lat="38.057170045207165" lon="13.201283765389503"><ele>662.0</ele><time>2026-05-03T07:59:46Z</time></trkpt><trkpt lat="38.05717430769684" lon="13.201389121738666"><ele>664.1666666666666</ele><time>2026-05-03T07:59:48Z</time></trkpt><trkpt lat="38.05716025343949" lon="13.201499005415357"><ele>666.3333333333333</ele><time>2026-05-03T07:59:50Z</time></trkpt><trkpt lat="38.05716547548622" lon="13.201593857727872"><ele>668.5</ele><time>2026-05-03T07:59:57Z</time></trkpt><trkpt lat="38.05719924516521" lon="13.201697454394836"><ele>670.6666666666666</ele><time>2026-05-03T08:00:00Z</time></trkpt><trkpt lat="38.05722162250933" lon="13.201797659444908"><ele>672.8333333333334</ele><time>2026-05-03T08:00:02Z</time></trkpt><trkpt lat="38.05726047440224" lon="13.201899511958999"><ele>675.0</ele><time>2026-05-03T08:00:04Z</time></trkpt><trkpt lat="38.0573026089693" lon="13.20201861424748"><ele>675.0</ele><time>2026-05-03T08:00:06Z</time></trkpt><trkpt lat="38.05733502878362" lon="13.202104645011154"><ele>675.0</ele><time>2026-05-03T08:02:50Z</time></trkpt><trkpt lat="38.05739410458244" lon="13.202200920286211"><ele>675.0</ele><time>2026-05-03T08:03:04Z</time></trkpt><trkpt lat="38.057441494928824" lon="13.202289413204548"><ele>675.0</ele><time>2026-05-03T08:03:06Z</time></trkpt><trkpt lat="38.057502940105266" lon="13.202332295088736"><ele>675.0</ele><time>2026-05-03T08:03:08Z</time></trkpt><trkpt lat="38.05756645595195" lon="13.202362855692368"><ele>675.0</ele><time>2026-05-03T08:03:10Z</time></trkpt><trkpt lat="38.05763175608867" lon="13.202408517204162"><ele>675.6</ele><time>2026-05-03T08:03:13Z</time></trkpt><trkpt lat="38.05768795813252" lon="13.202483880266762"><ele>676.2</ele><time>2026-05-03T08:03:15Z</time></trkpt><trkpt lat="38.057759805908" lon="13.202549273481178"><ele>676.8</ele><time>2026-05-03T08:03:59Z</time></trkpt><trkpt lat="38.057828361883686" lon="13.20263203811333"><ele>677.4</ele><time>2026-05-03T08:04:01Z</time></trkpt><trkpt lat="38.05790977035995" lon="13.202715163324964"><ele>678.0</ele><time>2026-05-03T08:04:03Z</time></trkpt><trkpt lat="38.05796194764673" lon="13.202801460001554"><ele>678.0</ele><time>2026-05-03T08:04:05Z</time></trkpt><trkpt lat="38.058004209637886" lon="13.202868356403348"><ele>678.0</ele><time>2026-05-03T08:04:07Z</time></trkpt><trkpt lat="38.05805830601344" lon="13.202956966063422"><ele>678.0</ele><time>2026-05-03T08:04:09Z</time></trkpt><trkpt lat="38.05810920935071" lon="13.20300801200212"><ele>678.0</ele><time>2026-05-03T08:04:12Z</time></trkpt><trkpt lat="38.05813874761454" lon="13.20309313633714"><ele>678.0</ele><time>2026-05-03T08:04:14Z</time></trkpt><trkpt lat="38.05820601928583" lon="13.203114119150698"><ele>678.0</ele><time>2026-05-03T08:04:17Z</time></trkpt><trkpt lat="38.058289154177345" lon="13.203125989167393"><ele>678.0</ele><time>2026-05-03T08:04:20Z</time></trkpt><trkpt lat="38.05837762237222" lon="13.203128206736263"><ele>675.8333333333334</ele><time>2026-05-03T08:04:23Z</time></trkpt><trkpt lat="38.058450020002816" lon="13.203129879222255"><ele>673.6666666666666</ele><time>2026-05-03T08:04:26Z</time></trkpt><trkpt lat="38.058540203742254" lon="13.203129755479468"><ele>671.5</ele><time>2026-05-03T08:04:29Z</time></trkpt><trkpt lat="38.05862942464592" lon="13.20311649238474"><ele>669.3333333333333</ele><time>2026-05-03T08:04:31Z</time></trkpt><trkpt lat="38.05872684316622" lon="13.203115515073874"><ele>667.1666666666666</ele><time>2026-05-03T08:04:33Z</time></trkpt><trkpt lat="38.0588255217348" lon="13.20310422475682"><ele>665.0</ele><time>2026-05-03T08:04:35Z</time></trkpt><trkpt lat="38.05889168463756" lon="13.203103378552477"><ele>665.0</ele><time>2026-05-03T08:04:36Z</time></trkpt><trkpt lat="38.058960058691596" lon="13.203110968781182"><ele>665.0</ele><time>2026-05-03T08:04:37Z</time></trkpt><trkpt lat="38.05903259726834" lon="13.203138231987158"><ele>665.0</ele><time>2026-05-03T08:04:38Z</time></trkpt><trkpt lat="38.05909583377841" lon="13.203186554033575"><ele>665.0</ele><time>2026-05-03T08:04:39Z</time></trkpt><trkpt lat="38.05915890058465" lon="13.203222015805549"><ele>665.0</ele><time>2026-05-03T08:04:40Z</time></trkpt><trkpt lat="38.059222311159886" lon="13.203253217700855"><ele>665.0</ele><time>2026-05-03T08:04:41Z</time></trkpt><trkpt lat="38.05935191900432" lon="13.203259490840761"><ele>664.8333333333333</ele><time>2026-05-03T08:04:43Z</time></trkpt><trkpt lat="38.059418892058545" lon="13.203228419989788"><ele>664.6666666666666</ele><time>2026-05-03T08:04:44Z</time></trkpt><trkpt lat="38.059514722321815" lon="13.203158897696893"><ele>664.5</ele><time>2026-05-03T08:04:46Z</time></trkpt><trkpt lat="38.0595919403159" lon="13.20312378295184"><ele>664.3333333333334</ele><time>2026-05-03T08:04:48Z</time></trkpt><trkpt lat="38.05966233083864" lon="13.203096650431599"><ele>664.1666666666667</ele><time>2026-05-03T08:04:50Z</time></trkpt><trkpt lat="38.059726376487134" lon="13.203092413864184"><ele>664.0</ele><time>2026-05-03T08:04:53Z</time></trkpt><trkpt lat="38.0598151773614" lon="13.203083433030667"><ele>664.0</ele><time>2026-05-03T08:04:55Z</time></trkpt><trkpt lat="38.05990217009186" lon="13.203077120588112"><ele>664.0</ele><time>2026-05-03T08:04:57Z</time></trkpt><trkpt lat="38.059985745687385" lon="13.203052065219678"><ele>664.0</ele><time>2026-05-03T08:04:59Z</time></trkpt><trkpt lat="38.06006685774251" lon="13.203025163114283"><ele>664.0</ele><time>2026-05-03T08:05:01Z</time></trkpt><trkpt lat="38.06011530230197" lon="13.20296834842645"><ele>664.0</ele><time>2026-05-03T08:05:12Z</time></trkpt><trkpt lat="38.06016956338622" lon="13.202922005911248"><ele>664.0</ele><time>2026-05-03T08:05:18Z</time></trkpt><trkpt lat="38.060214062359854" lon="13.20283899533615"><ele>665.1666666666667</ele><time>2026-05-03T08:05:20Z</time></trkpt><trkpt lat="38.06026816652732" lon="13.202731375388788"><ele>666.3333333333334</ele><time>2026-05-03T08:05:22Z</time></trkpt><trkpt lat="38.06031838633607" lon="13.202676948873362"><ele>667.5</ele><time>2026-05-03T08:05:24Z</time></trkpt><trkpt lat="38.06039121655463" lon="13.202645181992656"><ele>668.6666666666666</ele><time>2026-05-03T08:05:26Z</time></trkpt><trkpt lat="38.06046839182958" lon="13.202671624447516"><ele>669.8333333333333</ele><time>2026-05-03T08:05:29Z</time></trkpt><trkpt lat="38.06054127379203" lon="13.202650542220908"><ele>671.0</ele><time>2026-05-03T08:05:31Z</time></trkpt><trkpt lat="38.06061490599444" lon="13.202619665565342"><ele>671.0</ele><time>2026-05-03T08:05:33Z</time></trkpt><trkpt lat="38.06069820268528" lon="13.202574956990883"><ele>671.0</ele><time>2026-05-03T08:05:35Z</time></trkpt><trkpt lat="38.06078540434259" lon="13.202542603873631"><ele>671.0</ele><time>2026-05-03T08:05:37Z</time></trkpt><trkpt lat="38.06085779733313" lon="13.202507158137305"><ele>671.0</ele><time>2026-05-03T08:05:43Z</time></trkpt><trkpt lat="38.060964822506975" lon="13.202505749936119"><ele>671.0</ele><time>2026-05-03T08:05:46Z</time></trkpt><trkpt lat="38.061039266403945" lon="13.202549743457372"><ele>671.0</ele><time>2026-05-03T08:05:48Z</time></trkpt><trkpt lat="38.0610961916192" lon="13.202625848896687"><ele>681.0</ele><time>2026-05-03T08:05:50Z</time></trkpt><trkpt lat="38.06110901209478" lon="13.202704919028962"><ele>681.0</ele><time>2026-05-03T08:05:52Z</time></trkpt><trkpt lat="38.06111234042493" lon="13.202788224773506"><ele>681.0</ele><time>2026-05-03T08:05:55Z</time></trkpt><trkpt lat="38.061078741355786" lon="13.202909774376899"><ele>681.0</ele><time>2026-05-03T08:05:58Z</time></trkpt><trkpt lat="38.06105601633142" lon="13.203018638630883"><ele>681.0</ele><time>2026-05-03T08:06:00Z</time></trkpt><trkpt lat="38.06104908119087" lon="13.203128765997727"><ele>681.0</ele><time>2026-05-03T08:06:03Z</time></trkpt></trkseg><trkseg><trkpt lat="38.061040575610406" lon="13.203186368660868"><ele>697.0</ele><time>2026-05-03T08:28:58Z</time></trkpt><trkpt lat="38.061106085317554" lon="13.203232499134579"><ele>697.0</ele><time>2026-05-03T08:29:00Z</time></trkpt><trkpt lat="38.061160250673446" lon="13.20331119707715"><ele>697.0</ele><time>2026-05-03T08:29:03Z</time></trkpt><trkpt lat="38.06122018098749" lon="13.203396202956341"><ele>697.0</ele><time>2026-05-03T08:29:05Z</time></trkpt><trkpt lat="38.06130817157897" lon="13.20344927253189"><ele>697.0</ele><time>2026-05-03T08:29:07Z</time></trkpt><trkpt lat="38.0613967614215" lon="13.203490122021549"><ele>697.0</ele><time>2026-05-03T08:29:09Z</time></trkpt><trkpt lat="38.06142470441298" lon="13.203578801727025"><ele>697.0</ele><time>2026-05-03T08:29:11Z</time></trkpt><trkpt lat="38.06146950212131" lon="13.203688774395241"><ele>697.0</ele><time>2026-05-03T08:29:13Z</time></trkpt><trkpt lat="38.06150338421356" lon="13.203783976339555"><ele>697.0</ele><time>2026-05-03T08:29:16Z</time></trkpt><trkpt lat="38.06154923172979" lon="13.20389310779838"><ele>697.0</ele><time>2026-05-03T08:29:19Z</time></trkpt><trkpt lat="38.061599525008184" lon="13.203958497157469"><ele>697.0</ele><time>2026-05-03T08:29:21Z</time></trkpt><trkpt lat="38.06166421517586" lon="13.204013131335529"><ele>697.0</ele><time>2026-05-03T08:29:23Z</time></trkpt><trkpt lat="38.06174821540158" lon="13.204090460317397"><ele>701.25</ele><time>2026-05-03T08:29:24Z</time></trkpt><trkpt lat="38.06181752988337" lon="13.20418705978578"><ele>705.5</ele><time>2026-05-03T08:29:26Z</time></trkpt><trkpt lat="38.061896047704415" lon="13.204286974922296"><ele>709.75</ele><time>2026-05-03T08:29:28Z</time></trkpt><trkpt lat="38.06198223149398" lon="13.204377227785612"><ele>714.0</ele><time>2026-05-03T08:29:30Z</time></trkpt><trkpt lat="38.06209175948612" lon="13.204469503162922"><ele>714.0</ele><time>2026-05-03T08:29:32Z</time></trkpt><trkpt lat="38.06214642808632" lon="13.20452559728474"><ele>714.0</ele><time>2026-05-03T08:29:33Z</time></trkpt><trkpt lat="38.06218022103783" lon="13.20462913683868"><ele>714.0</ele><time>2026-05-03T08:29:35Z</time></trkpt><trkpt lat="38.06213927733145" lon="13.204690833343294"><ele>714.0</ele><time>2026-05-03T08:29:36Z</time></trkpt><trkpt lat="38.062041315725" lon="13.204778097499124"><ele>714.0</ele><time>2026-05-03T08:29:38Z</time></trkpt><trkpt lat="38.06199718470931" lon="13.204843847960257"><ele>714.0</ele><time>2026-05-03T08:29:39Z</time></trkpt><trkpt lat="38.06192255748554" lon="13.2049624179503"><ele>717.0</ele><time>2026-05-03T08:29:41Z</time></trkpt><trkpt lat="38.061851038610165" lon="13.205101540331004"><ele>720.0</ele><time>2026-05-03T08:29:43Z</time></trkpt><trkpt lat="38.06181683626143" lon="13.205170629140474"><ele>723.0</ele><time>2026-05-03T08:29:44Z</time></trkpt><trkpt lat="38.061743035577074" lon="13.205289354866837"><ele>726.0</ele><time>2026-05-03T08:29:46Z</time></trkpt><trkpt lat="38.06169677781212" lon="13.205346664573081"><ele>729.0</ele><time>2026-05-03T08:29:47Z</time></trkpt><trkpt lat="38.06163882179113" lon="13.205408336862911"><ele>728.5</ele><time>2026-05-03T08:29:48Z</time></trkpt><trkpt lat="38.0615835323361" lon="13.205462240873114"><ele>728.0</ele><time>2026-05-03T08:29:49Z</time></trkpt><trkpt lat="38.061539678836816" lon="13.205530882622536"><ele>727.5</ele><time>2026-05-03T08:29:50Z</time></trkpt><trkpt lat="38.06148915066508" lon="13.20558003572726"><ele>727.0</ele><time>2026-05-03T08:29:51Z</time></trkpt><trkpt lat="38.06142241832375" lon="13.205670112635316"><ele>726.5</ele><time>2026-05-03T08:29:53Z</time></trkpt><trkpt lat="38.061464651073436" lon="13.20580445705076"><ele>726.0</ele><time>2026-05-03T08:29:55Z</time></trkpt><trkpt lat="38.061535065277454" lon="13.205836193471507"><ele>729.5999999999999</ele><time>2026-05-03T08:29:56Z</time></trkpt><trkpt lat="38.06161061074219" lon="13.205893202753147"><ele>733.2</ele><time>2026-05-03T08:29:58Z</time></trkpt><trkpt lat="38.06172079296417" lon="13.205894594816325"><ele>736.8</ele><time>2026-05-03T08:30:00Z</time></trkpt><trkpt lat="38.06179664529208" lon="13.205925988913155"><ele>740.4000000000001</ele><time>2026-05-03T08:30:02Z</time></trkpt><trkpt lat="38.06190184413403" lon="13.205946029184174"><ele>744.0</ele><time>2026-05-03T08:30:04Z</time></trkpt><trkpt lat="38.06199839725846" lon="13.205957122138004"><ele>744.6</ele><time>2026-05-03T08:30:06Z</time></trkpt><trkpt lat="38.06210456839826" lon="13.205961777407099"><ele>745.2</ele><time>2026-05-03T08:30:08Z</time></trkpt><trkpt lat="38.062203538579865" lon="13.20597061908405"><ele>745.8000000000001</ele><time>2026-05-03T08:30:10Z</time></trkpt><trkpt lat="38.06230067881706" lon="13.205988902543762"><ele>746.4000000000001</ele><time>2026-05-03T08:30:12Z</time></trkpt><trkpt lat="38.06241352463495" lon="13.205994254217359"><ele>747.0</ele><time>2026-05-03T08:30:14Z</time></trkpt><trkpt lat="38.06251339382421" lon="13.205999385640991"><ele>747.0</ele><time>2026-05-03T08:30:16Z</time></trkpt><trkpt lat="38.06247165420841" lon="13.2061897132001"><ele>747.0</ele><time>2026-05-03T08:30:28Z</time></trkpt><trkpt lat="38.06239981931962" lon="13.206173700262042"><ele>747.0</ele><time>2026-05-03T08:30:30Z</time></trkpt><trkpt lat="38.062320976534906" lon="13.206174606101726"><ele>747.0</ele><time>2026-05-03T08:30:32Z</time></trkpt><trkpt lat="38.06226753488764" lon="13.206234543933988"><ele>747.0</ele><time>2026-05-03T08:30:35Z</time></trkpt><trkpt lat="38.06218729656348" lon="13.206255755101774"><ele>746.9999999999999</ele><time>2026-05-03T08:30:39Z</time></trkpt><trkpt lat="38.06213074676468" lon="13.206300224131866"><ele>747.0</ele><time>2026-05-03T08:30:43Z</time></trkpt><trkpt lat="38.062059644546366" lon="13.20633522690181"><ele>747.0</ele><time>2026-05-03T08:30:52Z</time></trkpt><trkpt lat="38.062009888736384" lon="13.206391067062711"><ele>747.0</ele><time>2026-05-03T08:30:54Z</time></trkpt><trkpt lat="38.06194886399158" lon="13.206453832769714"><ele>747.0</ele><time>2026-05-03T08:30:58Z</time></trkpt><trkpt lat="38.06189297792091" lon="13.20653925671002"><ele>746.9999999999999</ele><time>2026-05-03T08:31:02Z</time></trkpt><trkpt lat="38.06183484589812" lon="13.206586665735909"><ele>747.0</ele><time>2026-05-03T08:31:04Z</time></trkpt><trkpt lat="38.06180608568651" lon="13.20666066132563"><ele>749.5</ele><time>2026-05-03T08:31:09Z</time></trkpt><trkpt lat="38.0617620945376" lon="13.206730678978984"><ele>752.0</ele><time>2026-05-03T08:31:14Z</time></trkpt><trkpt lat="38.06173036562866" lon="13.206835670691515"><ele>754.5</ele><time>2026-05-03T08:31:18Z</time></trkpt><trkpt lat="38.061670376780256" lon="13.206913132493815"><ele>757.0</ele><time>2026-05-03T08:31:21Z</time></trkpt><trkpt lat="38.06163178524454" lon="13.206994343994696"><ele>759.5</ele><time>2026-05-03T08:31:24Z</time></trkpt><trkpt lat="38.06160449835725" lon="13.207085265891097"><ele>762.0</ele><time>2026-05-03T08:31:27Z</time></trkpt><trkpt lat="38.06164762818315" lon="13.20716151192554"><ele>762.4000000000001</ele><time>2026-05-03T08:32:29Z</time></trkpt><trkpt lat="38.06169005648531" lon="13.20727443735435"><ele>762.8000000000001</ele><time>2026-05-03T08:32:31Z</time></trkpt><trkpt lat="38.061757351246676" lon="13.20736828919302"><ele>763.2</ele><time>2026-05-03T08:32:33Z</time></trkpt><trkpt lat="38.06184244713454" lon="13.207495276550777"><ele>763.6</ele><time>2026-05-03T08:32:35Z</time></trkpt><trkpt lat="38.06189153888442" lon="13.207587306564204"><ele>764.0</ele><time>2026-05-03T08:32:37Z</time></trkpt><trkpt lat="38.061966802288154" lon="13.207623420903964"><ele>766.3333333333333</ele><time>2026-05-03T08:33:36Z</time></trkpt><trkpt lat="38.062033575691835" lon="13.207652372882166"><ele>768.6666666666666</ele><time>2026-05-03T08:33:38Z</time></trkpt><trkpt lat="38.06210030773567" lon="13.207709444361615"><ele>771.0</ele><time>2026-05-03T08:33:40Z</time></trkpt><trkpt lat="38.062162087466135" lon="13.207751939249743"><ele>773.3333333333333</ele><time>2026-05-03T08:33:42Z</time></trkpt><trkpt lat="38.062234443473095" lon="13.207843977606426"><ele>775.6666666666666</ele><time>2026-05-03T08:33:44Z</time></trkpt><trkpt lat="38.06226820968658" lon="13.207932528562173"><ele>778.0</ele><time>2026-05-03T08:33:46Z</time></trkpt><trkpt lat="38.06229805745717" lon="13.208037457421721"><ele>778.0</ele><time>2026-05-03T08:33:48Z</time></trkpt><trkpt lat="38.06227143781958" lon="13.208126527455155"><ele>778.0</ele><time>2026-05-03T08:33:50Z</time></trkpt><trkpt lat="38.06221243904208" lon="13.208211784834603"><ele>778.0</ele><time>2026-05-03T08:33:52Z</time></trkpt><trkpt lat="38.062214833670865" lon="13.20834836575538"><ele>778.0</ele><time>2026-05-03T08:33:54Z</time></trkpt><trkpt lat="38.06228277899782" lon="13.20843429469172"><ele>778.0</ele><time>2026-05-03T08:33:56Z</time></trkpt><trkpt lat="38.06236449334435" lon="13.208482768482245"><ele>780.1666666666666</ele><time>2026-05-03T08:33:58Z</time></trkpt><trkpt lat="38.0624124373701" lon="13.208604310417133"><ele>782.3333333333333</ele><time>2026-05-03T08:34:00Z</time></trkpt><trkpt lat="38.06246904593122" lon="13.20869969014405"><ele>784.5</ele><time>2026-05-03T08:34:02Z</time></trkpt><trkpt lat="38.0625299653581" lon="13.208739091937707"><ele>786.6666666666667</ele><time>2026-05-03T08:34:11Z</time></trkpt><trkpt lat="38.06259242740063" lon="13.208727910330989"><ele>788.8333333333334</ele><time>2026-05-03T08:34:19Z</time></trkpt><trkpt lat="38.06266812213734" lon="13.20869878781198"><ele>791.0</ele><time>2026-05-03T08:34:24Z</time></trkpt><trkpt lat="38.06273325544133" lon="13.208729257412365"><ele>791.0000000000001</ele><time>2026-05-03T08:34:26Z</time></trkpt><trkpt lat="38.06281606731458" lon="13.208740163513056"><ele>791.0</ele><time>2026-05-03T08:34:28Z</time></trkpt><trkpt lat="38.06288274001036" lon="13.208774512914067"><ele>791.0</ele><time>2026-05-03T08:34:30Z</time></trkpt><trkpt lat="38.06293774158606" lon="13.208817273067249"><ele>791.0</ele><time>2026-05-03T08:34:34Z</time></trkpt><trkpt lat="38.06300925351623" lon="13.208823172443083"><ele>791.0000000000001</ele><time>2026-05-03T08:34:49.999Z</time></trkpt><trkpt lat="38.063087609878664" lon="13.208876108335497"><ele>791.0</ele><time>2026-05-03T08:34:52.999Z</time></trkpt><trkpt lat="38.063154688914395" lon="13.208954452530508"><ele>793.3333333333334</ele><time>2026-05-03T08:34:54.999Z</time></trkpt><trkpt lat="38.06321367628255" lon="13.20900860503742"><ele>795.6666666666667</ele><time>2026-05-03T08:34:56.999Z</time></trkpt><trkpt lat="38.06329180267675" lon="13.20905317159418"><ele>798.0</ele><time>2026-05-03T08:34:58.999Z</time></trkpt><trkpt lat="38.063347056891786" lon="13.209107448088428"><ele>800.3333333333333</ele><time>2026-05-03T08:35:00.999Z</time></trkpt><trkpt lat="38.06340387046021" lon="13.209166751424572"><ele>802.6666666666666</ele><time>2026-05-03T08:35:04.999Z</time></trkpt><trkpt lat="38.06348584779898" lon="13.209134565316202"><ele>805.0</ele><time>2026-05-03T08:35:07.999Z</time></trkpt><trkpt lat="38.06353713609335" lon="13.209077767929596"><ele>804.9999999999999</ele><time>2026-05-03T08:35:10.999Z</time></trkpt><trkpt lat="38.06360740731479" lon="13.209003751298765"><ele>805.0</ele><time>2026-05-03T08:35:13.999Z</time></trkpt><trkpt lat="38.06370667059888" lon="13.208925715635452"><ele>805.0</ele><time>2026-05-03T08:35:15.999Z</time></trkpt><trkpt lat="38.06377852076174" lon="13.208894198741616"><ele>805.0</ele><time>2026-05-03T08:35:18.999Z</time></trkpt><trkpt lat="38.06385654262565" lon="13.208940794686828"><ele>804.9999999999999</ele><time>2026-05-03T08:35:21.999Z</time></trkpt><trkpt lat="38.06392916757571" lon="13.208933904185727"><ele>805.0</ele><time>2026-05-03T08:35:28.999Z</time></trkpt><trkpt lat="38.06401247004733" lon="13.2089496451624"><ele>806.6666666666666</ele><time>2026-05-03T08:35:30.999Z</time></trkpt><trkpt lat="38.064091981053735" lon="13.208972061431687"><ele>808.3333333333333</ele><time>2026-05-03T08:35:32.999Z</time></trkpt><trkpt lat="38.06417703648891" lon="13.209029179763085"><ele>810.0</ele><time>2026-05-03T08:40:45Z</time></trkpt><trkpt lat="38.06429524494265" lon="13.209108577025388"><ele>811.6666666666667</ele><time>2026-05-03T08:40:47Z</time></trkpt><trkpt lat="38.064353947603195" lon="13.20914702439207"><ele>813.3333333333334</ele><time>2026-05-03T08:40:48Z</time></trkpt><trkpt lat="38.06441226501778" lon="13.209194097772704"><ele>815.0</ele><time>2026-05-03T08:40:49Z</time></trkpt><trkpt lat="38.06447890032378" lon="13.20923847777478"><ele>815.0</ele><time>2026-05-03T08:40:50Z</time></trkpt><trkpt lat="38.06458958332054" lon="13.209297132271015"><ele>815.0</ele><time>2026-05-03T08:40:52Z</time></trkpt><trkpt lat="38.06464684309512" lon="13.209337412537264"><ele>815.0</ele><time>2026-05-03T08:40:53Z</time></trkpt><trkpt lat="38.06475017099458" lon="13.209392196161378"><ele>815.0</ele><time>2026-05-03T08:40:55Z</time></trkpt><trkpt lat="38.064823596448186" lon="13.209413894100917"><ele>815.0</ele><time>2026-05-03T08:40:57Z</time></trkpt><trkpt lat="38.064914923903714" lon="13.209513581179072"><ele>817.8333333333334</ele><time>2026-05-03T08:40:59Z</time></trkpt><trkpt lat="38.06500372173218" lon="13.209564034442256"><ele>820.6666666666667</ele><time>2026-05-03T08:41:01Z</time></trkpt><trkpt lat="38.065089670174686" lon="13.209645433667456"><ele>823.5</ele><time>2026-05-03T08:41:03Z</time></trkpt><trkpt lat="38.06510552421849" lon="13.209726450948274"><ele>826.3333333333333</ele><time>2026-05-03T08:41:05Z</time></trkpt><trkpt lat="38.06515623433245" lon="13.209788891557588"><ele>829.1666666666666</ele><time>2026-05-03T08:41:08Z</time></trkpt><trkpt lat="38.065194057352116" lon="13.209859962660806"><ele>832.0</ele><time>2026-05-03T08:41:10Z</time></trkpt><trkpt lat="38.065217135140934" lon="13.209951297143714"><ele>833.4285714285714</ele><time>2026-05-03T08:41:12Z</time></trkpt><trkpt lat="38.06526103647626" lon="13.21001337027403"><ele>834.8571428571429</ele><time>2026-05-03T08:41:16Z</time></trkpt><trkpt lat="38.06527955116861" lon="13.210112272916183"><ele>836.2857142857143</ele><time>2026-05-03T08:41:20Z</time></trkpt><trkpt lat="38.06531121241952" lon="13.210197381647259"><ele>837.7142857142858</ele><time>2026-05-03T08:41:22Z</time></trkpt><trkpt lat="38.065327324790104" lon="13.210284432919542"><ele>839.1428571428571</ele><time>2026-05-03T08:41:24Z</time></trkpt><trkpt lat="38.06534130174084" lon="13.21037393697799"><ele>840.5714285714287</ele><time>2026-05-03T08:41:27Z</time></trkpt><trkpt lat="38.0653501066048" lon="13.210474553907467"><ele>842.0</ele><time>2026-05-03T08:41:30Z</time></trkpt><trkpt lat="38.065409759823645" lon="13.210521849973633"><ele>842.0000000000001</ele><time>2026-05-03T08:41:34Z</time></trkpt><trkpt lat="38.06547778614606" lon="13.21054172457399"><ele>842.0</ele><time>2026-05-03T08:41:46Z</time></trkpt><trkpt lat="38.06554605846599" lon="13.210566907234337"><ele>842.0</ele><time>2026-05-03T08:41:50Z</time></trkpt><trkpt lat="38.0655946476996" lon="13.210642842690776"><ele>842.0</ele><time>2026-05-03T08:41:52Z</time></trkpt><trkpt lat="38.06559128142016" lon="13.210741267132802"><ele>842.0</ele><time>2026-05-03T08:41:56Z</time></trkpt><trkpt lat="38.06561323427775" lon="13.210818580001176"><ele>842.0000000000001</ele><time>2026-05-03T08:56:07Z</time></trkpt><trkpt lat="38.06563146386496" lon="13.210899505388989"><ele>842.0</ele><time>2026-05-03T08:56:09Z</time></trkpt><trkpt lat="38.06567717006454" lon="13.211010703739385"><ele>844.5000000000001</ele><time>2026-05-03T08:56:11Z</time></trkpt><trkpt lat="38.065739336205056" lon="13.211079432714632"><ele>847.0</ele><time>2026-05-03T08:56:13Z</time></trkpt><trkpt lat="38.06580733900278" lon="13.211146545796483"><ele>849.5</ele><time>2026-05-03T08:56:15Z</time></trkpt><trkpt lat="38.06588161820723" lon="13.211188304780922"><ele>852.0</ele><time>2026-05-03T08:56:17Z</time></trkpt><trkpt lat="38.0659363307606" lon="13.211231810917255"><ele>854.5000000000001</ele><time>2026-05-03T08:56:19Z</time></trkpt><trkpt lat="38.06598600844475" lon="13.211284114586288"><ele>857.0</ele><time>2026-05-03T08:56:21Z</time></trkpt><trkpt lat="38.066003715402545" lon="13.21137783180097"><ele>857.2857142857142</ele><time>2026-05-03T08:56:26Z</time></trkpt><trkpt lat="38.066059346568984" lon="13.211446504769214"><ele>857.5714285714286</ele><time>2026-05-03T08:56:33Z</time></trkpt><trkpt lat="38.066071641813785" lon="13.211537833304767"><ele>857.8571428571429</ele><time>2026-05-03T08:56:37Z</time></trkpt><trkpt lat="38.06613562798993" lon="13.211581666502788"><ele>858.1428571428571</ele><time>2026-05-03T08:56:40Z</time></trkpt><trkpt lat="38.06621211479162" lon="13.211617891573274"><ele>858.4285714285714</ele><time>2026-05-03T08:56:44Z</time></trkpt><trkpt lat="38.066267761611286" lon="13.211670986032683"><ele>858.7142857142857</ele><time>2026-05-03T08:56:48Z</time></trkpt><trkpt lat="38.06632659878017" lon="13.211716762007306"><ele>859.0</ele><time>2026-05-03T08:56:51Z</time></trkpt><trkpt lat="38.06639037992346" lon="13.211759316077568"><ele>857.1666666666666</ele><time>2026-05-03T08:56:56Z</time></trkpt><trkpt lat="38.06645430938915" lon="13.211735527709738"><ele>855.3333333333333</ele><time>2026-05-03T08:56:58Z</time></trkpt><trkpt lat="38.06652081722527" lon="13.21178224104925"><ele>853.5</ele><time>2026-05-03T08:57:01Z</time></trkpt><trkpt lat="38.06660696749953" lon="13.211821508610077"><ele>851.6666666666667</ele><time>2026-05-03T08:57:04Z</time></trkpt><trkpt lat="38.06667543331446" lon="13.21185797527504"><ele>849.8333333333334</ele><time>2026-05-03T08:57:06Z</time></trkpt><trkpt lat="38.066746919452925" lon="13.211878071721133"><ele>848.0</ele><time>2026-05-03T08:57:09Z</time></trkpt><trkpt lat="38.066819753945104" lon="13.211897689204283"><ele>848.0</ele><time>2026-05-03T08:57:11Z</time></trkpt><trkpt lat="38.0669082768976" lon="13.211927906742064"><ele>848.0</ele><time>2026-05-03T08:57:13Z</time></trkpt><trkpt lat="38.06701266082023" lon="13.211938770694843"><ele>848.0</ele><time>2026-05-03T08:57:15Z</time></trkpt><trkpt lat="38.06710362735973" lon="13.211940734758302"><ele>848.0</ele><time>2026-05-03T08:57:17Z</time></trkpt><trkpt lat="38.067198253193745" lon="13.211923771386259"><ele>848.0</ele><time>2026-05-03T08:57:20Z</time></trkpt><trkpt lat="38.06729373387222" lon="13.211927191899228"><ele>848.0</ele><time>2026-05-03T08:57:22Z</time></trkpt><trkpt lat="38.06736970077896" lon="13.211919499518551"><ele>848.0</ele><time>2026-05-03T08:57:24Z</time></trkpt><trkpt lat="38.0674362466637" lon="13.211901240371246"><ele>848.0</ele><time>2026-05-03T08:57:27Z</time></trkpt><trkpt lat="38.067506574579824" lon="13.211930981237462"><ele>848.0</ele><time>2026-05-03T08:57:34Z</time></trkpt><trkpt lat="38.06757681848138" lon="13.211975749468177"><ele>848.0</ele><time>2026-05-03T08:57:38Z</time></trkpt><trkpt lat="38.06763909273278" lon="13.21203204152714"><ele>848.0</ele><time>2026-05-03T08:57:41Z</time></trkpt><trkpt lat="38.06769516002413" lon="13.212090860794785"><ele>848.0</ele><time>2026-05-03T08:57:43Z</time></trkpt><trkpt lat="38.06776634553031" lon="13.212180026593847"><ele>847.8</ele><time>2026-05-03T08:58:00Z</time></trkpt><trkpt lat="38.06780983160233" lon="13.212287001186283"><ele>847.5999999999999</ele><time>2026-05-03T08:58:02Z</time></trkpt><trkpt lat="38.06787324564791" lon="13.212355125610177"><ele>847.4000000000001</ele><time>2026-05-03T08:58:04Z</time></trkpt><trkpt lat="38.06796484384075" lon="13.212392053223171"><ele>847.2</ele><time>2026-05-03T08:58:06Z</time></trkpt><trkpt lat="38.068062146299745" lon="13.2124506825173"><ele>847.0</ele><time>2026-05-03T08:58:08Z</time></trkpt><trkpt lat="38.06814318822385" lon="13.212514222017584"><ele>847.0</ele><time>2026-05-03T08:58:10Z</time></trkpt><trkpt lat="38.068227057598044" lon="13.212600889356287"><ele>847.0</ele><time>2026-05-03T08:58:12Z</time></trkpt><trkpt lat="38.0682990157071" lon="13.212687829677833"><ele>847.0</ele><time>2026-05-03T08:58:14Z</time></trkpt><trkpt lat="38.06837864540399" lon="13.212754198394927"><ele>847.0</ele><time>2026-05-03T08:58:16Z</time></trkpt><trkpt lat="38.068472667239945" lon="13.212830336183304"><ele>847.0</ele><time>2026-05-03T08:58:18Z</time></trkpt><trkpt lat="38.06853649427313" lon="13.212845803836245"><ele>842.8333333333333</ele><time>2026-05-03T08:58:19Z</time></trkpt><trkpt lat="38.068604352242794" lon="13.21285804413149"><ele>838.6666666666666</ele><time>2026-05-03T08:58:20Z</time></trkpt><trkpt lat="38.06869329768699" lon="13.212878608078606"><ele>834.5</ele><time>2026-05-03T08:58:21Z</time></trkpt><trkpt lat="38.0687855427642" lon="13.212894855635591"><ele>830.3333333333333</ele><time>2026-05-03T08:58:22Z</time></trkpt><trkpt lat="38.06887032943782" lon="13.212918219109282"><ele>826.1666666666666</ele><time>2026-05-03T08:58:23Z</time></trkpt><trkpt lat="38.06896070597971" lon="13.212948747193325"><ele>822.0</ele><time>2026-05-03T08:58:24Z</time></trkpt><trkpt lat="38.06905426313043" lon="13.213005585162477"><ele>823.6</ele><time>2026-05-03T08:58:25Z</time></trkpt><trkpt lat="38.0691524290907" lon="13.213062271064478"><ele>825.2</ele><time>2026-05-03T08:58:26Z</time></trkpt><trkpt lat="38.06925950716838" lon="13.213096007320615"><ele>826.8</ele><time>2026-05-03T08:58:27Z</time></trkpt><trkpt lat="38.06936040995361" lon="13.213139528594732"><ele>828.4</ele><time>2026-05-03T08:58:28Z</time></trkpt><trkpt lat="38.0694451135353" lon="13.21318195292217"><ele>830.0</ele><time>2026-05-03T08:58:29Z</time></trkpt><trkpt lat="38.06953055708415" lon="13.213227242847383"><ele>830.0</ele><time>2026-05-03T08:58:30Z</time></trkpt><trkpt lat="38.069619235508014" lon="13.21325528166259"><ele>830.0</ele><time>2026-05-03T08:58:31Z</time></trkpt><trkpt lat="38.06971720248453" lon="13.213281990196164"><ele>830.0</ele><time>2026-05-03T08:58:32Z</time></trkpt><trkpt lat="38.069826888863105" lon="13.213323994789757"><ele>830.0</ele><time>2026-05-03T08:58:33Z</time></trkpt><trkpt lat="38.06992429442742" lon="13.213377764712982"><ele>830.0</ele><time>2026-05-03T08:58:34Z</time></trkpt><trkpt lat="38.070030621074594" lon="13.213430131827284"><ele>827.8</ele><time>2026-05-03T08:58:35Z</time></trkpt><trkpt lat="38.07013055958931" lon="13.213454736876278"><ele>825.6</ele><time>2026-05-03T08:58:36Z</time></trkpt><trkpt lat="38.07022253417567" lon="13.213475252540945"><ele>823.4000000000001</ele><time>2026-05-03T08:58:37Z</time></trkpt><trkpt lat="38.07032411727515" lon="13.21349309458113"><ele>821.2</ele><time>2026-05-03T08:58:38Z</time></trkpt><trkpt lat="38.07042481220305" lon="13.21350742925055"><ele>819.0</ele><time>2026-05-03T08:58:39Z</time></trkpt><trkpt lat="38.07052335803853" lon="13.21358514083032"><ele>819.0</ele><time>2026-05-03T08:58:40Z</time></trkpt><trkpt lat="38.07061799857191" lon="13.213637277055884"><ele>819.0</ele><time>2026-05-03T08:58:41Z</time></trkpt><trkpt lat="38.07069829122871" lon="13.213679935113392"><ele>819.0</ele><time>2026-05-03T08:58:42Z</time></trkpt><trkpt lat="38.07076464697845" lon="13.213753045171693"><ele>819.0</ele><time>2026-05-03T08:58:43Z</time></trkpt><trkpt lat="38.07084414776617" lon="13.213820991091074"><ele>819.0</ele><time>2026-05-03T08:58:44Z</time></trkpt><trkpt lat="38.07090870740725" lon="13.21389710105077"><ele>819.8333333333334</ele><time>2026-05-03T08:58:45Z</time></trkpt><trkpt lat="38.070974230134674" lon="13.213956656267511"><ele>820.6666666666667</ele><time>2026-05-03T08:58:46Z</time></trkpt><trkpt lat="38.07102625570832" lon="13.214033598355641"><ele>821.5</ele><time>2026-05-03T08:58:47Z</time></trkpt><trkpt lat="38.07106493790499" lon="13.214123263292997"><ele>822.3333333333334</ele><time>2026-05-03T08:58:48Z</time></trkpt><trkpt lat="38.07108749464698" lon="13.214224322552402"><ele>823.1666666666667</ele><time>2026-05-03T08:58:49Z</time></trkpt><trkpt lat="38.07111208308426" lon="13.214328656138889"><ele>824.0</ele><time>2026-05-03T08:58:50Z</time></trkpt><trkpt lat="38.071122799886744" lon="13.214415508655856"><ele>824.0000000000001</ele><time>2026-05-03T08:58:51Z</time></trkpt><trkpt lat="38.07112863668355" lon="13.21451126756575"><ele>824.0</ele><time>2026-05-03T08:58:52Z</time></trkpt><trkpt lat="38.071129990819784" lon="13.214609052096272"><ele>824.0</ele><time>2026-05-03T08:58:53Z</time></trkpt><trkpt lat="38.07112210192967" lon="13.21470347041677"><ele>824.0</ele><time>2026-05-03T08:58:54Z</time></trkpt><trkpt lat="38.07111278581758" lon="13.214792844675559"><ele>824.0000000000001</ele><time>2026-05-03T08:58:55Z</time></trkpt><trkpt lat="38.07107344281338" lon="13.214920978352778"><ele>824.0</ele><time>2026-05-03T08:58:57Z</time></trkpt><trkpt lat="38.07107059634678" lon="13.215001193596997"><ele>826.2</ele><time>2026-05-03T08:59:00Z</time></trkpt><trkpt lat="38.07106942806612" lon="13.21508244821447"><ele>828.4000000000001</ele><time>2026-05-03T08:59:09Z</time></trkpt><trkpt lat="38.071089199184364" lon="13.215236712047856"><ele>830.6</ele><time>2026-05-03T08:59:11Z</time></trkpt><trkpt lat="38.07107637685274" lon="13.215342411280268"><ele>832.8</ele><time>2026-05-03T08:59:12Z</time></trkpt><trkpt lat="38.071067363671304" lon="13.215457254955375"><ele>835.0</ele><time>2026-05-03T08:59:13Z</time></trkpt><trkpt lat="38.0710533767774" lon="13.215569380708077"><ele>833.4</ele><time>2026-05-03T08:59:14Z</time></trkpt><trkpt lat="38.07103663172953" lon="13.21568633811193"><ele>831.8</ele><time>2026-05-03T08:59:15Z</time></trkpt><trkpt lat="38.07100746942488" lon="13.215819359738447"><ele>830.2</ele><time>2026-05-03T08:59:16Z</time></trkpt><trkpt lat="38.070991447272455" lon="13.21595328595575"><ele>828.6</ele><time>2026-05-03T08:59:17Z</time></trkpt><trkpt lat="38.070994378899705" lon="13.216091773935112"><ele>827.0</ele><time>2026-05-03T08:59:18Z</time></trkpt><trkpt lat="38.07099770704315" lon="13.216226900140647"><ele>827.0</ele><time>2026-05-03T08:59:19Z</time></trkpt><trkpt lat="38.0709920175126" lon="13.21635505113474"><ele>827.0</ele><time>2026-05-03T08:59:20Z</time></trkpt><trkpt lat="38.070977913552774" lon="13.216477862516928"><ele>827.0</ele><time>2026-05-03T08:59:21Z</time></trkpt><trkpt lat="38.070951109933645" lon="13.21658665224343"><ele>827.0</ele><time>2026-05-03T08:59:22Z</time></trkpt><trkpt lat="38.07091965136618" lon="13.216693201146784"><ele>827.0</ele><time>2026-05-03T08:59:23Z</time></trkpt><trkpt lat="38.07089375880706" lon="13.21682966366732"><ele>827.2</ele><time>2026-05-03T08:59:24Z</time></trkpt><trkpt lat="38.07090536441553" lon="13.216948270003726"><ele>827.4000000000001</ele><time>2026-05-03T08:59:25Z</time></trkpt><trkpt lat="38.07091669614924" lon="13.217088832273856"><ele>827.5999999999999</ele><time>2026-05-03T08:59:26Z</time></trkpt><trkpt lat="38.07095809366628" lon="13.21722331351847"><ele>827.8</ele><time>2026-05-03T08:59:27Z</time></trkpt><trkpt lat="38.07098537193477" lon="13.21736660367167"><ele>828.0</ele><time>2026-05-03T08:59:28Z</time></trkpt><trkpt lat="38.07101002146705" lon="13.217512419369159"><ele>828.0</ele><time>2026-05-03T08:59:29Z</time></trkpt><trkpt lat="38.07108561008852" lon="13.217635519926274"><ele>828.0</ele><time>2026-05-03T08:59:30Z</time></trkpt><trkpt lat="38.07115624372584" lon="13.217743438498909"><ele>828.0</ele><time>2026-05-03T08:59:31Z</time></trkpt><trkpt lat="38.071213432578396" lon="13.217842316214966"><ele>828.0</ele><time>2026-05-03T08:59:32Z</time></trkpt><trkpt lat="38.07123060840746" lon="13.217948530789238"><ele>828.0</ele><time>2026-05-03T08:59:33Z</time></trkpt><trkpt lat="38.07127199378737" lon="13.218075259060177"><ele>832.75</ele><time>2026-05-03T08:59:34Z</time></trkpt><trkpt lat="38.07131099443477" lon="13.218239427691621"><ele>837.5</ele><time>2026-05-03T08:59:35Z</time></trkpt><trkpt lat="38.0713453462689" lon="13.21841347849938"><ele>842.25</ele><time>2026-05-03T08:59:36Z</time></trkpt><trkpt lat="38.071385390637595" lon="13.2185642523865"><ele>847.0</ele><time>2026-05-03T08:59:37Z</time></trkpt><trkpt lat="38.07141178338367" lon="13.21870813589489"><ele>847.0</ele><time>2026-05-03T08:59:38Z</time></trkpt><trkpt lat="38.071437964609125" lon="13.218849160603602"><ele>847.0</ele><time>2026-05-03T08:59:39Z</time></trkpt><trkpt lat="38.071441504390705" lon="13.218983684563225"><ele>847.0</ele><time>2026-05-03T08:59:40Z</time></trkpt><trkpt lat="38.07146050929754" lon="13.21910108500695"><ele>847.0</ele><time>2026-05-03T08:59:41Z</time></trkpt><trkpt lat="38.07150198859093" lon="13.219208219013598"><ele>847.0</ele><time>2026-05-03T08:59:42Z</time></trkpt><trkpt lat="38.071555122905" lon="13.2193159072332"><ele>840.0</ele><time>2026-05-03T08:59:43Z</time></trkpt><trkpt lat="38.07162962925162" lon="13.219435269211406"><ele>833.0</ele><time>2026-05-03T08:59:44Z</time></trkpt><trkpt lat="38.071705355594766" lon="13.219557883268244"><ele>826.0</ele><time>2026-05-03T08:59:45Z</time></trkpt><trkpt lat="38.071800602555356" lon="13.219674479708655"><ele>819.0</ele><time>2026-05-03T08:59:46Z</time></trkpt><trkpt lat="38.071880163965005" lon="13.219740081756134"><ele>822.5</ele><time>2026-05-03T08:59:47Z</time></trkpt><trkpt lat="38.07194643769945" lon="13.219817221716228"><ele>826.0</ele><time>2026-05-03T08:59:48Z</time></trkpt><trkpt lat="38.07202344679269" lon="13.219899497863699"><ele>829.5</ele><time>2026-05-03T08:59:49Z</time></trkpt><trkpt lat="38.07206474468732" lon="13.219979675572734"><ele>833.0</ele><time>2026-05-03T08:59:50Z</time></trkpt><trkpt lat="38.07208618163804" lon="13.220064746753259"><ele>836.5</ele><time>2026-05-03T08:59:51Z</time></trkpt><trkpt lat="38.07209659071593" lon="13.220155919301554"><ele>840.0</ele><time>2026-05-03T08:59:52Z</time></trkpt><trkpt lat="38.072100945260175" lon="13.220261786240581"><ele>840.0</ele><time>2026-05-03T08:59:53Z</time></trkpt><trkpt lat="38.07211057054768" lon="13.220363872218984"><ele>840.0</ele><time>2026-05-03T08:59:54Z</time></trkpt><trkpt lat="38.07211488639548" lon="13.22046008909565"><ele>840.0</ele><time>2026-05-03T08:59:56Z</time></trkpt><trkpt lat="38.07216333805813" lon="13.220558102672975"><ele>840.0</ele><time>2026-05-03T09:00:08Z</time></trkpt><trkpt lat="38.072143237838446" lon="13.2206559054287"><ele>840.0</ele><time>2026-05-03T09:00:24.999Z</time></trkpt><trkpt lat="38.072142816815955" lon="13.22075294250098"><ele>840.0</ele><time>2026-05-03T09:00:33.999Z</time></trkpt><trkpt lat="38.072118102726904" lon="13.220838097632177"><ele>844.0</ele><time>2026-05-03T09:00:37.999Z</time></trkpt><trkpt lat="38.07214242551932" lon="13.220913647301124"><ele>848.0</ele><time>2026-05-03T09:00:39.999Z</time></trkpt><trkpt lat="38.07217671557322" lon="13.221002163903652"><ele>852.0</ele><time>2026-05-03T09:01:06Z</time></trkpt><trkpt lat="38.07219957503679" lon="13.221119800692268"><ele>856.0</ele><time>2026-05-03T09:01:08Z</time></trkpt><trkpt lat="38.072197334285235" lon="13.22120364451757"><ele>860.0</ele><time>2026-05-03T09:01:10Z</time></trkpt><trkpt lat="38.07221295470308" lon="13.221322756960666"><ele>864.0</ele><time>2026-05-03T09:01:13Z</time></trkpt><trkpt lat="38.07225265478869" lon="13.221392333862449"><ele>864.0</ele><time>2026-05-03T09:01:15Z</time></trkpt><trkpt lat="38.072284314864476" lon="13.221469219280733"><ele>864.0</ele><time>2026-05-03T09:01:18Z</time></trkpt><trkpt lat="38.07232430488438" lon="13.22156562329586"><ele>864.0</ele><time>2026-05-03T09:01:28Z</time></trkpt><trkpt lat="38.07234737277879" lon="13.221645911992454"><ele>864.0</ele><time>2026-05-03T09:01:30Z</time></trkpt><trkpt lat="38.07235602348947" lon="13.22172541740153"><ele>864.0</ele><time>2026-05-03T09:01:32Z</time></trkpt><trkpt lat="38.07237217894293" lon="13.221846851841757"><ele>864.0</ele><time>2026-05-03T09:01:35Z</time></trkpt><trkpt lat="38.0723596261957" lon="13.221939181201412"><ele>862.8000000000001</ele><time>2026-05-03T09:01:37Z</time></trkpt><trkpt lat="38.07236536082335" lon="13.22204459310538"><ele>861.6000000000001</ele><time>2026-05-03T09:04:52.999Z</time></trkpt><trkpt lat="38.07240759733629" lon="13.222159636359855"><ele>860.4</ele><time>2026-05-03T09:04:55.999Z</time></trkpt><trkpt lat="38.07244901117174" lon="13.222275573051329"><ele>859.2</ele><time>2026-05-03T09:04:57.999Z</time></trkpt><trkpt lat="38.07249815708739" lon="13.222409364539818"><ele>858.0</ele><time>2026-05-03T09:05:00Z</time></trkpt><trkpt lat="38.072520375516554" lon="13.22249018181338"><ele>858.0</ele><time>2026-05-03T09:05:01Z</time></trkpt><trkpt lat="38.07254244154906" lon="13.222627224528637"><ele>858.0</ele><time>2026-05-03T09:05:03Z</time></trkpt><trkpt lat="38.07257455712459" lon="13.222742911653317"><ele>858.0</ele><time>2026-05-03T09:05:05Z</time></trkpt><trkpt lat="38.072589363547934" lon="13.222892911137285"><ele>858.0</ele><time>2026-05-03T09:05:07Z</time></trkpt><trkpt lat="38.072601923644015" lon="13.22297334952293"><ele>858.0</ele><time>2026-05-03T09:05:08Z</time></trkpt><trkpt lat="38.07258400954549" lon="13.223110323459556"><ele>857.6666666666666</ele><time>2026-05-03T09:05:10Z</time></trkpt><trkpt lat="38.07256247386222" lon="13.223225279034487"><ele>857.3333333333333</ele><time>2026-05-03T09:05:12Z</time></trkpt><trkpt lat="38.072553880610506" lon="13.22333841609535"><ele>857.0</ele><time>2026-05-03T09:05:14Z</time></trkpt><trkpt lat="38.0725767647753" lon="13.223434669780653"><ele>856.6666666666666</ele><time>2026-05-03T09:05:16Z</time></trkpt><trkpt lat="38.07258339347788" lon="13.223549348898057"><ele>856.3333333333333</ele><time>2026-05-03T09:05:17.999Z</time></trkpt><trkpt lat="38.072588350227754" lon="13.223638127005433"><ele>856.0</ele><time>2026-05-03T09:05:19.999Z</time></trkpt><trkpt lat="38.07255867062865" lon="13.22371182526148"><ele>855.9999999999999</ele><time>2026-05-03T09:05:21.999Z</time></trkpt><trkpt lat="38.07252304670831" lon="13.223810981573317"><ele>856.0</ele><time>2026-05-03T09:05:24.999Z</time></trkpt><trkpt lat="38.0724850988276" lon="13.22387892496053"><ele>856.0</ele><time>2026-05-03T09:05:27.999Z</time></trkpt><trkpt lat="38.0724750873557" lon="13.22398819083037"><ele>856.0</ele><time>2026-05-03T09:05:30.999Z</time></trkpt><trkpt lat="38.072444277693634" lon="13.224116388553231"><ele>855.9999999999999</ele><time>2026-05-03T09:05:32.999Z</time></trkpt><trkpt lat="38.072410292587655" lon="13.224210415627901"><ele>856.0</ele><time>2026-05-03T09:05:34.999Z</time></trkpt><trkpt lat="38.07238646717448" lon="13.224304339651296"><ele>856.1999999999999</ele><time>2026-05-03T09:05:36.999Z</time></trkpt><trkpt lat="38.07235017477868" lon="13.224408407669484"><ele>856.3999999999999</ele><time>2026-05-03T09:05:38.999Z</time></trkpt><trkpt lat="38.07232746224827" lon="13.224514393490088"><ele>856.6</ele><time>2026-05-03T09:05:40.999Z</time></trkpt><trkpt lat="38.07231821408945" lon="13.224628898002875"><ele>856.8</ele><time>2026-05-03T09:05:42.999Z</time></trkpt><trkpt lat="38.07232361119605" lon="13.224784990275797"><ele>857.0</ele><time>2026-05-03T09:05:44.999Z</time></trkpt><trkpt lat="38.072324753069495" lon="13.22492863589257"><ele>857.0000000000001</ele><time>2026-05-03T09:05:46.999Z</time></trkpt><trkpt lat="38.07233473230839" lon="13.22507198874181"><ele>857.0</ele><time>2026-05-03T09:05:48.999Z</time></trkpt><trkpt lat="38.072331061079325" lon="13.22515326330811"><ele>857.0</ele><time>2026-05-03T09:05:49.999Z</time></trkpt><trkpt lat="38.07233000830352" lon="13.225236065920162"><ele>857.0</ele><time>2026-05-03T09:05:50.999Z</time></trkpt><trkpt lat="38.072323086225445" lon="13.225324118558273"><ele>857.0000000000001</ele><time>2026-05-03T09:05:51.999Z</time></trkpt><trkpt lat="38.07231819460223" lon="13.225464749350643"><ele>857.0</ele><time>2026-05-03T09:05:53.999Z</time></trkpt><trkpt lat="38.07233719230603" lon="13.225590962461384"><ele>856.1666666666667</ele><time>2026-05-03T09:05:55.999Z</time></trkpt><trkpt lat="38.072347341515695" lon="13.225709508369404"><ele>855.3333333333334</ele><time>2026-05-03T09:05:57.999Z</time></trkpt><trkpt lat="38.07237939764809" lon="13.225800683038534"><ele>854.5</ele><time>2026-05-03T09:06:00Z</time></trkpt><trkpt lat="38.0724168642391" lon="13.225911807203689"><ele>853.6666666666667</ele><time>2026-05-03T09:06:02Z</time></trkpt><trkpt lat="38.07245579483316" lon="13.226006799177119"><ele>852.8333333333334</ele><time>2026-05-03T09:06:04Z</time></trkpt><trkpt lat="38.07247321330628" lon="13.226116411326842"><ele>852.0</ele><time>2026-05-03T09:06:07Z</time></trkpt><trkpt lat="38.07252877703618" lon="13.226202439002872"><ele>846.3333333333334</ele><time>2026-05-03T09:06:10Z</time></trkpt><trkpt lat="38.0726277230336" lon="13.226228031648255"><ele>840.6666666666667</ele><time>2026-05-03T09:06:13Z</time></trkpt><trkpt lat="38.07270631063626" lon="13.226234920615724"><ele>835.0</ele><time>2026-05-03T09:06:15Z</time></trkpt><trkpt lat="38.07277662203226" lon="13.226255408273097"><ele>829.3333333333334</ele><time>2026-05-03T09:06:17Z</time></trkpt><trkpt lat="38.07286818702656" lon="13.226249934143674"><ele>823.6666666666667</ele><time>2026-05-03T09:06:19Z</time></trkpt><trkpt lat="38.07295244662866" lon="13.226244254040166"><ele>818.0</ele><time>2026-05-03T09:06:21Z</time></trkpt><trkpt lat="38.07303848689962" lon="13.22622955953688"><ele>818.0000000000001</ele><time>2026-05-03T09:06:23Z</time></trkpt><trkpt lat="38.07312045118543" lon="13.226221185814815"><ele>818.0</ele><time>2026-05-03T09:06:25Z</time></trkpt><trkpt lat="38.07321314472588" lon="13.226217932926218"><ele>818.0</ele><time>2026-05-03T09:06:27Z</time></trkpt><trkpt lat="38.073284237288924" lon="13.226216928979955"><ele>818.0</ele><time>2026-05-03T09:06:29Z</time></trkpt><trkpt lat="38.07336946225354" lon="13.226239957835055"><ele>818.0000000000001</ele><time>2026-05-03T09:06:31Z</time></trkpt><trkpt lat="38.0734526752331" lon="13.226257359164114"><ele>818.0</ele><time>2026-05-03T09:06:33Z</time></trkpt><trkpt lat="38.07353629198209" lon="13.226267542874682"><ele>816.0000000000001</ele><time>2026-05-03T09:06:35Z</time></trkpt><trkpt lat="38.073611862997026" lon="13.226335614207535"><ele>814.0</ele><time>2026-05-03T09:06:37Z</time></trkpt><trkpt lat="38.07370258678279" lon="13.226395102545727"><ele>812.0</ele><time>2026-05-03T09:06:39Z</time></trkpt><trkpt lat="38.07378359703212" lon="13.22645372201608"><ele>810.0</ele><time>2026-05-03T09:06:41Z</time></trkpt><trkpt lat="38.07382771633831" lon="13.226536152147062"><ele>808.0000000000001</ele><time>2026-05-03T09:06:43Z</time></trkpt><trkpt lat="38.073875831458345" lon="13.226614113661634"><ele>806.0</ele><time>2026-05-03T09:06:45Z</time></trkpt><trkpt lat="38.07392484698891" lon="13.226682493088406"><ele>804.8333333333334</ele><time>2026-05-03T09:06:47Z</time></trkpt><trkpt lat="38.07397151392863" lon="13.226761723006412"><ele>803.6666666666667</ele><time>2026-05-03T09:06:49Z</time></trkpt><trkpt lat="38.07403038124568" lon="13.226848448041656"><ele>802.5</ele><time>2026-05-03T09:06:51Z</time></trkpt><trkpt lat="38.07408520974648" lon="13.226923868465974"><ele>801.3333333333333</ele><time>2026-05-03T09:06:53Z</time></trkpt><trkpt lat="38.07413011772047" lon="13.226998517814906"><ele>800.1666666666666</ele><time>2026-05-03T09:06:55Z</time></trkpt><trkpt lat="38.0742014571314" lon="13.227088191337376"><ele>799.0</ele><time>2026-05-03T09:06:58Z</time></trkpt><trkpt lat="38.07424675226925" lon="13.22718102692042"><ele>798.0</ele><time>2026-05-03T09:07:19Z</time></trkpt><trkpt lat="38.07428298350784" lon="13.227263203785977"><ele>797.0</ele><time>2026-05-03T09:07:21Z</time></trkpt><trkpt lat="38.0742972123781" lon="13.227367831471097"><ele>796.0</ele><time>2026-05-03T09:07:24Z</time></trkpt><trkpt lat="38.074303492901" lon="13.227454574249212"><ele>795.0</ele><time>2026-05-03T09:07:26Z</time></trkpt><trkpt lat="38.07427874511069" lon="13.227529461895367"><ele>794.0</ele><time>2026-05-03T09:07:29Z</time></trkpt><trkpt lat="38.07428535055168" lon="13.227617124551475"><ele>793.0</ele><time>2026-05-03T09:07:32Z</time></trkpt><trkpt lat="38.07429538341474" lon="13.22772330479702"><ele>792.0</ele><time>2026-05-03T09:07:34Z</time></trkpt><trkpt lat="38.0743015093372" lon="13.227824053469217"><ele>789.2</ele><time>2026-05-03T09:07:35Z</time></trkpt><trkpt lat="38.07432303311399" lon="13.227967625601305"><ele>786.4000000000001</ele><time>2026-05-03T09:07:36Z</time></trkpt><trkpt lat="38.07431972434977" lon="13.228102531825284"><ele>783.5999999999999</ele><time>2026-05-03T09:07:37Z</time></trkpt><trkpt lat="38.074268154016615" lon="13.228181151171682"><ele>780.8</ele><time>2026-05-03T09:07:39Z</time></trkpt><trkpt lat="38.07421428283015" lon="13.2282604847757"><ele>778.0</ele><time>2026-05-03T09:07:42Z</time></trkpt><trkpt lat="38.0741706000591" lon="13.228324411439488"><ele>778.8333333333333</ele><time>2026-05-03T09:07:43Z</time></trkpt><trkpt lat="38.07412837925925" lon="13.22840338264818"><ele>779.6666666666666</ele><time>2026-05-03T09:07:44Z</time></trkpt><trkpt lat="38.074102258041314" lon="13.228477888484171"><ele>780.5</ele><time>2026-05-03T09:07:47Z</time></trkpt><trkpt lat="38.07409552190405" lon="13.228576871203524"><ele>781.3333333333333</ele><time>2026-05-03T09:07:50Z</time></trkpt><trkpt lat="38.07410914642472" lon="13.228662413173213"><ele>782.1666666666666</ele><time>2026-05-03T09:07:54Z</time></trkpt><trkpt lat="38.0741268674284" lon="13.228780534489232"><ele>783.0</ele><time>2026-05-03T09:08:02Z</time></trkpt><trkpt lat="38.07413582204617" lon="13.228882323009271"><ele>781.6666666666666</ele><time>2026-05-03T09:08:05Z</time></trkpt><trkpt lat="38.07412609704891" lon="13.228961914835821"><ele>780.3333333333333</ele><time>2026-05-03T09:08:09Z</time></trkpt><trkpt lat="38.074131142593735" lon="13.229073834035365"><ele>779.0</ele><time>2026-05-03T09:08:17Z</time></trkpt><trkpt lat="38.074105251340804" lon="13.229168828119251"><ele>777.6666666666666</ele><time>2026-05-03T09:08:21Z</time></trkpt><trkpt lat="38.0741048437425" lon="13.229265411708894"><ele>776.3333333333333</ele><time>2026-05-03T09:08:25Z</time></trkpt><trkpt lat="38.07407588392167" lon="13.229359827952342"><ele>775.0</ele><time>2026-05-03T09:08:28Z</time></trkpt><trkpt lat="38.0740708771969" lon="13.229447925520953"><ele>774.9999999999999</ele><time>2026-05-03T09:08:35Z</time></trkpt><trkpt lat="38.07404056176858" lon="13.229528062357945"><ele>775.0</ele><time>2026-05-03T09:08:43Z</time></trkpt><trkpt lat="38.074015910505906" lon="13.229616773367963"><ele>775.0</ele><time>2026-05-03T09:08:47Z</time></trkpt><trkpt lat="38.0739790648347" lon="13.229705196475933"><ele>775.0</ele><time>2026-05-03T09:08:50Z</time></trkpt><trkpt lat="38.07395460072746" lon="13.229779276946594"><ele>775.0</ele><time>2026-05-03T09:08:53Z</time></trkpt><trkpt lat="38.07394170057901" lon="13.229863090790472"><ele>774.9999999999999</ele><time>2026-05-03T09:08:57Z</time></trkpt><trkpt lat="38.07391385387492" lon="13.229951436048045"><ele>775.0</ele><time>2026-05-03T09:09:00Z</time></trkpt><trkpt lat="38.0738990307818" lon="13.230033871300451"><ele>772.4999999999999</ele><time>2026-05-03T09:09:03Z</time></trkpt><trkpt lat="38.073868076304656" lon="13.230134774694873"><ele>770.0</ele><time>2026-05-03T09:09:07Z</time></trkpt><trkpt lat="38.07384463916012" lon="13.230232594022203"><ele>767.5</ele><time>2026-05-03T09:09:10Z</time></trkpt><trkpt lat="38.073826058035344" lon="13.230321589717343"><ele>765.0</ele><time>2026-05-03T09:09:13Z</time></trkpt><trkpt lat="38.073830666560454" lon="13.230439799965078"><ele>762.5</ele><time>2026-05-03T09:10:24Z</time></trkpt><trkpt lat="38.073854185224086" lon="13.230515265894981"><ele>760.0</ele><time>2026-05-03T09:10:25Z</time></trkpt><trkpt lat="38.073848642853285" lon="13.230595920702426"><ele>757.8</ele><time>2026-05-03T09:10:26Z</time></trkpt><trkpt lat="38.07385193288162" lon="13.23067647616672"><ele>755.6</ele><time>2026-05-03T09:10:27Z</time></trkpt><trkpt lat="38.07387161021092" lon="13.230816616761116"><ele>753.4000000000001</ele><time>2026-05-03T09:10:29Z</time></trkpt><trkpt lat="38.073893468830455" lon="13.230959442105553"><ele>751.2</ele><time>2026-05-03T09:10:31Z</time></trkpt><trkpt lat="38.073934110344574" lon="13.231107955086706"><ele>749.0</ele><time>2026-05-03T09:10:33Z</time></trkpt><trkpt lat="38.07395577628877" lon="13.231191213758578"><ele>749.0</ele><time>2026-05-03T09:10:34Z</time></trkpt><trkpt lat="38.07397877729867" lon="13.231347278819669"><ele>749.0</ele><time>2026-05-03T09:10:36Z</time></trkpt><trkpt lat="38.07399571565683" lon="13.23149180849364"><ele>749.0</ele><time>2026-05-03T09:10:38Z</time></trkpt><trkpt lat="38.07400142914524" lon="13.23160400100713"><ele>749.0</ele><time>2026-05-03T09:10:40Z</time></trkpt><trkpt lat="38.07402647073111" lon="13.231702225211727"><ele>749.0</ele><time>2026-05-03T09:10:42Z</time></trkpt><trkpt lat="38.074016721238124" lon="13.231794399987258"><ele>747.8000000000001</ele><time>2026-05-03T09:10:44Z</time></trkpt><trkpt lat="38.07400671848753" lon="13.231949509101696"><ele>746.6</ele><time>2026-05-03T09:10:46Z</time></trkpt><trkpt lat="38.07402764322429" lon="13.232047373978919"><ele>745.4</ele><time>2026-05-03T09:10:48Z</time></trkpt><trkpt lat="38.07408963547055" lon="13.232149430535642"><ele>744.2</ele><time>2026-05-03T09:10:51Z</time></trkpt><trkpt lat="38.074123003349946" lon="13.232282477828484"><ele>743.0</ele><time>2026-05-03T09:10:53Z</time></trkpt><trkpt lat="38.0741631994917" lon="13.232359319461954"><ele>741.5</ele><time>2026-05-03T09:10:55Z</time></trkpt><trkpt lat="38.07420903220309" lon="13.23246398830043"><ele>740.0</ele><time>2026-05-03T09:10:59Z</time></trkpt><trkpt lat="38.074235359474244" lon="13.232546742524395"><ele>738.5</ele><time>2026-05-03T09:11:01Z</time></trkpt><trkpt lat="38.07427428987267" lon="13.232616919870996"><ele>737.0</ele><time>2026-05-03T09:11:03Z</time></trkpt><trkpt lat="38.074279681823775" lon="13.23270107499231"><ele>735.5</ele><time>2026-05-03T09:11:06Z</time></trkpt><trkpt lat="38.07432861523741" lon="13.232779866436987"><ele>734.0</ele><time>2026-05-03T09:11:08Z</time></trkpt><trkpt lat="38.07440360007784" lon="13.23285088614545"><ele>734.0</ele><time>2026-05-03T09:11:11Z</time></trkpt><trkpt lat="38.07448817090334" lon="13.232933054205418"><ele>734.0</ele><time>2026-05-03T09:11:13Z</time></trkpt><trkpt lat="38.07456020108263" lon="13.233011141607053"><ele>734.0</ele><time>2026-05-03T09:11:15Z</time></trkpt><trkpt lat="38.07462511018041" lon="13.23311143479118"><ele>734.0</ele><time>2026-05-03T09:11:17Z</time></trkpt><trkpt lat="38.074662580871426" lon="13.233194684622891"><ele>734.0</ele><time>2026-05-03T09:11:18Z</time></trkpt><trkpt lat="38.07470102444286" lon="13.233298344063023"><ele>732.3333333333333</ele><time>2026-05-03T09:11:19Z</time></trkpt><trkpt lat="38.074765637451165" lon="13.233364214838833"><ele>730.6666666666666</ele><time>2026-05-03T09:11:21Z</time></trkpt><trkpt lat="38.074855699743765" lon="13.23337186210199"><ele>729.0</ele><time>2026-05-03T09:11:23Z</time></trkpt><trkpt lat="38.07493642151365" lon="13.233394637855826"><ele>727.3333333333334</ele><time>2026-05-03T09:11:25Z</time></trkpt><trkpt lat="38.074993617780756" lon="13.233430278042718"><ele>725.6666666666667</ele><time>2026-05-03T09:11:27Z</time></trkpt><trkpt lat="38.07503507258059" lon="13.233510562395622"><ele>724.0</ele><time>2026-05-03T09:11:29Z</time></trkpt><trkpt lat="38.07509391920313" lon="13.2335994060292"><ele>724.0</ele><time>2026-05-03T09:11:31Z</time></trkpt><trkpt lat="38.075140631339515" lon="13.233667187818845"><ele>724.0</ele><time>2026-05-03T09:11:33Z</time></trkpt><trkpt lat="38.07518704189128" lon="13.23380109309533"><ele>724.0</ele><time>2026-05-03T09:11:35Z</time></trkpt><trkpt lat="38.07521505197526" lon="13.23388735661769"><ele>724.0</ele><time>2026-05-03T09:11:36Z</time></trkpt><trkpt lat="38.075242821377294" lon="13.23401598857314"><ele>724.0</ele><time>2026-05-03T09:11:38Z</time></trkpt><trkpt lat="38.07529187843758" lon="13.234121495205107"><ele>724.0</ele><time>2026-05-03T09:11:40Z</time></trkpt><trkpt lat="38.07537554448978" lon="13.234182638574195"><ele>724.0</ele><time>2026-05-03T09:11:42Z</time></trkpt><trkpt lat="38.07543393667417" lon="13.234215608752367"><ele>724.0</ele><time>2026-05-03T09:11:43Z</time></trkpt><trkpt lat="38.07549168907301" lon="13.23427836091593"><ele>724.0</ele><time>2026-05-03T09:11:44Z</time></trkpt><trkpt lat="38.07553341395108" lon="13.234338330148487"><ele>724.0</ele><time>2026-05-03T09:11:45Z</time></trkpt><trkpt lat="38.07559066243313" lon="13.234396873978554"><ele>724.0</ele><time>2026-05-03T09:11:46Z</time></trkpt><trkpt lat="38.07569284077782" lon="13.234416844041125"><ele>722.0</ele><time>2026-05-03T09:11:48Z</time></trkpt><trkpt lat="38.07580054094941" lon="13.234429136733379"><ele>720.0</ele><time>2026-05-03T09:11:50Z</time></trkpt><trkpt lat="38.075870416157194" lon="13.234512035974577"><ele>718.0</ele><time>2026-05-03T09:11:52Z</time></trkpt><trkpt lat="38.075972320501144" lon="13.234498990789119"><ele>716.0</ele><time>2026-05-03T09:11:54Z</time></trkpt><trkpt lat="38.07608217667006" lon="13.234475467162303"><ele>714.0</ele><time>2026-05-03T09:11:56Z</time></trkpt><trkpt lat="38.07621053462903" lon="13.234506382200445"><ele>714.0</ele><time>2026-05-03T09:11:58Z</time></trkpt><trkpt lat="38.076278953587135" lon="13.234521339804537"><ele>714.0</ele><time>2026-05-03T09:11:59Z</time></trkpt><trkpt lat="38.07631807673072" lon="13.234585769110703"><ele>714.0</ele><time>2026-05-03T09:12:00Z</time></trkpt><trkpt lat="38.07636694584164" lon="13.234636186068554"><ele>714.0</ele><time>2026-05-03T09:12:01Z</time></trkpt><trkpt lat="38.07643984399544" lon="13.234676278070932"><ele>714.0</ele><time>2026-05-03T09:12:02Z</time></trkpt><trkpt lat="38.07650845333817" lon="13.234741962071682"><ele>714.0</ele><time>2026-05-03T09:12:03Z</time></trkpt><trkpt lat="38.07659753233922" lon="13.23484862986103"><ele>712.6</ele><time>2026-05-03T09:12:05Z</time></trkpt><trkpt lat="38.07669593339783" lon="13.234929421644683"><ele>711.2</ele><time>2026-05-03T09:12:07Z</time></trkpt><trkpt lat="38.0768045621316" lon="13.23498762650949"><ele>709.8000000000001</ele><time>2026-05-03T09:12:09Z</time></trkpt><trkpt lat="38.0768760187345" lon="13.235070049861504"><ele>708.4000000000001</ele><time>2026-05-03T09:12:11Z</time></trkpt><trkpt lat="38.076940922412994" lon="13.235166062993935"><ele>707.0</ele><time>2026-05-03T09:12:13Z</time></trkpt><trkpt lat="38.07697917211494" lon="13.23524159802086"><ele>707.0</ele><time>2026-05-03T09:12:14Z</time></trkpt><trkpt lat="38.0770239007986" lon="13.235394952359579"><ele>707.0</ele><time>2026-05-03T09:12:16Z</time></trkpt><trkpt lat="38.0770729706479" lon="13.235511127989183"><ele>707.0</ele><time>2026-05-03T09:12:18Z</time></trkpt><trkpt lat="38.077120730504404" lon="13.235575120635255"><ele>707.0</ele><time>2026-05-03T09:12:20Z</time></trkpt><trkpt lat="38.077177112724556" lon="13.23561547768676"><ele>707.0</ele><time>2026-05-03T09:12:22Z</time></trkpt><trkpt lat="38.077281091281286" lon="13.235703259479157"><ele>709.0</ele><time>2026-05-03T09:12:24Z</time></trkpt><trkpt lat="38.07733746149412" lon="13.235745361544994"><ele>711.0</ele><time>2026-05-03T09:12:25Z</time></trkpt><trkpt lat="38.07744072362613" lon="13.235766320664474"><ele>713.0</ele><time>2026-05-03T09:12:27Z</time></trkpt><trkpt lat="38.07750510563917" lon="13.235809088099119"><ele>715.0</ele><time>2026-05-03T09:12:28Z</time></trkpt><trkpt lat="38.07755869962083" lon="13.235852389130018"><ele>717.0</ele><time>2026-05-03T09:12:29Z</time></trkpt><trkpt lat="38.07761827854573" lon="13.235917170486417"><ele>719.0</ele><time>2026-05-03T09:12:30Z</time></trkpt><trkpt lat="38.0776988466389" lon="13.235950033885864"><ele>714.2</ele><time>2026-05-03T09:12:31Z</time></trkpt><trkpt lat="38.077777362892526" lon="13.23598277359518"><ele>709.4000000000001</ele><time>2026-05-03T09:12:32Z</time></trkpt><trkpt lat="38.07788758013168" lon="13.236017490838531"><ele>704.6</ele><time>2026-05-03T09:12:34Z</time></trkpt><trkpt lat="38.077978653707966" lon="13.236095701223965"><ele>699.8</ele><time>2026-05-03T09:12:36Z</time></trkpt><trkpt lat="38.07801031805195" lon="13.236224660508096"><ele>695.0</ele><time>2026-05-03T09:12:38Z</time></trkpt><trkpt lat="38.078055566936875" lon="13.236291199959298"><ele>695.0</ele><time>2026-05-03T09:12:40Z</time></trkpt><trkpt lat="38.0780799838686" lon="13.236376808288801"><ele>695.0</ele><time>2026-05-03T09:12:45Z</time></trkpt><trkpt lat="38.078127172557636" lon="13.236477136791084"><ele>695.0</ele><time>2026-05-03T09:12:50Z</time></trkpt><trkpt lat="38.07816088936721" lon="13.236575516351822"><ele>695.0</ele><time>2026-05-03T09:12:52Z</time></trkpt><trkpt lat="38.07820196347784" lon="13.236683840294733"><ele>695.0</ele><time>2026-05-03T09:12:54Z</time></trkpt><trkpt lat="38.07824467990963" lon="13.236810737866824"><ele>692.8333333333333</ele><time>2026-05-03T09:12:56Z</time></trkpt><trkpt lat="38.07829706408085" lon="13.236876847170738"><ele>690.6666666666666</ele><time>2026-05-03T09:12:58Z</time></trkpt><trkpt lat="38.07834684719206" lon="13.236937711731809"><ele>688.5</ele><time>2026-05-03T09:13:00Z</time></trkpt><trkpt lat="38.07840375917056" lon="13.237023780675381"><ele>686.3333333333334</ele><time>2026-05-03T09:13:02Z</time></trkpt><trkpt lat="38.078455016205" lon="13.23712065299037"><ele>684.1666666666667</ele><time>2026-05-03T09:13:04Z</time></trkpt><trkpt lat="38.078487819467085" lon="13.237193043766581"><ele>682.0</ele><time>2026-05-03T09:13:06Z</time></trkpt><trkpt lat="38.07852999580353" lon="13.237253470367865"><ele>682.2857142857142</ele><time>2026-05-03T09:13:08Z</time></trkpt><trkpt lat="38.07858194190701" lon="13.237311397258878"><ele>682.5714285714286</ele><time>2026-05-03T09:13:10Z</time></trkpt><trkpt lat="38.078651061017865" lon="13.237347318233185"><ele>682.8571428571429</ele><time>2026-05-03T09:13:12Z</time></trkpt><trkpt lat="38.07871539576709" lon="13.237366605694508"><ele>683.1428571428571</ele><time>2026-05-03T09:13:14Z</time></trkpt><trkpt lat="38.07877451418235" lon="13.237421642991919"><ele>683.4285714285714</ele><time>2026-05-03T09:13:16Z</time></trkpt><trkpt lat="38.07882750465132" lon="13.23749874900451"><ele>683.7142857142857</ele><time>2026-05-03T09:13:18Z</time></trkpt><trkpt lat="38.0788496471361" lon="13.23757534668194"><ele>684.0</ele><time>2026-05-03T09:13:21Z</time></trkpt><trkpt lat="38.07886037949561" lon="13.23744088189009"><ele>684.0</ele><time>2026-05-03T09:14:19Z</time></trkpt><trkpt lat="38.078810584336026" lon="13.23734277853101"><ele>684.0</ele><time>2026-05-03T09:14:21Z</time></trkpt><trkpt lat="38.078794749982066" lon="13.237235448134141"><ele>684.0</ele><time>2026-05-03T09:14:23Z</time></trkpt><trkpt lat="38.07882859745851" lon="13.237166261489076"><ele>684.0</ele><time>2026-05-03T09:14:25Z</time></trkpt><trkpt lat="38.078909667290766" lon="13.237113620575888"><ele>684.0</ele><time>2026-05-03T09:14:27Z</time></trkpt><trkpt lat="38.078977319751836" lon="13.237086500827653"><ele>684.0</ele><time>2026-05-03T09:14:31Z</time></trkpt><trkpt lat="38.07905444008761" lon="13.237091924957662"><ele>683.1666666666666</ele><time>2026-05-03T09:14:34Z</time></trkpt><trkpt lat="38.07910945767461" lon="13.237145814737312"><ele>682.3333333333334</ele><time>2026-05-03T09:14:36Z</time></trkpt><trkpt lat="38.07915760029231" lon="13.237215079037382"><ele>681.5</ele><time>2026-05-03T09:14:38Z</time></trkpt><trkpt lat="38.07920946659602" lon="13.237334885426499"><ele>680.6666666666667</ele><time>2026-05-03T09:14:40Z</time></trkpt><trkpt lat="38.07926597827798" lon="13.237384645666822"><ele>679.8333333333334</ele><time>2026-05-03T09:14:42Z</time></trkpt><trkpt lat="38.07921635752761" lon="13.237318675504385"><ele>679.0</ele><time>2026-05-03T09:14:50Z</time></trkpt><trkpt lat="38.079159747728454" lon="13.23720369029351"><ele>679.5</ele><time>2026-05-03T09:14:52Z</time></trkpt><trkpt lat="38.079086027771325" lon="13.237114437733705"><ele>680.0</ele><time>2026-05-03T09:14:54Z</time></trkpt><trkpt lat="38.07898935014056" lon="13.237089026575875"><ele>680.5</ele><time>2026-05-03T09:14:56Z</time></trkpt><trkpt lat="38.078923047459476" lon="13.237107561351225"><ele>681.0</ele><time>2026-05-03T09:14:57Z</time></trkpt><trkpt lat="38.078851648902166" lon="13.23717145063091"><ele>681.5</ele><time>2026-05-03T09:14:59Z</time></trkpt><trkpt lat="38.07880515765493" lon="13.237269502881674"><ele>682.0</ele><time>2026-05-03T09:15:01Z</time></trkpt><trkpt lat="38.07880813518977" lon="13.237362948678651"><ele>682.3333333333334</ele><time>2026-05-03T09:15:03Z</time></trkpt><trkpt lat="38.07885529235261" lon="13.237461960274233"><ele>682.6666666666667</ele><time>2026-05-03T09:15:05Z</time></trkpt><trkpt lat="38.07886923744919" lon="13.237541394816066"><ele>683.0</ele><time>2026-05-03T09:15:08Z</time></trkpt><trkpt lat="38.07886020652987" lon="13.237662129421285"><ele>683.3333333333334</ele><time>2026-05-03T09:15:30Z</time></trkpt><trkpt lat="38.07885863597818" lon="13.237773744223341"><ele>683.6666666666666</ele><time>2026-05-03T09:15:32Z</time></trkpt><trkpt lat="38.07885962244432" lon="13.237864313690457"><ele>684.0</ele><time>2026-05-03T09:15:34Z</time></trkpt><trkpt lat="38.078845010171186" lon="13.23795871318506"><ele>684.0</ele><time>2026-05-03T09:15:36Z</time></trkpt><trkpt lat="38.07883229241909" lon="13.238042308611945"><ele>684.0</ele><time>2026-05-03T09:15:37Z</time></trkpt><trkpt lat="38.07883538705835" lon="13.238176403137704"><ele>684.0</ele><time>2026-05-03T09:15:38Z</time></trkpt><trkpt lat="38.07883130524017" lon="13.238347519762215"><ele>684.0</ele><time>2026-05-03T09:15:39Z</time></trkpt><trkpt lat="38.078809518169926" lon="13.238477557971931"><ele>684.0</ele><time>2026-05-03T09:15:40Z</time></trkpt><trkpt lat="38.078810856153375" lon="13.238572129376447"><ele>683.8333333333334</ele><time>2026-05-03T09:15:41Z</time></trkpt><trkpt lat="38.0787976048633" lon="13.238650931988058"><ele>683.6666666666666</ele><time>2026-05-03T09:15:42Z</time></trkpt><trkpt lat="38.078794369134776" lon="13.23873133254945"><ele>683.5</ele><time>2026-05-03T09:15:43Z</time></trkpt><trkpt lat="38.078780983136284" lon="13.238812376476217"><ele>683.3333333333333</ele><time>2026-05-03T09:15:44Z</time></trkpt><trkpt lat="38.07876109209554" lon="13.238962294887173"><ele>683.1666666666666</ele><time>2026-05-03T09:15:46Z</time></trkpt><trkpt lat="38.07875253458351" lon="13.23910925358656"><ele>683.0</ele><time>2026-05-03T09:15:48Z</time></trkpt><trkpt lat="38.07875684350951" lon="13.23926400316611"><ele>683.0</ele><time>2026-05-03T09:15:50Z</time></trkpt><trkpt lat="38.0788076313545" lon="13.239416871172365"><ele>683.0</ele><time>2026-05-03T09:15:52Z</time></trkpt><trkpt lat="38.07882580023729" lon="13.239496808635375"><ele>683.0</ele><time>2026-05-03T09:15:53Z</time></trkpt><trkpt lat="38.078838925851606" lon="13.239585970118739"><ele>683.0</ele><time>2026-05-03T09:15:54Z</time></trkpt><trkpt lat="38.07884894167616" lon="13.239676390012432"><ele>683.0</ele><time>2026-05-03T09:15:55Z</time></trkpt><trkpt lat="38.07887916735544" lon="13.239827961994546"><ele>682.8571428571429</ele><time>2026-05-03T09:15:57Z</time></trkpt><trkpt lat="38.07891311324795" lon="13.239900547476049"><ele>682.7142857142857</ele><time>2026-05-03T09:15:58Z</time></trkpt><trkpt lat="38.07896377880799" lon="13.239970558397566"><ele>682.5714285714286</ele><time>2026-05-03T09:15:59Z</time></trkpt><trkpt lat="38.07901497912394" lon="13.240040204465584"><ele>682.4285714285714</ele><time>2026-05-03T09:16:00Z</time></trkpt><trkpt lat="38.07906650345313" lon="13.240101473388435"><ele>682.2857142857143</ele><time>2026-05-03T09:16:01Z</time></trkpt><trkpt lat="38.07911032079997" lon="13.24017241458745"><ele>682.1428571428571</ele><time>2026-05-03T09:16:02Z</time></trkpt><trkpt lat="38.079145307788835" lon="13.240246636870387"><ele>682.0</ele><time>2026-05-03T09:16:03Z</time></trkpt><trkpt lat="38.07920884298454" lon="13.240366673879924"><ele>673.0</ele><time>2026-05-03T09:16:05Z</time></trkpt><trkpt lat="38.07927083477751" lon="13.24046595969314"><ele>664.0</ele><time>2026-05-03T09:16:07Z</time></trkpt><trkpt lat="38.07931588448665" lon="13.240573887598114"><ele>655.0</ele><time>2026-05-03T09:16:09Z</time></trkpt><trkpt lat="38.079323376938426" lon="13.240722646058583"><ele>646.0</ele><time>2026-05-03T09:16:11Z</time></trkpt><trkpt lat="38.07931380006445" lon="13.240823794442175"><ele>637.0</ele><time>2026-05-03T09:16:12Z</time></trkpt><trkpt lat="38.07929339336712" lon="13.240903662542655"><ele>636.6</ele><time>2026-05-03T09:16:13Z</time></trkpt><trkpt lat="38.079274768823545" lon="13.240994141297923"><ele>636.2</ele><time>2026-05-03T09:16:14Z</time></trkpt><trkpt lat="38.07926770234439" lon="13.241093113166567"><ele>635.8</ele><time>2026-05-03T09:16:15Z</time></trkpt><trkpt lat="38.079263210505175" lon="13.241202729714786"><ele>635.4</ele><time>2026-05-03T09:16:16Z</time></trkpt><trkpt lat="38.079265172657685" lon="13.241326032677692"><ele>635.0</ele><time>2026-05-03T09:16:17Z</time></trkpt><trkpt lat="38.079282833987406" lon="13.241473245053783"><ele>634.8</ele><time>2026-05-03T09:16:18Z</time></trkpt><trkpt lat="38.07929364798133" lon="13.24159496232963"><ele>634.6</ele><time>2026-05-03T09:16:19Z</time></trkpt><trkpt lat="38.079317055068785" lon="13.2416914424879"><ele>634.4</ele><time>2026-05-03T09:16:20Z</time></trkpt><trkpt lat="38.07933871658118" lon="13.241778776173794"><ele>634.2</ele><time>2026-05-03T09:16:21Z</time></trkpt><trkpt lat="38.07938706096249" lon="13.241930359233166"><ele>634.0</ele><time>2026-05-03T09:16:23Z</time></trkpt><trkpt lat="38.07943322611828" lon="13.2420734637587"><ele>634.0</ele><time>2026-05-03T09:16:25Z</time></trkpt><trkpt lat="38.0794569928453" lon="13.242150924773732"><ele>634.0</ele><time>2026-05-03T09:16:26Z</time></trkpt><trkpt lat="38.079501057240904" lon="13.242277951689404"><ele>634.0</ele><time>2026-05-03T09:16:28Z</time></trkpt><trkpt lat="38.07950184490255" lon="13.242423642531033"><ele>634.0</ele><time>2026-05-03T09:16:30Z</time></trkpt><trkpt lat="38.079499398106606" lon="13.242508850192763"><ele>634.0</ele><time>2026-05-03T09:16:31Z</time></trkpt><trkpt lat="38.07949140533988" lon="13.2425969997695"><ele>634.0</ele><time>2026-05-03T09:16:32Z</time></trkpt><trkpt lat="38.07953289896132" lon="13.242715324650431"><ele>631.6</ele><time>2026-05-03T09:16:34Z</time></trkpt><trkpt lat="38.07960415833125" lon="13.242832455049275"><ele>629.2</ele><time>2026-05-03T09:16:36Z</time></trkpt><trkpt lat="38.0796814590564" lon="13.242875002125"><ele>626.8000000000001</ele><time>2026-05-03T09:16:38Z</time></trkpt><trkpt lat="38.07974681173956" lon="13.24288022286964"><ele>624.4</ele><time>2026-05-03T09:16:39Z</time></trkpt><trkpt lat="38.079866653248054" lon="13.242893290374694"><ele>622.0</ele><time>2026-05-03T09:16:41Z</time></trkpt><trkpt lat="38.0799319130536" lon="13.242921925124115"><ele>622.2</ele><time>2026-05-03T09:16:42Z</time></trkpt><trkpt lat="38.08000018512098" lon="13.242936079713443"><ele>622.4000000000001</ele><time>2026-05-03T09:16:43Z</time></trkpt><trkpt lat="38.08010452549741" lon="13.242928990629968"><ele>622.5999999999999</ele><time>2026-05-03T09:16:45Z</time></trkpt><trkpt lat="38.08008386563779" lon="13.242834430533556"><ele>622.8</ele><time>2026-05-03T09:17:06Z</time></trkpt><trkpt lat="38.08003597047297" lon="13.242713064783514"><ele>623.0</ele><time>2026-05-03T09:17:09Z</time></trkpt><trkpt lat="38.07998237696679" lon="13.242612205558382"><ele>622.8</ele><time>2026-05-03T09:17:11Z</time></trkpt><trkpt lat="38.07993170880389" lon="13.242490299496373"><ele>622.5999999999999</ele><time>2026-05-03T09:17:13Z</time></trkpt><trkpt lat="38.07993271679783" lon="13.242345631262676"><ele>622.4000000000001</ele><time>2026-05-03T09:17:15Z</time></trkpt><trkpt lat="38.079943486535754" lon="13.242262567948273"><ele>622.2</ele><time>2026-05-03T09:17:16Z</time></trkpt><trkpt lat="38.079956218981955" lon="13.242109908259268"><ele>622.0</ele><time>2026-05-03T09:17:18Z</time></trkpt><trkpt lat="38.07995500984475" lon="13.241941217339807"><ele>622.3333333333334</ele><time>2026-05-03T09:17:20Z</time></trkpt><trkpt lat="38.07997165184389" lon="13.241773499822225"><ele>622.6666666666667</ele><time>2026-05-03T09:17:22Z</time></trkpt><trkpt lat="38.07997910906247" lon="13.241690675927801"><ele>623.0</ele><time>2026-05-03T09:17:23Z</time></trkpt><trkpt lat="38.080039734316074" lon="13.241586372545207"><ele>623.3333333333334</ele><time>2026-05-03T09:17:25Z</time></trkpt><trkpt lat="38.080097787008036" lon="13.241543765729297"><ele>623.6666666666666</ele><time>2026-05-03T09:17:26Z</time></trkpt><trkpt lat="38.080161880180704" lon="13.241495861909797"><ele>624.0</ele><time>2026-05-03T09:17:27Z</time></trkpt><trkpt lat="38.08025852837144" lon="13.241387512803822"><ele>624.6666666666666</ele><time>2026-05-03T09:17:29Z</time></trkpt><trkpt lat="38.08031883076033" lon="13.241357698254594"><ele>625.3333333333334</ele><time>2026-05-03T09:17:30Z</time></trkpt><trkpt lat="38.080395539584394" lon="13.241328666476061"><ele>626.0</ele><time>2026-05-03T09:17:32Z</time></trkpt><trkpt lat="38.08048515053528" lon="13.2412481574989"><ele>626.6666666666667</ele><time>2026-05-03T09:17:34Z</time></trkpt><trkpt lat="38.08055159942003" lon="13.241184887486021"><ele>627.3333333333334</ele><time>2026-05-03T09:17:35Z</time></trkpt><trkpt lat="38.080623665016205" lon="13.241142294707307"><ele>628.0</ele><time>2026-05-03T09:17:36Z</time></trkpt><trkpt lat="38.08069899859838" lon="13.241126381705184"><ele>628.0</ele><time>2026-05-03T09:17:37Z</time></trkpt><trkpt lat="38.08076466893592" lon="13.241100494156958"><ele>628.0</ele><time>2026-05-03T09:17:38Z</time></trkpt><trkpt lat="38.08083327491766" lon="13.24106381113953"><ele>628.0</ele><time>2026-05-03T09:17:39Z</time></trkpt><trkpt lat="38.08089108001676" lon="13.241011129426456"><ele>628.0</ele><time>2026-05-03T09:17:40Z</time></trkpt><trkpt lat="38.08095444839353" lon="13.240947926428083"><ele>628.0</ele><time>2026-05-03T09:17:41Z</time></trkpt><trkpt lat="38.081050152201726" lon="13.240877142974917"><ele>628.0</ele><time>2026-05-03T09:17:43Z</time></trkpt><trkpt lat="38.081147961021486" lon="13.240813024374303"><ele>631.4</ele><time>2026-05-03T09:17:45Z</time></trkpt><trkpt lat="38.081205392990015" lon="13.24076733134608"><ele>634.8</ele><time>2026-05-03T09:17:46Z</time></trkpt><trkpt lat="38.08127255062168" lon="13.24074062376336"><ele>638.2</ele><time>2026-05-03T09:17:47Z</time></trkpt><trkpt lat="38.08139950393765" lon="13.24073683501313"><ele>641.6</ele><time>2026-05-03T09:17:49Z</time></trkpt><trkpt lat="38.08147508158891" lon="13.240736140620026"><ele>645.0</ele><time>2026-05-03T09:17:50Z</time></trkpt><trkpt lat="38.08160461427329" lon="13.240732464847227"><ele>647.8333333333334</ele><time>2026-05-03T09:17:52Z</time></trkpt><trkpt lat="38.08171135714358" lon="13.240789701170865"><ele>650.6666666666666</ele><time>2026-05-03T09:17:54Z</time></trkpt><trkpt lat="38.08177379414159" lon="13.240820495228654"><ele>653.5</ele><time>2026-05-03T09:17:55Z</time></trkpt><trkpt lat="38.081839560289495" lon="13.240854807731107"><ele>656.3333333333333</ele><time>2026-05-03T09:17:56Z</time></trkpt><trkpt lat="38.08190329568787" lon="13.240888877686746"><ele>659.1666666666666</ele><time>2026-05-03T09:17:57Z</time></trkpt><trkpt lat="38.08197053990634" lon="13.240905303858607"><ele>662.0</ele><time>2026-05-03T09:17:58Z</time></trkpt><trkpt lat="38.08204857764328" lon="13.240921166053475"><ele>662.0</ele><time>2026-05-03T09:17:59Z</time></trkpt><trkpt lat="38.08213213545636" lon="13.240943906286102"><ele>662.0</ele><time>2026-05-03T09:18:00Z</time></trkpt><trkpt lat="38.082205552163934" lon="13.24097027429667"><ele>662.0</ele><time>2026-05-03T09:18:01Z</time></trkpt><trkpt lat="38.082283485505855" lon="13.241004017667812"><ele>662.0</ele><time>2026-05-03T09:18:02Z</time></trkpt><trkpt lat="38.0823419362666" lon="13.241042044071065"><ele>662.0</ele><time>2026-05-03T09:18:03Z</time></trkpt><trkpt lat="38.08242811109261" lon="13.24108593639009"><ele>662.0</ele><time>2026-05-03T09:18:04Z</time></trkpt><trkpt lat="38.08256146194156" lon="13.241134518300049"><ele>663.4285714285714</ele><time>2026-05-03T09:18:06Z</time></trkpt><trkpt lat="38.08262995031238" lon="13.241162166294872"><ele>664.8571428571429</ele><time>2026-05-03T09:18:07Z</time></trkpt><trkpt lat="38.08269915865076" lon="13.24119842549726"><ele>666.2857142857142</ele><time>2026-05-03T09:18:08Z</time></trkpt><trkpt lat="38.0827747943492" lon="13.241226125840138"><ele>667.7142857142858</ele><time>2026-05-03T09:18:09Z</time></trkpt><trkpt lat="38.08284604875963" lon="13.241250225199947"><ele>669.1428571428571</ele><time>2026-05-03T09:18:10Z</time></trkpt><trkpt lat="38.08290863098976" lon="13.241285072999013"><ele>670.5714285714286</ele><time>2026-05-03T09:18:11Z</time></trkpt><trkpt lat="38.082964619977744" lon="13.241324324510176"><ele>672.0</ele><time>2026-05-03T09:18:12Z</time></trkpt><trkpt lat="38.083010354983514" lon="13.241384005284837"><ele>672.0</ele><time>2026-05-03T09:18:13Z</time></trkpt><trkpt lat="38.08305978573103" lon="13.241455872994953"><ele>672.0</ele><time>2026-05-03T09:18:14Z</time></trkpt><trkpt lat="38.083118112921404" lon="13.241507904701166"><ele>672.0</ele><time>2026-05-03T09:18:15Z</time></trkpt><trkpt lat="38.08316912752988" lon="13.241565336724587"><ele>672.0</ele><time>2026-05-03T09:18:16Z</time></trkpt><trkpt lat="38.083256007549714" lon="13.24166868248997"><ele>672.0</ele><time>2026-05-03T09:18:18Z</time></trkpt><trkpt lat="38.08330901351706" lon="13.241721689886141"><ele>672.0</ele><time>2026-05-03T09:18:19Z</time></trkpt><trkpt lat="38.08336978000677" lon="13.241776903913856"><ele>675.0</ele><time>2026-05-03T09:18:20Z</time></trkpt><trkpt lat="38.08342787913481" lon="13.241827607913251"><ele>678.0</ele><time>2026-05-03T09:18:21Z</time></trkpt><trkpt lat="38.08349403245234" lon="13.241866217830836"><ele>681.0</ele><time>2026-05-03T09:18:22Z</time></trkpt><trkpt lat="38.08355809518641" lon="13.241893964484243"><ele>684.0</ele><time>2026-05-03T09:18:23Z</time></trkpt><trkpt lat="38.083621602557585" lon="13.241898021918285"><ele>687.0</ele><time>2026-05-03T09:18:24Z</time></trkpt><trkpt lat="38.08369752462948" lon="13.241882433939088"><ele>690.0</ele><time>2026-05-03T09:18:25Z</time></trkpt><trkpt lat="38.083774655957725" lon="13.24186503108648"><ele>693.0</ele><time>2026-05-03T09:18:26Z</time></trkpt><trkpt lat="38.083906212606635" lon="13.241860819355265"><ele>693.0</ele><time>2026-05-03T09:18:28Z</time></trkpt><trkpt lat="38.08402615755424" lon="13.241868473680798"><ele>693.0</ele><time>2026-05-03T09:18:30Z</time></trkpt><trkpt lat="38.08409170565471" lon="13.24187798794036"><ele>693.0</ele><time>2026-05-03T09:18:31Z</time></trkpt><trkpt lat="38.08416535039319" lon="13.241906559214499"><ele>693.0</ele><time>2026-05-03T09:18:32Z</time></trkpt><trkpt lat="38.084259041357086" lon="13.241895328052866"><ele>693.0</ele><time>2026-05-03T09:18:49Z</time></trkpt><trkpt lat="38.08434539766068" lon="13.24187788197946"><ele>693.0</ele><time>2026-05-03T09:18:51Z</time></trkpt><trkpt lat="38.08444687610565" lon="13.241872152641683"><ele>694.6666666666666</ele><time>2026-05-03T09:18:53Z</time></trkpt><trkpt lat="38.084533615125416" lon="13.241864406018559"><ele>696.3333333333334</ele><time>2026-05-03T09:18:55Z</time></trkpt><trkpt lat="38.08462531882457" lon="13.241854193000398"><ele>698.0</ele><time>2026-05-03T09:18:58Z</time></trkpt><trkpt lat="38.08470019956977" lon="13.241839189131138"><ele>699.6666666666667</ele><time>2026-05-03T09:19:00Z</time></trkpt><trkpt lat="38.08477286873614" lon="13.241816303140444"><ele>701.3333333333334</ele><time>2026-05-03T09:19:03Z</time></trkpt><trkpt lat="38.084837749087754" lon="13.241772183570465"><ele>703.0</ele><time>2026-05-03T09:19:06Z</time></trkpt><trkpt lat="38.084926797773726" lon="13.241761680546434"><ele>706.4285714285714</ele><time>2026-05-03T09:19:10Z</time></trkpt><trkpt lat="38.084997634476885" lon="13.241775145759819"><ele>709.8571428571429</ele><time>2026-05-03T09:19:32Z</time></trkpt><trkpt lat="38.08506236945201" lon="13.241782626471203"><ele>713.2857142857142</ele><time>2026-05-03T09:19:43Z</time></trkpt><trkpt lat="38.085132104039374" lon="13.241775561902"><ele>716.7142857142858</ele><time>2026-05-03T09:19:53Z</time></trkpt><trkpt lat="38.085215684953084" lon="13.241790800324686"><ele>720.1428571428572</ele><time>2026-05-03T09:19:56Z</time></trkpt><trkpt lat="38.08529516057303" lon="13.241828999640566"><ele>723.5714285714286</ele><time>2026-05-03T09:19:59Z</time></trkpt><trkpt lat="38.08536690504944" lon="13.241810392522181"><ele>727.0</ele><time>2026-05-03T09:20:02Z</time></trkpt><trkpt lat="38.08544868233472" lon="13.241839343448738"><ele>727.0</ele><time>2026-05-03T09:20:05Z</time></trkpt><trkpt lat="38.08551371622185" lon="13.241786339977068"><ele>727.0</ele><time>2026-05-03T09:20:10Z</time></trkpt><trkpt lat="38.08554469978469" lon="13.241702611838438"><ele>727.0</ele><time>2026-05-03T09:20:20Z</time></trkpt><trkpt lat="38.08561637366177" lon="13.241645820787916"><ele>727.0</ele><time>2026-05-03T09:20:23Z</time></trkpt><trkpt lat="38.0856759797718" lon="13.241595980560678"><ele>727.0</ele><time>2026-05-03T09:20:25Z</time></trkpt><trkpt lat="38.0857288218462" lon="13.241525239821705"><ele>727.0</ele><time>2026-05-03T09:20:28Z</time></trkpt><trkpt lat="38.08575640058335" lon="13.241447385597573"><ele>733.0</ele><time>2026-05-03T09:20:32Z</time></trkpt><trkpt lat="38.08579994134076" lon="13.241365454218386"><ele>739.0</ele><time>2026-05-03T09:20:37Z</time></trkpt><trkpt lat="38.08584295577484" lon="13.241247897038233"><ele>745.0</ele><time>2026-05-03T09:20:40Z</time></trkpt><trkpt lat="38.08592863159316" lon="13.241183525955623"><ele>751.0</ele><time>2026-05-03T09:20:42Z</time></trkpt><trkpt lat="38.086001355858194" lon="13.241130485029434"><ele>757.0</ele><time>2026-05-03T09:20:44Z</time></trkpt><trkpt lat="38.086031637400296" lon="13.24104315170483"><ele>763.0</ele><time>2026-05-03T09:20:47Z</time></trkpt><trkpt lat="38.0860095220461" lon="13.240956490875142"><ele>763.0</ele><time>2026-05-03T09:20:56Z</time></trkpt><trkpt lat="38.08606134645743" lon="13.240883349569474"><ele>763.0</ele><time>2026-05-03T09:22:01Z</time></trkpt><trkpt lat="38.086139128223486" lon="13.24079795584319"><ele>763.0</ele><time>2026-05-03T09:22:03Z</time></trkpt><trkpt lat="38.086232349044295" lon="13.24077401380881"><ele>763.0</ele><time>2026-05-03T09:22:05Z</time></trkpt><trkpt lat="38.08630267309517" lon="13.240780626469892"><ele>763.0</ele><time>2026-05-03T09:22:39Z</time></trkpt><trkpt lat="38.08631730178563" lon="13.240888479133554"><ele>763.0</ele><time>2026-05-03T09:22:53Z</time></trkpt><trkpt lat="38.08633394522689" lon="13.24098817466069"><ele>763.0</ele><time>2026-05-03T09:22:55Z</time></trkpt><trkpt lat="38.08634931220346" lon="13.241080478800779"><ele>763.0</ele><time>2026-05-03T09:22:57Z</time></trkpt><trkpt lat="38.08635255447813" lon="13.241162306759025"><ele>763.0</ele><time>2026-05-03T09:22:59Z</time></trkpt><trkpt lat="38.08634933595411" lon="13.241261451636543"><ele>763.0</ele><time>2026-05-03T09:23:01Z</time></trkpt><trkpt lat="38.08634407318123" lon="13.241380862229228"><ele>763.0</ele><time>2026-05-03T09:23:03Z</time></trkpt><trkpt lat="38.086338101098605" lon="13.241503352535705"><ele>763.0</ele><time>2026-05-03T09:23:05Z</time></trkpt><trkpt lat="38.086324743487815" lon="13.241628957154614"><ele>760.0</ele><time>2026-05-03T09:23:07Z</time></trkpt><trkpt lat="38.08630807369627" lon="13.241755732010722"><ele>757.0</ele><time>2026-05-03T09:23:09Z</time></trkpt><trkpt lat="38.086274213843055" lon="13.241872992905352"><ele>754.0</ele><time>2026-05-03T09:23:11Z</time></trkpt><trkpt lat="38.086217671818865" lon="13.2419801315987"><ele>751.0</ele><time>2026-05-03T09:23:13Z</time></trkpt><trkpt lat="38.08617520523711" lon="13.242062254257027"><ele>748.0</ele><time>2026-05-03T09:23:15Z</time></trkpt><trkpt lat="38.086248894106994" lon="13.242023293634436"><ele>748.0</ele><time>2026-05-03T09:23:52Z</time></trkpt><trkpt lat="38.08631122434159" lon="13.241947826787639"><ele>748.0</ele><time>2026-05-03T09:23:54Z</time></trkpt><trkpt lat="38.08637265917779" lon="13.241843770566796"><ele>748.0</ele><time>2026-05-03T09:23:56Z</time></trkpt><trkpt lat="38.08644045403067" lon="13.24169926340753"><ele>748.0</ele><time>2026-05-03T09:23:58Z</time></trkpt><trkpt lat="38.086470724733324" lon="13.241628682688859"><ele>748.0</ele><time>2026-05-03T09:23:59Z</time></trkpt><trkpt lat="38.086485636704914" lon="13.241550714691133"><ele>748.0</ele><time>2026-05-03T09:24:00Z</time></trkpt><trkpt lat="38.08648533185159" lon="13.241401262566177"><ele>751.0</ele><time>2026-05-03T09:24:02Z</time></trkpt><trkpt lat="38.086494001696884" lon="13.241247916040077"><ele>754.0</ele><time>2026-05-03T09:24:04Z</time></trkpt><trkpt lat="38.08649898112482" lon="13.241161370916057"><ele>757.0</ele><time>2026-05-03T09:24:05Z</time></trkpt><trkpt lat="38.08650949703483" lon="13.241076248163845"><ele>760.0</ele><time>2026-05-03T09:24:06Z</time></trkpt><trkpt lat="38.08654273856604" lon="13.240907885657506"><ele>763.0</ele><time>2026-05-03T09:24:08Z</time></trkpt><trkpt lat="38.0865467203474" lon="13.240825555216352"><ele>763.0</ele><time>2026-05-03T09:24:09Z</time></trkpt><trkpt lat="38.08654454166445" lon="13.240731103196035"><ele>763.0</ele><time>2026-05-03T09:24:10Z</time></trkpt><trkpt lat="38.08655937576451" lon="13.240584660542252"><ele>763.0</ele><time>2026-05-03T09:24:12Z</time></trkpt><trkpt lat="38.0865674097108" lon="13.240494280228004"><ele>763.0</ele><time>2026-05-03T09:24:13Z</time></trkpt><trkpt lat="38.086571506119455" lon="13.240393242690795"><ele>763.0</ele><time>2026-05-03T09:24:14Z</time></trkpt><trkpt lat="38.08654309565811" lon="13.240252362575953"><ele>766.8333333333334</ele><time>2026-05-03T09:24:16Z</time></trkpt><trkpt lat="38.0865078437642" lon="13.240177284062081"><ele>770.6666666666667</ele><time>2026-05-03T09:24:17Z</time></trkpt><trkpt lat="38.086458744334045" lon="13.240105589004498"><ele>774.5</ele><time>2026-05-03T09:24:18Z</time></trkpt><trkpt lat="38.08641457755178" lon="13.240048311844129"><ele>778.3333333333334</ele><time>2026-05-03T09:24:19Z</time></trkpt><trkpt lat="38.08633163367379" lon="13.239971178541362"><ele>782.1666666666666</ele><time>2026-05-03T09:24:21Z</time></trkpt><trkpt lat="38.08635661536691" lon="13.239893346357087"><ele>786.0</ele><time>2026-05-03T09:24:23Z</time></trkpt><trkpt lat="38.08648874961648" lon="13.239944181952374"><ele>786.0</ele><time>2026-05-03T09:24:25Z</time></trkpt><trkpt lat="38.08655383984711" lon="13.240072046334785"><ele>786.0</ele><time>2026-05-03T09:24:27Z</time></trkpt><trkpt lat="38.08659454353326" lon="13.240156430365932"><ele>786.0</ele><time>2026-05-03T09:24:28Z</time></trkpt><trkpt lat="38.08662612400106" lon="13.2402400058844"><ele>786.0</ele><time>2026-05-03T09:24:29Z</time></trkpt><trkpt lat="38.08665898259119" lon="13.240354358035034"><ele>786.0</ele><time>2026-05-03T09:24:31Z</time></trkpt><trkpt lat="38.086724332193484" lon="13.240213079441045"><ele>786.0</ele><time>2026-05-03T09:24:35Z</time></trkpt><trkpt lat="38.08668575545385" lon="13.240118318673149"><ele>786.0</ele><time>2026-05-03T09:24:37Z</time></trkpt><trkpt lat="38.08668566590393" lon="13.24002344088762"><ele>786.0</ele><time>2026-05-03T09:24:41Z</time></trkpt><trkpt lat="38.086610324514595" lon="13.23994070863881"><ele>786.0</ele><time>2026-05-03T09:24:43Z</time></trkpt><trkpt lat="38.08655550708547" lon="13.239890237921836"><ele>786.0</ele><time>2026-05-03T09:24:46Z</time></trkpt><trkpt lat="38.08649405146929" lon="13.23980569052628"><ele>786.0</ele><time>2026-05-03T09:24:48Z</time></trkpt><trkpt lat="38.08644743239687" lon="13.239723680958484"><ele>787.0</ele><time>2026-05-03T09:24:50Z</time></trkpt><trkpt lat="38.086459554562644" lon="13.239644313120444"><ele>788.0</ele><time>2026-05-03T09:24:52Z</time></trkpt><trkpt lat="38.08654270786806" lon="13.2396572855284"><ele>789.0</ele><time>2026-05-03T09:24:54Z</time></trkpt><trkpt lat="38.086593751060455" lon="13.239718601276648"><ele>790.0</ele><time>2026-05-03T09:24:56Z</time></trkpt><trkpt lat="38.086655355578195" lon="13.23976332778993"><ele>791.0</ele><time>2026-05-03T09:24:58Z</time></trkpt><trkpt lat="38.08672364667392" lon="13.23982220117306"><ele>792.0</ele><time>2026-05-03T09:25:00Z</time></trkpt><trkpt lat="38.08678663472261" lon="13.239889787732144"><ele>792.0</ele><time>2026-05-03T09:25:02Z</time></trkpt><trkpt lat="38.086826960180446" lon="13.239802771710494"><ele>792.0</ele><time>2026-05-03T09:25:05Z</time></trkpt><trkpt lat="38.086764286117834" lon="13.23975820433067"><ele>792.0</ele><time>2026-05-03T09:25:09Z</time></trkpt><trkpt lat="38.0867281708868" lon="13.239683151548826"><ele>792.0</ele><time>2026-05-03T09:25:12Z</time></trkpt><trkpt lat="38.086688365520644" lon="13.239609120922713"><ele>792.0</ele><time>2026-05-03T09:25:20Z</time></trkpt><trkpt lat="38.086651819451475" lon="13.239511425670019"><ele>792.0</ele><time>2026-05-03T09:25:22Z</time></trkpt><trkpt lat="38.08659389719086" lon="13.23942067977877"><ele>798.3333333333334</ele><time>2026-05-03T09:25:25Z</time></trkpt><trkpt lat="38.08653882767336" lon="13.239369277285393"><ele>804.6666666666667</ele><time>2026-05-03T09:25:27Z</time></trkpt><trkpt lat="38.086454849054206" lon="13.239374295062898"><ele>811.0</ele><time>2026-05-03T09:25:29Z</time></trkpt><trkpt lat="38.08638716850783" lon="13.239376247452396"><ele>817.3333333333334</ele><time>2026-05-03T09:25:31Z</time></trkpt><trkpt lat="38.08635242918783" lon="13.239281538583995"><ele>823.6666666666667</ele><time>2026-05-03T09:25:34Z</time></trkpt><trkpt lat="38.08642436030792" lon="13.239234498048802"><ele>830.0</ele><time>2026-05-03T09:25:36Z</time></trkpt><trkpt lat="38.086545774943" lon="13.239254444512303"><ele>827.5000000000001</ele><time>2026-05-03T09:25:39Z</time></trkpt><trkpt lat="38.08662080380992" lon="13.239272464661008"><ele>825.0</ele><time>2026-05-03T09:25:41Z</time></trkpt><trkpt lat="38.08668244159984" lon="13.239309478036256"><ele>822.5</ele><time>2026-05-03T09:25:43Z</time></trkpt><trkpt lat="38.08676989987086" lon="13.239373445342526"><ele>820.0</ele><time>2026-05-03T09:25:46Z</time></trkpt><trkpt lat="38.08682162129662" lon="13.239446518609576"><ele>817.5000000000001</ele><time>2026-05-03T09:25:48Z</time></trkpt><trkpt lat="38.08688186635933" lon="13.239504667779938"><ele>815.0</ele><time>2026-05-03T09:25:50Z</time></trkpt><trkpt lat="38.086952077017536" lon="13.239572649813992"><ele>815.0</ele><time>2026-05-03T09:25:52Z</time></trkpt><trkpt lat="38.08700900228647" lon="13.239686675783434"><ele>815.0</ele><time>2026-05-03T09:25:54Z</time></trkpt><trkpt lat="38.08706941939334" lon="13.239809723364303"><ele>815.0</ele><time>2026-05-03T09:25:56Z</time></trkpt><trkpt lat="38.087118160577" lon="13.239932047199149"><ele>815.0</ele><time>2026-05-03T09:25:57.999Z</time></trkpt><trkpt lat="38.08713687587591" lon="13.240059369341765"><ele>815.0</ele><time>2026-05-03T09:25:59.999Z</time></trkpt><trkpt lat="38.08715910499149" lon="13.240196487395362"><ele>810.4</ele><time>2026-05-03T09:26:01.999Z</time></trkpt><trkpt lat="38.08717262731206" lon="13.24035009810017"><ele>805.8</ele><time>2026-05-03T09:26:03.999Z</time></trkpt><trkpt lat="38.08718628193562" lon="13.240438243320568"><ele>801.2</ele><time>2026-05-03T09:26:04.999Z</time></trkpt><trkpt lat="38.08721129585727" lon="13.240580107892551"><ele>796.6</ele><time>2026-05-03T09:26:06.999Z</time></trkpt><trkpt lat="38.087247692325214" lon="13.240657989863276"><ele>792.0</ele><time>2026-05-03T09:26:09Z</time></trkpt><trkpt lat="38.087287347612666" lon="13.240566435914394"><ele>792.0</ele><time>2026-05-03T09:26:13Z</time></trkpt><trkpt lat="38.087270258269186" lon="13.240475602183398"><ele>792.0</ele><time>2026-05-03T09:26:16Z</time></trkpt><trkpt lat="38.08727446345575" lon="13.24039286455268"><ele>792.0</ele><time>2026-05-03T09:26:19Z</time></trkpt><trkpt lat="38.087280043375586" lon="13.240289608552159"><ele>792.0</ele><time>2026-05-03T09:27:11.999Z</time></trkpt><trkpt lat="38.08729135453639" lon="13.240174580803103"><ele>792.0</ele><time>2026-05-03T09:27:14.999Z</time></trkpt><trkpt lat="38.08728203634232" lon="13.240037133799586"><ele>792.0</ele><time>2026-05-03T09:27:26.999Z</time></trkpt><trkpt lat="38.08728441783983" lon="13.239925453624425"><ele>792.0</ele><time>2026-05-03T09:27:28.999Z</time></trkpt><trkpt lat="38.08729867046131" lon="13.239839975680399"><ele>792.0</ele><time>2026-05-03T09:27:30.999Z</time></trkpt><trkpt lat="38.08730325794598" lon="13.239738109640761"><ele>792.0</ele><time>2026-05-03T09:27:32.999Z</time></trkpt><trkpt lat="38.08729707593363" lon="13.23963207747086"><ele>792.0</ele><time>2026-05-03T09:27:34.999Z</time></trkpt><trkpt lat="38.08726746783072" lon="13.239535418291606"><ele>792.0</ele><time>2026-05-03T09:27:37.999Z</time></trkpt><trkpt lat="38.08727092069313" lon="13.239429907649313"><ele>792.0</ele><time>2026-05-03T09:27:39.999Z</time></trkpt><trkpt lat="38.087243767246946" lon="13.239341079699"><ele>795.2857142857143</ele><time>2026-05-03T09:27:42.999Z</time></trkpt><trkpt lat="38.087220300678396" lon="13.23926398386876"><ele>798.5714285714286</ele><time>2026-05-03T09:27:44.999Z</time></trkpt><trkpt lat="38.0871834253834" lon="13.239162069206023"><ele>801.8571428571429</ele><time>2026-05-03T09:27:46.999Z</time></trkpt><trkpt lat="38.087142901688935" lon="13.2390944943418"><ele>805.1428571428571</ele><time>2026-05-03T09:27:48.999Z</time></trkpt><trkpt lat="38.08710516288274" lon="13.239026766091353"><ele>808.4285714285713</ele><time>2026-05-03T09:27:59.999Z</time></trkpt><trkpt lat="38.08713687190048" lon="13.238954201753234"><ele>811.7142857142857</ele><time>2026-05-03T09:28:03.999Z</time></trkpt><trkpt lat="38.08719814754358" lon="13.238982157677569"><ele>815.0</ele><time>2026-05-03T09:28:06.999Z</time></trkpt><trkpt lat="38.08726912936177" lon="13.23908538655494"><ele>815.0000000000001</ele><time>2026-05-03T09:28:09.999Z</time></trkpt><trkpt lat="38.087325425230105" lon="13.239137327476916"><ele>815.0</ele><time>2026-05-03T09:28:11.999Z</time></trkpt><trkpt lat="38.087383810086855" lon="13.239209073235267"><ele>815.0</ele><time>2026-05-03T09:28:34.999Z</time></trkpt><trkpt lat="38.087439114976775" lon="13.239276965027658"><ele>815.0</ele><time>2026-05-03T09:28:37.999Z</time></trkpt><trkpt lat="38.08750011710784" lon="13.239341913201425"><ele>815.0000000000001</ele><time>2026-05-03T09:28:39.999Z</time></trkpt><trkpt lat="38.08756194818789" lon="13.239325498921154"><ele>815.0</ele><time>2026-05-03T09:28:43.999Z</time></trkpt><trkpt lat="38.08753226739443" lon="13.239208720858723"><ele>819.0000000000001</ele><time>2026-05-03T09:28:46.999Z</time></trkpt><trkpt lat="38.087538277635" lon="13.239128351140131"><ele>823.0</ele><time>2026-05-03T09:28:55.999Z</time></trkpt><trkpt lat="38.087499695354595" lon="13.23903744071153"><ele>827.0</ele><time>2026-05-03T09:29:00.999Z</time></trkpt><trkpt lat="38.08746478681841" lon="13.238970203498587"><ele>831.0</ele><time>2026-05-03T09:29:02.999Z</time></trkpt><trkpt lat="38.08743663430986" lon="13.238861611121859"><ele>835.0000000000001</ele><time>2026-05-03T09:29:05.999Z</time></trkpt><trkpt lat="38.08738655240165" lon="13.238770661553769"><ele>839.0</ele><time>2026-05-03T09:29:08.999Z</time></trkpt><trkpt lat="38.08736033443411" lon="13.238692906460885"><ele>840.3333333333334</ele><time>2026-05-03T09:29:10.999Z</time></trkpt><trkpt lat="38.08731630589049" lon="13.238625858346788"><ele>841.6666666666667</ele><time>2026-05-03T09:29:13.999Z</time></trkpt><trkpt lat="38.08728878230843" lon="13.238544811229218"><ele>843.0</ele><time>2026-05-03T09:29:19.999Z</time></trkpt><trkpt lat="38.08725370400291" lon="13.238465281868471"><ele>844.3333333333333</ele><time>2026-05-03T09:29:25.999Z</time></trkpt><trkpt lat="38.08720460295262" lon="13.238386826312032"><ele>845.6666666666666</ele><time>2026-05-03T09:29:33.999Z</time></trkpt><trkpt lat="38.08715371434392" lon="13.238316107598685"><ele>847.0</ele><time>2026-05-03T09:29:36.999Z</time></trkpt><trkpt lat="38.08707996315916" lon="13.238257863977514"><ele>846.9999999999999</ele><time>2026-05-03T09:29:39.999Z</time></trkpt><trkpt lat="38.08705313349471" lon="13.23817737624868"><ele>847.0</ele><time>2026-05-03T09:29:41.999Z</time></trkpt><trkpt lat="38.087011875659286" lon="13.238096782376306"><ele>847.0</ele><time>2026-05-03T09:29:44.999Z</time></trkpt><trkpt lat="38.08694060282553" lon="13.238035477208262"><ele>847.0</ele><time>2026-05-03T09:29:47.999Z</time></trkpt><trkpt lat="38.08686152674617" lon="13.237973964084814"><ele>846.9999999999999</ele><time>2026-05-03T09:31:00.999Z</time></trkpt><trkpt lat="38.086777091532106" lon="13.237930694508883"><ele>847.0</ele><time>2026-05-03T09:31:04.999Z</time></trkpt><trkpt lat="38.08669336921736" lon="13.237880333137136"><ele>851.1666666666666</ele><time>2026-05-03T09:31:10.999Z</time></trkpt><trkpt lat="38.08665836851866" lon="13.237806693535497"><ele>855.3333333333333</ele><time>2026-05-03T09:32:28.999Z</time></trkpt><trkpt lat="38.08670552909996" lon="13.237738348998482"><ele>859.5</ele><time>2026-05-03T09:32:34.999Z</time></trkpt><trkpt lat="38.086751469567815" lon="13.237660933711037"><ele>863.6666666666667</ele><time>2026-05-03T09:32:37.999Z</time></trkpt><trkpt lat="38.0866750420239" lon="13.237618408776804"><ele>867.8333333333334</ele><time>2026-05-03T09:32:41.999Z</time></trkpt><trkpt lat="38.08658115975002" lon="13.237634147307082"><ele>872.0</ele><time>2026-05-03T09:32:44.999Z</time></trkpt><trkpt lat="38.086500142541986" lon="13.237684658488531"><ele>872.0</ele><time>2026-05-03T09:33:02.999Z</time></trkpt><trkpt lat="38.08643415349182" lon="13.237673383329726"><ele>872.0</ele><time>2026-05-03T09:33:05.999Z</time></trkpt><trkpt lat="38.08636946669604" lon="13.237622463851885"><ele>872.0</ele><time>2026-05-03T09:33:08.999Z</time></trkpt><trkpt lat="38.08631269392683" lon="13.237572679024925"><ele>872.0</ele><time>2026-05-03T09:33:12.999Z</time></trkpt><trkpt lat="38.08627830219756" lon="13.237500645626838"><ele>872.0</ele><time>2026-05-03T09:33:31Z</time></trkpt><trkpt lat="38.08621656703523" lon="13.23753705295478"><ele>872.0</ele><time>2026-05-03T09:33:38Z</time></trkpt><trkpt lat="38.086140327790794" lon="13.237557689700719"><ele>872.0</ele><time>2026-05-03T09:33:42Z</time></trkpt><trkpt lat="38.086101473837864" lon="13.237465348567891"><ele>872.0</ele><time>2026-05-03T09:44:07Z</time></trkpt><trkpt lat="38.086099334405795" lon="13.237365891827327"><ele>872.0</ele><time>2026-05-03T09:44:09Z</time></trkpt><trkpt lat="38.08609232475376" lon="13.237285607078249"><ele>872.0</ele><time>2026-05-03T09:44:11Z</time></trkpt><trkpt lat="38.08608447107224" lon="13.237187481252866"><ele>872.0</ele><time>2026-05-03T09:44:13Z</time></trkpt><trkpt lat="38.08606882666436" lon="13.237099584071126"><ele>872.0</ele><time>2026-05-03T09:44:15Z</time></trkpt><trkpt lat="38.08605214753547" lon="13.237018062988252"><ele>872.0</ele><time>2026-05-03T09:44:17Z</time></trkpt><trkpt lat="38.08602509208314" lon="13.236908597920696"><ele>872.0</ele><time>2026-05-03T09:44:20Z</time></trkpt><trkpt lat="38.08601310201889" lon="13.236771982579961"><ele>872.0000000000001</ele><time>2026-05-03T09:44:22Z</time></trkpt><trkpt lat="38.085977873441706" lon="13.23667891947104"><ele>872.0</ele><time>2026-05-03T09:44:24Z</time></trkpt><trkpt lat="38.085979441181884" lon="13.236563257377021"><ele>872.0</ele><time>2026-05-03T09:44:26Z</time></trkpt><trkpt lat="38.085984801295695" lon="13.236465220258452"><ele>872.0</ele><time>2026-05-03T09:44:29Z</time></trkpt><trkpt lat="38.08598618971058" lon="13.236349800239704"><ele>872.0000000000001</ele><time>2026-05-03T09:44:33Z</time></trkpt><trkpt lat="38.08599781565245" lon="13.23624913976276"><ele>872.0</ele><time>2026-05-03T09:44:36Z</time></trkpt><trkpt lat="38.085975362075295" lon="13.236164829014168"><ele>872.0000000000001</ele><time>2026-05-03T09:44:38Z</time></trkpt><trkpt lat="38.085971878973155" lon="13.236044112123862"><ele>872.0</ele><time>2026-05-03T09:44:41Z</time></trkpt><trkpt lat="38.08597676817768" lon="13.235943267503115"><ele>872.0</ele><time>2026-05-03T09:44:43Z</time></trkpt><trkpt lat="38.085974715730345" lon="13.23585877279195"><ele>872.0</ele><time>2026-05-03T09:44:47Z</time></trkpt><trkpt lat="38.08594520576929" lon="13.235754737408751"><ele>872.0000000000001</ele><time>2026-05-03T09:44:50Z</time></trkpt><trkpt lat="38.08592099899309" lon="13.235650493144645"><ele>872.0</ele><time>2026-05-03T09:44:53Z</time></trkpt><trkpt lat="38.08588699602488" lon="13.235570366836798"><ele>873.3333333333334</ele><time>2026-05-03T09:44:56Z</time></trkpt><trkpt lat="38.08587862855917" lon="13.235476181957964"><ele>874.6666666666667</ele><time>2026-05-03T09:44:58Z</time></trkpt><trkpt lat="38.08582325091478" lon="13.235424654628945"><ele>876.0</ele><time>2026-05-03T09:45:01Z</time></trkpt><trkpt lat="38.085781168919574" lon="13.235342443726804"><ele>877.3333333333333</ele><time>2026-05-03T09:45:03Z</time></trkpt><trkpt lat="38.085758779453855" lon="13.23525319164122"><ele>878.6666666666666</ele><time>2026-05-03T09:45:05Z</time></trkpt><trkpt lat="38.08570940001049" lon="13.235165973382834"><ele>880.0</ele><time>2026-05-03T09:45:09Z</time></trkpt><trkpt lat="38.085673807761424" lon="13.23507482018728"><ele>876.5714285714286</ele><time>2026-05-03T09:45:11Z</time></trkpt><trkpt lat="38.08563810035456" lon="13.234980812809468"><ele>873.1428571428571</ele><time>2026-05-03T09:45:13Z</time></trkpt><trkpt lat="38.08562706573226" lon="13.23489835812603"><ele>869.7142857142858</ele><time>2026-05-03T09:45:15Z</time></trkpt><trkpt lat="38.08563815801857" lon="13.234811873349404"><ele>866.2857142857142</ele><time>2026-05-03T09:45:17Z</time></trkpt><trkpt lat="38.08561461177934" lon="13.234726863822855"><ele>862.8571428571429</ele><time>2026-05-03T09:45:20Z</time></trkpt><trkpt lat="38.085609128391845" lon="13.234631167280464"><ele>859.4285714285714</ele><time>2026-05-03T09:45:22Z</time></trkpt><trkpt lat="38.085605775865545" lon="13.234530244790417"><ele>856.0</ele><time>2026-05-03T09:45:24Z</time></trkpt><trkpt lat="38.08560940632264" lon="13.234396831233504"><ele>855.9999999999999</ele><time>2026-05-03T09:45:26Z</time></trkpt><trkpt lat="38.08562724012953" lon="13.234281110724638"><ele>856.0</ele><time>2026-05-03T09:45:28Z</time></trkpt><trkpt lat="38.08565353632807" lon="13.234192825407428"><ele>856.0</ele><time>2026-05-03T09:45:30Z</time></trkpt><trkpt lat="38.085685521333644" lon="13.234099818211584"><ele>856.0</ele><time>2026-05-03T09:46:35Z</time></trkpt><trkpt lat="38.08568507921998" lon="13.233990203997621"><ele>855.9999999999999</ele><time>2026-05-03T09:46:37Z</time></trkpt><trkpt lat="38.08566041202194" lon="13.233899415741813"><ele>856.0</ele><time>2026-05-03T09:46:39Z</time></trkpt><trkpt lat="38.08569202804426" lon="13.233818321698498"><ele>859.9999999999999</ele><time>2026-05-03T09:46:43Z</time></trkpt><trkpt lat="38.08569607878198" lon="13.233712814525061"><ele>864.0</ele><time>2026-05-03T09:46:45Z</time></trkpt><trkpt lat="38.08571102408038" lon="13.233600427068673"><ele>868.0</ele><time>2026-05-03T09:46:47Z</time></trkpt><trkpt lat="38.08573824759429" lon="13.233522618201507"><ele>872.0</ele><time>2026-05-03T09:46:49Z</time></trkpt><trkpt lat="38.08576741492814" lon="13.233443006305807"><ele>875.9999999999999</ele><time>2026-05-03T09:46:51Z</time></trkpt><trkpt lat="38.085793424130806" lon="13.233365542772107"><ele>880.0</ele><time>2026-05-03T09:46:54Z</time></trkpt><trkpt lat="38.08582622700154" lon="13.23327873878775"><ele>882.2857142857142</ele><time>2026-05-03T09:46:58.999Z</time></trkpt><trkpt lat="38.08586908739675" lon="13.233199489929346"><ele>884.5714285714286</ele><time>2026-05-03T09:47:02.999Z</time></trkpt><trkpt lat="38.08590343964699" lon="13.233115035433238"><ele>886.8571428571429</ele><time>2026-05-03T09:47:07.999Z</time></trkpt><trkpt lat="38.085931678878524" lon="13.233036727926333"><ele>889.1428571428571</ele><time>2026-05-03T09:47:22.999Z</time></trkpt><trkpt lat="38.085954557227474" lon="13.23294329685544"><ele>891.4285714285714</ele><time>2026-05-03T09:47:32Z</time></trkpt><trkpt lat="38.08597092803771" lon="13.232847691330544"><ele>893.7142857142857</ele><time>2026-05-03T09:47:36Z</time></trkpt><trkpt lat="38.086005936429395" lon="13.232779069388053"><ele>896.0</ele><time>2026-05-03T09:47:51Z</time></trkpt><trkpt lat="38.08608815111409" lon="13.232809096576965"><ele>900.0000000000001</ele><time>2026-05-03T09:48:20Z</time></trkpt><trkpt lat="38.086157679960145" lon="13.232838338712167"><ele>904.0</ele><time>2026-05-03T09:48:23Z</time></trkpt><trkpt lat="38.08624416105337" lon="13.232828148909089"><ele>908.0</ele><time>2026-05-03T09:48:26Z</time></trkpt><trkpt lat="38.0863041033306" lon="13.23279695916561"><ele>912.0</ele><time>2026-05-03T09:48:29Z</time></trkpt><trkpt lat="38.08628695627328" lon="13.232689455994853"><ele>916.0000000000001</ele><time>2026-05-03T09:48:33Z</time></trkpt><trkpt lat="38.086257181574425" lon="13.232612863427473"><ele>920.0</ele><time>2026-05-03T09:48:39Z</time></trkpt><trkpt lat="38.08633307809413" lon="13.232631027254437"><ele>920.0000000000001</ele><time>2026-05-03T09:49:08.999Z</time></trkpt><trkpt lat="38.08640847025597" lon="13.232617841105927"><ele>920.0</ele><time>2026-05-03T09:49:12.999Z</time></trkpt><trkpt lat="38.08647423051051" lon="13.232562161881466"><ele>920.0</ele><time>2026-05-03T09:49:15.999Z</time></trkpt><trkpt lat="38.08652531474116" lon="13.23248489984984"><ele>920.0</ele><time>2026-05-03T09:49:17.999Z</time></trkpt><trkpt lat="38.08653133165235" lon="13.232385465753861"><ele>920.0000000000001</ele><time>2026-05-03T10:04:34.001Z</time></trkpt><trkpt lat="38.086593637553186" lon="13.232324829047991"><ele>920.0</ele><time>2026-05-03T10:04:35.001Z</time></trkpt><trkpt lat="38.08663634461832" lon="13.2322446683344"><ele>920.2857142857142</ele><time>2026-05-03T10:04:38.001Z</time></trkpt><trkpt lat="38.086705438294906" lon="13.232193598275632"><ele>920.5714285714286</ele><time>2026-05-03T10:04:42.001Z</time></trkpt><trkpt lat="38.08675650863677" lon="13.232109038477352"><ele>920.8571428571429</ele><time>2026-05-03T10:04:47.001Z</time></trkpt><trkpt lat="38.08682696489299" lon="13.232090329203087"><ele>921.1428571428571</ele><time>2026-05-03T10:04:51.001Z</time></trkpt><trkpt lat="38.08689515149188" lon="13.23208173328203"><ele>921.4285714285716</ele><time>2026-05-03T10:04:55.001Z</time></trkpt><trkpt lat="38.086962310215945" lon="13.23210278045609"><ele>921.7142857142858</ele><time>2026-05-03T10:04:58.001Z</time></trkpt><trkpt lat="38.087031328146594" lon="13.232096785990358"><ele>922.0</ele><time>2026-05-03T10:05:00.001Z</time></trkpt><trkpt lat="38.08710059221195" lon="13.23211528528678"><ele>922.0</ele><time>2026-05-03T10:05:06.001Z</time></trkpt><trkpt lat="38.087161934988146" lon="13.232092556973848"><ele>922.0000000000001</ele><time>2026-05-03T10:05:10.001Z</time></trkpt><trkpt lat="38.08723576133971" lon="13.232082515345123"><ele>922.0</ele><time>2026-05-03T10:05:13.001Z</time></trkpt><trkpt lat="38.0873079105172" lon="13.232071141282876"><ele>922.0</ele><time>2026-05-03T10:05:17.001Z</time></trkpt><trkpt lat="38.087384529601785" lon="13.232072566454383"><ele>922.0000000000001</ele><time>2026-05-03T10:05:21.001Z</time></trkpt><trkpt lat="38.08744754218521" lon="13.23209776321695"><ele>922.0</ele><time>2026-05-03T10:05:24.001Z</time></trkpt><trkpt lat="38.087513477523366" lon="13.232085423058901"><ele>922.0</ele><time>2026-05-03T10:05:27.001Z</time></trkpt><trkpt lat="38.087576689042095" lon="13.232085976788703"><ele>922.0</ele><time>2026-05-03T10:05:30.001Z</time></trkpt><trkpt lat="38.08755060454313" lon="13.232004634700987"><ele>922.0000000000001</ele><time>2026-05-03T10:05:35.002Z</time></trkpt><trkpt lat="38.08750229655747" lon="13.231924087942012"><ele>922.0</ele><time>2026-05-03T10:05:38.002Z</time></trkpt><trkpt lat="38.08745054865045" lon="13.231873434508044"><ele>922.0</ele><time>2026-05-03T10:05:41.002Z</time></trkpt><trkpt lat="38.087390611131006" lon="13.23183128031139"><ele>922.0000000000001</ele><time>2026-05-03T10:05:43.002Z</time></trkpt><trkpt lat="38.08731110718785" lon="13.231803071819787"><ele>922.0</ele><time>2026-05-03T10:05:46.002Z</time></trkpt><trkpt lat="38.08724869652639" lon="13.231782448568582"><ele>922.0</ele><time>2026-05-03T10:05:48.002Z</time></trkpt><trkpt lat="38.08718683482247" lon="13.23172212121983"><ele>922.0</ele><time>2026-05-03T10:05:51Z</time></trkpt><trkpt lat="38.087122080047905" lon="13.231657298890921"><ele>922.0000000000001</ele><time>2026-05-03T10:05:54Z</time></trkpt><trkpt lat="38.087074816395834" lon="13.23159857763985"><ele>922.0</ele><time>2026-05-03T10:05:56Z</time></trkpt><trkpt lat="38.08702951917394" lon="13.231536084573897"><ele>922.0</ele><time>2026-05-03T10:05:58Z</time></trkpt><trkpt lat="38.08699663632651" lon="13.231454568158922"><ele>922.0000000000001</ele><time>2026-05-03T10:06:00Z</time></trkpt><trkpt lat="38.08697279058896" lon="13.231376711250697"><ele>922.0</ele><time>2026-05-03T10:06:02Z</time></trkpt><trkpt lat="38.08695243193153" lon="13.231289005563408"><ele>922.0</ele><time>2026-05-03T10:06:05Z</time></trkpt><trkpt lat="38.08694934251256" lon="13.231199435138956"><ele>919.4000000000001</ele><time>2026-05-03T10:06:10Z</time></trkpt><trkpt lat="38.08695128910629" lon="13.231089497260966"><ele>916.8000000000001</ele><time>2026-05-03T10:06:11Z</time></trkpt><trkpt lat="38.08695539406628" lon="13.23094845682147"><ele>914.2</ele><time>2026-05-03T10:06:13Z</time></trkpt><trkpt lat="38.08697706167055" lon="13.230802850392287"><ele>911.6</ele><time>2026-05-03T10:06:15Z</time></trkpt><trkpt lat="38.08696778713667" lon="13.230670989681583"><ele>909.0</ele><time>2026-05-03T10:06:17Z</time></trkpt><trkpt lat="38.08695250109032" lon="13.23053638413985"><ele>905.3333333333334</ele><time>2026-05-03T10:06:19Z</time></trkpt><trkpt lat="38.086901844614715" lon="13.230388330380434"><ele>901.6666666666667</ele><time>2026-05-03T10:06:21Z</time></trkpt><trkpt lat="38.086860870391014" lon="13.230311703660918"><ele>898.0</ele><time>2026-05-03T10:06:22Z</time></trkpt><trkpt lat="38.0868066275218" lon="13.230243690064036"><ele>894.3333333333334</ele><time>2026-05-03T10:06:23Z</time></trkpt><trkpt lat="38.08675189583413" lon="13.230180979322972"><ele>890.6666666666667</ele><time>2026-05-03T10:06:24Z</time></trkpt><trkpt lat="38.086696365091704" lon="13.230120853337718"><ele>887.0</ele><time>2026-05-03T10:06:25Z</time></trkpt><trkpt lat="38.08660768618781" lon="13.230016848912495"><ele>889.0000000000001</ele><time>2026-05-03T10:06:27Z</time></trkpt><trkpt lat="38.086524537465834" lon="13.229898709216815"><ele>891.0</ele><time>2026-05-03T10:06:29Z</time></trkpt><trkpt lat="38.086478163251925" lon="13.229817060417579"><ele>893.0</ele><time>2026-05-03T10:06:30Z</time></trkpt><trkpt lat="38.08644120746899" lon="13.229745545937044"><ele>895.0</ele><time>2026-05-03T10:06:31Z</time></trkpt><trkpt lat="38.08640489011234" lon="13.229666879418144"><ele>897.0000000000001</ele><time>2026-05-03T10:06:32Z</time></trkpt><trkpt lat="38.08637114372062" lon="13.229588380502793"><ele>899.0</ele><time>2026-05-03T10:06:33.001Z</time></trkpt><trkpt lat="38.08633611151161" lon="13.229507427946727"><ele>899.0</ele><time>2026-05-03T10:06:34.001Z</time></trkpt><trkpt lat="38.08629227511936" lon="13.229406130659752"><ele>899.0000000000001</ele><time>2026-05-03T10:06:35.001Z</time></trkpt><trkpt lat="38.086236151486546" lon="13.229305768096795"><ele>899.0000000000001</ele><time>2026-05-03T10:06:36.001Z</time></trkpt><trkpt lat="38.08618422941095" lon="13.229200862757944"><ele>899.0</ele><time>2026-05-03T10:06:37.001Z</time></trkpt><trkpt lat="38.08614478048471" lon="13.229107326546663"><ele>899.0</ele><time>2026-05-03T10:06:38.001Z</time></trkpt><trkpt lat="38.08610209532528" lon="13.229013237812877"><ele>894.4285714285713</ele><time>2026-05-03T10:06:39.001Z</time></trkpt><trkpt lat="38.08606996115669" lon="13.228930110465539"><ele>889.8571428571429</ele><time>2026-05-03T10:06:40.001Z</time></trkpt><trkpt lat="38.08603842333425" lon="13.228847096577658"><ele>885.2857142857142</ele><time>2026-05-03T10:06:41.001Z</time></trkpt><trkpt lat="38.086008132824865" lon="13.228764972327994"><ele>880.7142857142857</ele><time>2026-05-03T10:06:42.001Z</time></trkpt><trkpt lat="38.08598871328078" lon="13.228673254161281"><ele>876.1428571428571</ele><time>2026-05-03T10:06:43.001Z</time></trkpt><trkpt lat="38.08596299199888" lon="13.228598695529593"><ele>871.5714285714286</ele><time>2026-05-03T10:06:44.001Z</time></trkpt><trkpt lat="38.08593218259387" lon="13.22852278182811"><ele>867.0</ele><time>2026-05-03T10:06:45.001Z</time></trkpt><trkpt lat="38.08588913640268" lon="13.228444908383656"><ele>867.0</ele><time>2026-05-03T10:06:46.001Z</time></trkpt><trkpt lat="38.085838834577" lon="13.228372098389123"><ele>867.0</ele><time>2026-05-03T10:06:47.001Z</time></trkpt><trkpt lat="38.08579844066699" lon="13.228298079428123"><ele>867.0</ele><time>2026-05-03T10:06:48.001Z</time></trkpt><trkpt lat="38.08575470677457" lon="13.228221093671932"><ele>867.0</ele><time>2026-05-03T10:06:49.001Z</time></trkpt><trkpt lat="38.08571228997217" lon="13.22815669590039"><ele>867.0</ele><time>2026-05-03T10:06:50.001Z</time></trkpt><trkpt lat="38.08566195438735" lon="13.228089317141889"><ele>867.0</ele><time>2026-05-03T10:06:51.001Z</time></trkpt><trkpt lat="38.085606257808614" lon="13.228028960135775"><ele>867.0</ele><time>2026-05-03T10:06:52.001Z</time></trkpt><trkpt lat="38.08554591031112" lon="13.227976229252077"><ele>865.2</ele><time>2026-05-03T10:06:53.001Z</time></trkpt><trkpt lat="38.08549465279602" lon="13.227923720512186"><ele>863.4000000000001</ele><time>2026-05-03T10:06:54.001Z</time></trkpt><trkpt lat="38.08540716644438" lon="13.227812819489836"><ele>861.5999999999999</ele><time>2026-05-03T10:06:56.001Z</time></trkpt><trkpt lat="38.0853853257545" lon="13.227734202738317"><ele>859.8</ele><time>2026-05-03T10:06:57.001Z</time></trkpt><trkpt lat="38.08531750697297" lon="13.22762114121916"><ele>858.0</ele><time>2026-05-03T10:06:59.001Z</time></trkpt><trkpt lat="38.08521496316128" lon="13.227558802308812"><ele>858.0</ele><time>2026-05-03T10:07:01.001Z</time></trkpt><trkpt lat="38.08513609835494" lon="13.22753580468543"><ele>858.0</ele><time>2026-05-03T10:07:02.001Z</time></trkpt><trkpt lat="38.085063377062376" lon="13.227515620024363"><ele>858.0</ele><time>2026-05-03T10:07:03.001Z</time></trkpt><trkpt lat="38.084988656942706" lon="13.227475828202214"><ele>858.0</ele><time>2026-05-03T10:07:04.001Z</time></trkpt><trkpt lat="38.08491674096967" lon="13.227438789446884"><ele>858.0</ele><time>2026-05-03T10:07:05.001Z</time></trkpt><trkpt lat="38.08484027957607" lon="13.227392812369045"><ele>858.0</ele><time>2026-05-03T10:07:06.001Z</time></trkpt><trkpt lat="38.08476439239232" lon="13.227340115184216"><ele>857.8571428571429</ele><time>2026-05-03T10:07:07.001Z</time></trkpt><trkpt lat="38.08469800078258" lon="13.227291470622786"><ele>857.7142857142858</ele><time>2026-05-03T10:07:08.001Z</time></trkpt><trkpt lat="38.084633318159746" lon="13.227242779069552"><ele>857.5714285714286</ele><time>2026-05-03T10:07:09.001Z</time></trkpt><trkpt lat="38.084578282028026" lon="13.227201349193532"><ele>857.4285714285714</ele><time>2026-05-03T10:07:10.001Z</time></trkpt><trkpt lat="38.08450453365501" lon="13.227171737523785"><ele>857.2857142857142</ele><time>2026-05-03T10:07:11.001Z</time></trkpt><trkpt lat="38.08444307875544" lon="13.227120074395232"><ele>857.1428571428571</ele><time>2026-05-03T10:07:12.001Z</time></trkpt><trkpt lat="38.08438859003385" lon="13.227073364111298"><ele>857.0</ele><time>2026-05-03T10:07:13.001Z</time></trkpt><trkpt lat="38.08434097336276" lon="13.227009578464534"><ele>857.0000000000001</ele><time>2026-05-03T10:07:14.001Z</time></trkpt><trkpt lat="38.08429765039656" lon="13.226863184479974"><ele>857.0</ele><time>2026-05-03T10:07:16.001Z</time></trkpt><trkpt lat="38.084277512725144" lon="13.226778796388817"><ele>857.0</ele><time>2026-05-03T10:07:17.001Z</time></trkpt><trkpt lat="38.08425900152873" lon="13.226701719580836"><ele>857.0</ele><time>2026-05-03T10:07:18.001Z</time></trkpt><trkpt lat="38.08423824641724" lon="13.226615299590254"><ele>857.0000000000001</ele><time>2026-05-03T10:07:19.001Z</time></trkpt><trkpt lat="38.08422020561804" lon="13.22653524696149"><ele>857.0</ele><time>2026-05-03T10:07:20.001Z</time></trkpt><trkpt lat="38.08419981929418" lon="13.226428506069048"><ele>855.6666666666667</ele><time>2026-05-03T10:07:22.001Z</time></trkpt><trkpt lat="38.08418475475536" lon="13.226338560518784"><ele>854.3333333333334</ele><time>2026-05-03T10:07:23.001Z</time></trkpt><trkpt lat="38.08416472838416" lon="13.226257589227775"><ele>853.0</ele><time>2026-05-03T10:07:24.001Z</time></trkpt><trkpt lat="38.084169830552675" lon="13.226152887552834"><ele>851.6666666666667</ele><time>2026-05-03T10:07:25.001Z</time></trkpt><trkpt lat="38.08416159022967" lon="13.226069168009055"><ele>850.3333333333334</ele><time>2026-05-03T10:07:26.001Z</time></trkpt><trkpt lat="38.08414964578204" lon="13.225988391322154"><ele>849.0</ele><time>2026-05-03T10:07:27.001Z</time></trkpt><trkpt lat="38.084130812636964" lon="13.22583592107769"><ele>849.0</ele><time>2026-05-03T10:07:29.001Z</time></trkpt><trkpt lat="38.08415992053783" lon="13.225702435139128"><ele>849.0</ele><time>2026-05-03T10:07:31.001Z</time></trkpt><trkpt lat="38.084217458328254" lon="13.225652141945224"><ele>849.0</ele><time>2026-05-03T10:07:32.001Z</time></trkpt><trkpt lat="38.084244902813246" lon="13.225577975830314"><ele>849.0</ele><time>2026-05-03T10:07:33.001Z</time></trkpt><trkpt lat="38.08426216504743" lon="13.225497882925405"><ele>849.0</ele><time>2026-05-03T10:07:34.001Z</time></trkpt><trkpt lat="38.08426904457694" lon="13.225356443814826"><ele>849.0</ele><time>2026-05-03T10:07:36.001Z</time></trkpt><trkpt lat="38.08427572901043" lon="13.225219145789398"><ele>851.0</ele><time>2026-05-03T10:07:38.001Z</time></trkpt><trkpt lat="38.084295943270035" lon="13.225083418302743"><ele>853.0</ele><time>2026-05-03T10:07:40.001Z</time></trkpt><trkpt lat="38.08431911645101" lon="13.22494488704564"><ele>855.0000000000001</ele><time>2026-05-03T10:07:42.001Z</time></trkpt><trkpt lat="38.08437630885899" lon="13.224843495710148"><ele>857.0</ele><time>2026-05-03T10:07:44.001Z</time></trkpt><trkpt lat="38.08444395990346" lon="13.224891363749332"><ele>859.0</ele><time>2026-05-03T10:07:46.001Z</time></trkpt><trkpt lat="38.08438510326368" lon="13.225003428605982"><ele>858.9999999999999</ele><time>2026-05-03T10:07:48.002Z</time></trkpt><trkpt lat="38.08438344357682" lon="13.22511969220076"><ele>859.0</ele><time>2026-05-03T10:07:50.002Z</time></trkpt><trkpt lat="38.08437550374162" lon="13.225203578877778"><ele>859.0</ele><time>2026-05-03T10:07:51.002Z</time></trkpt><trkpt lat="38.08435941111823" lon="13.225289619446288"><ele>859.0</ele><time>2026-05-03T10:07:52.002Z</time></trkpt><trkpt lat="38.084355536467875" lon="13.22537086623346"><ele>858.9999999999999</ele><time>2026-05-03T10:07:53.002Z</time></trkpt><trkpt lat="38.08435964735019" lon="13.22550934685539"><ele>859.0</ele><time>2026-05-03T10:07:55Z</time></trkpt><trkpt lat="38.08442636310587" lon="13.225580465362059"><ele>859.0</ele><time>2026-05-03T10:07:57Z</time></trkpt><trkpt lat="38.08447923348782" lon="13.225517533385508"><ele>859.0000000000001</ele><time>2026-05-03T10:07:59Z</time></trkpt><trkpt lat="38.084510664483695" lon="13.225386692434899"><ele>859.0000000000001</ele><time>2026-05-03T10:08:00.999Z</time></trkpt><trkpt lat="38.08451910452037" lon="13.225299731365348"><ele>859.0</ele><time>2026-05-03T10:08:01.999Z</time></trkpt><trkpt lat="38.08456832882045" lon="13.225166963303357"><ele>859.0</ele><time>2026-05-03T10:08:04Z</time></trkpt><trkpt lat="38.084643156221624" lon="13.225032428916228"><ele>859.0</ele><time>2026-05-03T10:08:06Z</time></trkpt><trkpt lat="38.08473110845665" lon="13.224944397559275"><ele>859.0000000000001</ele><time>2026-05-03T10:08:08Z</time></trkpt><trkpt lat="38.08479923515501" lon="13.224842640963422"><ele>859.0000000000001</ele><time>2026-05-03T10:08:10Z</time></trkpt><trkpt lat="38.08483667038609" lon="13.224731727355584"><ele>859.0</ele><time>2026-05-03T10:08:12Z</time></trkpt><trkpt lat="38.08484312217869" lon="13.224649266684578"><ele>859.0</ele><time>2026-05-03T10:08:15Z</time></trkpt><trkpt lat="38.08485863701472" lon="13.224536898020547"><ele>858.2</ele><time>2026-05-03T10:08:19Z</time></trkpt><trkpt lat="38.08488550116586" lon="13.224435777016238"><ele>857.4000000000001</ele><time>2026-05-03T10:08:22Z</time></trkpt><trkpt lat="38.08490979891574" lon="13.224321300365695"><ele>856.6</ele><time>2026-05-03T10:08:24Z</time></trkpt><trkpt lat="38.0849435331975" lon="13.224169628627976"><ele>855.8</ele><time>2026-05-03T10:08:26Z</time></trkpt><trkpt lat="38.08494445424751" lon="13.22407177922108"><ele>855.0</ele><time>2026-05-03T10:08:27Z</time></trkpt><trkpt lat="38.084934332673576" lon="13.223963996641368"><ele>852.0</ele><time>2026-05-03T10:08:28Z</time></trkpt><trkpt lat="38.084929201825055" lon="13.2238525774142"><ele>849.0</ele><time>2026-05-03T10:08:29Z</time></trkpt><trkpt lat="38.08495845759601" lon="13.223771552679231"><ele>846.0</ele><time>2026-05-03T10:08:30Z</time></trkpt><trkpt lat="38.0849860501344" lon="13.223688381166435"><ele>843.0</ele><time>2026-05-03T10:08:31Z</time></trkpt><trkpt lat="38.085017805115534" lon="13.223581683139468"><ele>840.0</ele><time>2026-05-03T10:08:32Z</time></trkpt><trkpt lat="38.08505777482408" lon="13.223472987033968"><ele>837.0</ele><time>2026-05-03T10:08:33Z</time></trkpt><trkpt lat="38.08509872579552" lon="13.223367781717284"><ele>833.8</ele><time>2026-05-03T10:08:34Z</time></trkpt><trkpt lat="38.085143948766195" lon="13.223251561983892"><ele>830.6</ele><time>2026-05-03T10:08:35Z</time></trkpt><trkpt lat="38.085203458066445" lon="13.223133797453094"><ele>827.4</ele><time>2026-05-03T10:08:36Z</time></trkpt><trkpt lat="38.08528293406111" lon="13.223057488050086"><ele>824.1999999999999</ele><time>2026-05-03T10:08:37Z</time></trkpt><trkpt lat="38.08536550972975" lon="13.222969377590516"><ele>821.0</ele><time>2026-05-03T10:08:38Z</time></trkpt><trkpt lat="38.0854559557619" lon="13.222889150723866"><ele>820.5</ele><time>2026-05-03T10:08:39Z</time></trkpt><trkpt lat="38.08555119663246" lon="13.222803263095225"><ele>820.0</ele><time>2026-05-03T10:08:40Z</time></trkpt><trkpt lat="38.085673282266406" lon="13.222749300685946"><ele>819.5</ele><time>2026-05-03T10:08:41.001Z</time></trkpt><trkpt lat="38.08578157413323" lon="13.22266646504824"><ele>819.0</ele><time>2026-05-03T10:08:42.001Z</time></trkpt><trkpt lat="38.085893585676224" lon="13.222603506830275"><ele>819.2</ele><time>2026-05-03T10:08:43.001Z</time></trkpt><trkpt lat="38.086003955637025" lon="13.22252777502867"><ele>819.4000000000001</ele><time>2026-05-03T10:08:44.001Z</time></trkpt><trkpt lat="38.08608274584849" lon="13.222455964248798"><ele>819.6</ele><time>2026-05-03T10:08:45.001Z</time></trkpt><trkpt lat="38.086145540434764" lon="13.222377493419057"><ele>819.8</ele><time>2026-05-03T10:08:46.001Z</time></trkpt><trkpt lat="38.086218153360875" lon="13.222322815909024"><ele>820.0</ele><time>2026-05-03T10:08:47.001Z</time></trkpt><trkpt lat="38.08628506653871" lon="13.222295802619493"><ele>820.0</ele><time>2026-05-03T10:08:48.001Z</time></trkpt><trkpt lat="38.08635167065098" lon="13.222295085111599"><ele>820.0</ele><time>2026-05-03T10:08:49.001Z</time></trkpt><trkpt lat="38.086432293244144" lon="13.222286772565582"><ele>820.0</ele><time>2026-05-03T10:08:50.001Z</time></trkpt><trkpt lat="38.08652606965623" lon="13.22225816585573"><ele>820.0</ele><time>2026-05-03T10:08:51.001Z</time></trkpt><trkpt lat="38.08662618818387" lon="13.222216889382782"><ele>820.0</ele><time>2026-05-03T10:08:52.001Z</time></trkpt><trkpt lat="38.08673611372439" lon="13.222162435714749"><ele>821.4</ele><time>2026-05-03T10:08:53.001Z</time></trkpt><trkpt lat="38.08683864529746" lon="13.222108663688582"><ele>822.8</ele><time>2026-05-03T10:08:54.001Z</time></trkpt><trkpt lat="38.086933149255074" lon="13.22209166976062"><ele>824.2</ele><time>2026-05-03T10:08:55.001Z</time></trkpt><trkpt lat="38.08704591720918" lon="13.222076852444454"><ele>825.6</ele><time>2026-05-03T10:08:56.001Z</time></trkpt><trkpt lat="38.087140531743266" lon="13.222078384959293"><ele>827.0</ele><time>2026-05-03T10:08:57.001Z</time></trkpt><trkpt lat="38.08723331493738" lon="13.222092837030662"><ele>827.0000000000001</ele><time>2026-05-03T10:08:58.001Z</time></trkpt><trkpt lat="38.087321979977794" lon="13.222122289734473"><ele>827.0</ele><time>2026-05-03T10:08:59.001Z</time></trkpt><trkpt lat="38.087407001329694" lon="13.222175177282972"><ele>827.0</ele><time>2026-05-03T10:09:00.001Z</time></trkpt><trkpt lat="38.08749951844175" lon="13.222231005468617"><ele>827.0</ele><time>2026-05-03T10:09:01.001Z</time></trkpt><trkpt lat="38.08757941123482" lon="13.222251361020133"><ele>827.0000000000001</ele><time>2026-05-03T10:09:02.001Z</time></trkpt><trkpt lat="38.08764857052027" lon="13.222286930576056"><ele>827.0</ele><time>2026-05-03T10:09:03.001Z</time></trkpt><trkpt lat="38.087726452888965" lon="13.22232460131735"><ele>822.2</ele><time>2026-05-03T10:09:04.001Z</time></trkpt><trkpt lat="38.087808821798546" lon="13.22234828143584"><ele>817.4000000000001</ele><time>2026-05-03T10:09:05.001Z</time></trkpt><trkpt lat="38.08791118254675" lon="13.222369647020232"><ele>812.5999999999999</ele><time>2026-05-03T10:09:06.001Z</time></trkpt><trkpt lat="38.08799948722073" lon="13.222378687776946"><ele>807.8</ele><time>2026-05-03T10:09:07.001Z</time></trkpt><trkpt lat="38.0881091703408" lon="13.222377991279533"><ele>803.0</ele><time>2026-05-03T10:09:08.001Z</time></trkpt><trkpt lat="38.088211079870995" lon="13.222341759651544"><ele>803.0</ele><time>2026-05-03T10:09:09.001Z</time></trkpt><trkpt lat="38.08831803725628" lon="13.222324767531113"><ele>803.0</ele><time>2026-05-03T10:09:10.001Z</time></trkpt><trkpt lat="38.088424948305665" lon="13.222305248921378"><ele>803.0</ele><time>2026-05-03T10:09:11.001Z</time></trkpt><trkpt lat="38.08851516848525" lon="13.222286838138551"><ele>803.0</ele><time>2026-05-03T10:09:12.001Z</time></trkpt><trkpt lat="38.08860615757396" lon="13.222295628611016"><ele>803.0</ele><time>2026-05-03T10:09:13.001Z</time></trkpt><trkpt lat="38.08867738374989" lon="13.222362546352894"><ele>803.0</ele><time>2026-05-03T10:09:14.001Z</time></trkpt><trkpt lat="38.08874933450931" lon="13.222406705150076"><ele>803.0</ele><time>2026-05-03T10:09:15.001Z</time></trkpt><trkpt lat="38.08884488869052" lon="13.222461793889185"><ele>803.0</ele><time>2026-05-03T10:09:16.001Z</time></trkpt><trkpt lat="38.08893939262377" lon="13.222530634107182"><ele>803.0</ele><time>2026-05-03T10:09:17.001Z</time></trkpt><trkpt lat="38.08905093353084" lon="13.222598189674576"><ele>803.0</ele><time>2026-05-03T10:09:18.001Z</time></trkpt><trkpt lat="38.08913987375222" lon="13.222633665010008"><ele>803.8</ele><time>2026-05-03T10:09:19.001Z</time></trkpt><trkpt lat="38.089224328430106" lon="13.222651103285465"><ele>804.5999999999999</ele><time>2026-05-03T10:09:20.001Z</time></trkpt><trkpt lat="38.08932086392612" lon="13.222679197279287"><ele>805.4000000000001</ele><time>2026-05-03T10:09:21.001Z</time></trkpt><trkpt lat="38.08941698336248" lon="13.222705668136358"><ele>806.2</ele><time>2026-05-03T10:09:22.001Z</time></trkpt><trkpt lat="38.08950169048118" lon="13.222779418485263"><ele>807.0</ele><time>2026-05-03T10:09:23.001Z</time></trkpt><trkpt lat="38.089602242592115" lon="13.222809805711595"><ele>807.0</ele><time>2026-05-03T10:09:24.001Z</time></trkpt><trkpt lat="38.08969972994263" lon="13.22283511673578"><ele>807.0</ele><time>2026-05-03T10:09:25.001Z</time></trkpt><trkpt lat="38.089803573554285" lon="13.222843035051651"><ele>807.0</ele><time>2026-05-03T10:09:26.001Z</time></trkpt><trkpt lat="38.08990209785189" lon="13.222852139351506"><ele>807.0</ele><time>2026-05-03T10:09:27.001Z</time></trkpt><trkpt lat="38.08999234407616" lon="13.222884696785643"><ele>807.0</ele><time>2026-05-03T10:09:28.001Z</time></trkpt><trkpt lat="38.09005718415946" lon="13.222907961248715"><ele>806.2</ele><time>2026-05-03T10:09:29.001Z</time></trkpt><trkpt lat="38.09013745039323" lon="13.222854161483276"><ele>805.4000000000001</ele><time>2026-05-03T10:09:31.001Z</time></trkpt><trkpt lat="38.090134294841505" lon="13.22270329509873"><ele>804.5999999999999</ele><time>2026-05-03T10:09:33.001Z</time></trkpt><trkpt lat="38.0901113735571" lon="13.222594648791208"><ele>803.8</ele><time>2026-05-03T10:09:34.001Z</time></trkpt><trkpt lat="38.09010945034876" lon="13.22245137531512"><ele>803.0</ele><time>2026-05-03T10:09:35.001Z</time></trkpt><trkpt lat="38.090072569921254" lon="13.222316119006125"><ele>804.1666666666667</ele><time>2026-05-03T10:09:36.001Z</time></trkpt><trkpt lat="38.090052052371576" lon="13.222196070245689"><ele>805.3333333333334</ele><time>2026-05-03T10:09:37.001Z</time></trkpt><trkpt lat="38.09001604025877" lon="13.222102261412058"><ele>806.5</ele><time>2026-05-03T10:09:38.001Z</time></trkpt><trkpt lat="38.08996477874034" lon="13.222031957859537"><ele>807.6666666666667</ele><time>2026-05-03T10:09:39.001Z</time></trkpt><trkpt lat="38.08990756254253" lon="13.221995986086668"><ele>808.8333333333334</ele><time>2026-05-03T10:09:40.001Z</time></trkpt><trkpt lat="38.08983753523641" lon="13.221925389399273"><ele>810.0</ele><time>2026-05-03T10:09:41.001Z</time></trkpt><trkpt lat="38.08974143341422" lon="13.221876979475338"><ele>810.0</ele><time>2026-05-03T10:09:42.001Z</time></trkpt><trkpt lat="38.08966208313736" lon="13.221855235681874"><ele>810.0</ele><time>2026-05-03T10:09:43.001Z</time></trkpt><trkpt lat="38.089580304757646" lon="13.221898609646535"><ele>810.0</ele><time>2026-05-03T10:09:44.001Z</time></trkpt><trkpt lat="38.08950561392647" lon="13.221876029831728"><ele>810.0</ele><time>2026-05-03T10:09:45.001Z</time></trkpt><trkpt lat="38.08943957126964" lon="13.221857465098955"><ele>810.0</ele><time>2026-05-03T10:09:46.001Z</time></trkpt><trkpt lat="38.089367331625795" lon="13.221817272192315"><ele>810.0</ele><time>2026-05-03T10:09:47.001Z</time></trkpt><trkpt lat="38.089308504417936" lon="13.221777853665074"><ele>810.0</ele><time>2026-05-03T10:09:48.002Z</time></trkpt><trkpt lat="38.089315327658774" lon="13.22168403511444"><ele>810.0</ele><time>2026-05-03T10:09:49.002Z</time></trkpt><trkpt lat="38.08929739435504" lon="13.22158255361589"><ele>810.0</ele><time>2026-05-03T10:09:50.002Z</time></trkpt><trkpt lat="38.089302164839076" lon="13.221482834869931"><ele>810.0</ele><time>2026-05-03T10:09:51.002Z</time></trkpt><trkpt lat="38.089230282020495" lon="13.221359638057296"><ele>810.0</ele><time>2026-05-03T10:09:53.002Z</time></trkpt><trkpt lat="38.089160185082044" lon="13.221304168505325"><ele>810.0</ele><time>2026-05-03T10:09:54.002Z</time></trkpt><trkpt lat="38.089074476961066" lon="13.221238029807157"><ele>813.75</ele><time>2026-05-03T10:09:55.002Z</time></trkpt><trkpt lat="38.08896796165644" lon="13.221134773792636"><ele>817.5</ele><time>2026-05-03T10:09:56.002Z</time></trkpt><trkpt lat="38.088874699406595" lon="13.221054011791946"><ele>821.25</ele><time>2026-05-03T10:09:57.002Z</time></trkpt><trkpt lat="38.0888007421004" lon="13.220965263783514"><ele>825.0</ele><time>2026-05-03T10:09:58.002Z</time></trkpt><trkpt lat="38.088726662565364" lon="13.220855925353565"><ele>825.0</ele><time>2026-05-03T10:09:59.002Z</time></trkpt><trkpt lat="38.08865639997507" lon="13.220728837730594"><ele>825.0</ele><time>2026-05-03T10:10:00.002Z</time></trkpt><trkpt lat="38.088575913761346" lon="13.220608017349493"><ele>825.0</ele><time>2026-05-03T10:10:01Z</time></trkpt><trkpt lat="38.08852189992041" lon="13.220495530118074"><ele>825.0</ele><time>2026-05-03T10:10:02Z</time></trkpt><trkpt lat="38.088485202378585" lon="13.22038396515512"><ele>825.0</ele><time>2026-05-03T10:10:03Z</time></trkpt><trkpt lat="38.088448750825776" lon="13.220287087527021"><ele>824.3333333333334</ele><time>2026-05-03T10:10:04Z</time></trkpt><trkpt lat="38.0884314004677" lon="13.220208270603493"><ele>823.6666666666667</ele><time>2026-05-03T10:10:05Z</time></trkpt><trkpt lat="38.08842107332941" lon="13.220128172100265"><ele>823.0</ele><time>2026-05-03T10:10:06Z</time></trkpt><trkpt lat="38.08842211093243" lon="13.220046607979974"><ele>822.3333333333334</ele><time>2026-05-03T10:10:07Z</time></trkpt><trkpt lat="38.088429305905656" lon="13.219958233098087"><ele>821.6666666666667</ele><time>2026-05-03T10:10:08Z</time></trkpt><trkpt lat="38.08850403806611" lon="13.219803435061866"><ele>821.0</ele><time>2026-05-03T10:10:10Z</time></trkpt><trkpt lat="38.088545535187556" lon="13.219702782027124"><ele>821.0000000000001</ele><time>2026-05-03T10:10:11Z</time></trkpt><trkpt lat="38.08856786901318" lon="13.21960737725585"><ele>821.0</ele><time>2026-05-03T10:10:12Z</time></trkpt><trkpt lat="38.08858966223136" lon="13.219505270174656"><ele>821.0</ele><time>2026-05-03T10:10:13Z</time></trkpt><trkpt lat="38.088628089331046" lon="13.21941771765358"><ele>821.0</ele><time>2026-05-03T10:10:14Z</time></trkpt><trkpt lat="38.08868081971692" lon="13.219351932956664"><ele>821.0000000000001</ele><time>2026-05-03T10:10:15Z</time></trkpt><trkpt lat="38.088770839491346" lon="13.21930847981148"><ele>821.0</ele><time>2026-05-03T10:10:16Z</time></trkpt><trkpt lat="38.08882922161307" lon="13.219229409653966"><ele>821.0000000000001</ele><time>2026-05-03T10:10:17Z</time></trkpt><trkpt lat="38.08887908573864" lon="13.219165836289468"><ele>821.0</ele><time>2026-05-03T10:10:18Z</time></trkpt><trkpt lat="38.08891164413408" lon="13.21908890173225"><ele>821.0</ele><time>2026-05-03T10:10:19Z</time></trkpt><trkpt lat="38.08895146496125" lon="13.21899571775226"><ele>821.0</ele><time>2026-05-03T10:10:20Z</time></trkpt><trkpt lat="38.08899660787076" lon="13.21891922616049"><ele>821.0</ele><time>2026-05-03T10:10:21Z</time></trkpt><trkpt lat="38.08904783494017" lon="13.21885017305649"><ele>821.0000000000001</ele><time>2026-05-03T10:10:22Z</time></trkpt><trkpt lat="38.08909503528841" lon="13.218785954763254"><ele>821.0</ele><time>2026-05-03T10:10:23Z</time></trkpt><trkpt lat="38.08919228419156" lon="13.218686424071594"><ele>819.5999999999999</ele><time>2026-05-03T10:10:25Z</time></trkpt><trkpt lat="38.089277508363764" lon="13.218573731314194"><ele>818.2</ele><time>2026-05-03T10:10:27Z</time></trkpt><trkpt lat="38.08937738819286" lon="13.218513498676556"><ele>816.8</ele><time>2026-05-03T10:10:29Z</time></trkpt><trkpt lat="38.08944773964346" lon="13.218470324279766"><ele>815.4000000000001</ele><time>2026-05-03T10:10:30Z</time></trkpt><trkpt lat="38.089537448827755" lon="13.218464955012964"><ele>814.0</ele><time>2026-05-03T10:10:31Z</time></trkpt><trkpt lat="38.08961337893272" lon="13.218500681636987"><ele>813.9999999999999</ele><time>2026-05-03T10:10:32Z</time></trkpt><trkpt lat="38.08969273481648" lon="13.218528439412614"><ele>814.0</ele><time>2026-05-03T10:10:33Z</time></trkpt><trkpt lat="38.08978694129466" lon="13.218571524594555"><ele>814.0</ele><time>2026-05-03T10:10:34Z</time></trkpt><trkpt lat="38.08986764915425" lon="13.218618695727027"><ele>814.0</ele><time>2026-05-03T10:10:35Z</time></trkpt><trkpt lat="38.08994408592502" lon="13.21867329931681"><ele>813.9999999999999</ele><time>2026-05-03T10:10:36Z</time></trkpt><trkpt lat="38.090014056870494" lon="13.218711746263455"><ele>814.0</ele><time>2026-05-03T10:10:37Z</time></trkpt><trkpt lat="38.090089637385425" lon="13.21872048638202"><ele>811.6</ele><time>2026-05-03T10:10:38Z</time></trkpt><trkpt lat="38.09016064945271" lon="13.218668497485398"><ele>809.2</ele><time>2026-05-03T10:10:39Z</time></trkpt><trkpt lat="38.09020816188049" lon="13.218574510970063"><ele>806.8000000000001</ele><time>2026-05-03T10:10:40Z</time></trkpt><trkpt lat="38.090264072122515" lon="13.218494477439926"><ele>804.4000000000001</ele><time>2026-05-03T10:10:41Z</time></trkpt><trkpt lat="38.09033692112508" lon="13.21839658864903"><ele>802.0</ele><time>2026-05-03T10:10:42.001Z</time></trkpt><trkpt lat="38.090395208527006" lon="13.218300741099746"><ele>801.9999999999999</ele><time>2026-05-03T10:10:43.001Z</time></trkpt><trkpt lat="38.090462325562825" lon="13.218212293750005"><ele>802.0</ele><time>2026-05-03T10:10:44.001Z</time></trkpt><trkpt lat="38.09051896947323" lon="13.218153897612657"><ele>802.0</ele><time>2026-05-03T10:10:45.001Z</time></trkpt><trkpt lat="38.09059491744914" lon="13.21813400460744"><ele>802.0</ele><time>2026-05-03T10:10:46.001Z</time></trkpt><trkpt lat="38.090669141405264" lon="13.218123494377652"><ele>801.9999999999999</ele><time>2026-05-03T10:10:47.001Z</time></trkpt><trkpt lat="38.09074888525705" lon="13.218109354382817"><ele>802.0</ele><time>2026-05-03T10:10:48.001Z</time></trkpt><trkpt lat="38.09082931219787" lon="13.218081800753245"><ele>796.6</ele><time>2026-05-03T10:10:49.001Z</time></trkpt><trkpt lat="38.09091624844451" lon="13.218074420419635"><ele>791.2</ele><time>2026-05-03T10:10:50.001Z</time></trkpt><trkpt lat="38.09100114708598" lon="13.218054770114517"><ele>785.8</ele><time>2026-05-03T10:10:52.001Z</time></trkpt><trkpt lat="38.09096782198702" lon="13.217918327721465"><ele>780.4</ele><time>2026-05-03T10:10:54.001Z</time></trkpt><trkpt lat="38.090933558393225" lon="13.217821914688752"><ele>775.0</ele><time>2026-05-03T10:10:55.001Z</time></trkpt><trkpt lat="38.09088114925714" lon="13.217695872398943"><ele>775.0</ele><time>2026-05-03T10:10:56.001Z</time></trkpt><trkpt lat="38.09084745735364" lon="13.217543997753399"><ele>775.0</ele><time>2026-05-03T10:10:57.001Z</time></trkpt><trkpt lat="38.09080956375585" lon="13.217422097827763"><ele>775.0</ele><time>2026-05-03T10:10:58.001Z</time></trkpt><trkpt lat="38.09080882591692" lon="13.217302515839473"><ele>775.0</ele><time>2026-05-03T10:10:59.001Z</time></trkpt><trkpt lat="38.090796042988686" lon="13.217214199562402"><ele>775.0</ele><time>2026-05-03T10:11:00.001Z</time></trkpt><trkpt lat="38.09078729957927" lon="13.217130457594086"><ele>774.9999999999999</ele><time>2026-05-03T10:11:01.001Z</time></trkpt><trkpt lat="38.090863600054824" lon="13.217136852944623"><ele>775.0</ele><time>2026-05-03T10:11:05.001Z</time></trkpt><trkpt lat="38.09090578242843" lon="13.217281371545772"><ele>775.0</ele><time>2026-05-03T10:11:07.001Z</time></trkpt><trkpt lat="38.090938007735154" lon="13.217361096490164"><ele>775.0</ele><time>2026-05-03T10:11:08.001Z</time></trkpt><trkpt lat="38.09098856982671" lon="13.217448468573357"><ele>774.9999999999999</ele><time>2026-05-03T10:11:09.001Z</time></trkpt><trkpt lat="38.09104226615845" lon="13.217524564852667"><ele>775.0</ele><time>2026-05-03T10:11:10.001Z</time></trkpt><trkpt lat="38.091100574713685" lon="13.217596237469401"><ele>775.0</ele><time>2026-05-03T10:11:11.001Z</time></trkpt><trkpt lat="38.09116363499041" lon="13.217662178341795"><ele>775.0</ele><time>2026-05-03T10:11:12.001Z</time></trkpt><trkpt lat="38.091215452730495" lon="13.217725970600494"><ele>775.0</ele><time>2026-05-03T10:11:13.001Z</time></trkpt><trkpt lat="38.09129517948236" lon="13.217862568587263"><ele>775.0</ele><time>2026-05-03T10:11:15.001Z</time></trkpt><trkpt lat="38.09137858235698" lon="13.217978218057366"><ele>775.0</ele><time>2026-05-03T10:11:17.001Z</time></trkpt><trkpt lat="38.091421284364436" lon="13.218051534234766"><ele>774.9999999999999</ele><time>2026-05-03T10:11:18.001Z</time></trkpt><trkpt lat="38.09145231514202" lon="13.218128221505602"><ele>775.0</ele><time>2026-05-03T10:11:19.001Z</time></trkpt><trkpt lat="38.09149308521398" lon="13.218204913222955"><ele>775.0</ele><time>2026-05-03T10:11:20.001Z</time></trkpt><trkpt lat="38.09153360024431" lon="13.218291775068714"><ele>775.0</ele><time>2026-05-03T10:11:21.001Z</time></trkpt><trkpt lat="38.09156504346635" lon="13.218364874974817"><ele>774.9999999999999</ele><time>2026-05-03T10:11:22.001Z</time></trkpt><trkpt lat="38.09156966941543" lon="13.218456815519037"><ele>775.0</ele><time>2026-05-03T10:11:23.001Z</time></trkpt><trkpt lat="38.09154292253543" lon="13.218577126415271"><ele>774.8333333333333</ele><time>2026-05-03T10:11:25.001Z</time></trkpt><trkpt lat="38.09151047105379" lon="13.218660785073883"><ele>774.6666666666666</ele><time>2026-05-03T10:11:26.001Z</time></trkpt><trkpt lat="38.09145334821371" lon="13.218749629374502"><ele>774.5</ele><time>2026-05-03T10:11:27.001Z</time></trkpt><trkpt lat="38.091406989870585" lon="13.218812047735211"><ele>774.3333333333333</ele><time>2026-05-03T10:11:28.001Z</time></trkpt><trkpt lat="38.0913534605414" lon="13.21887289317265"><ele>774.1666666666666</ele><time>2026-05-03T10:11:29.001Z</time></trkpt><trkpt lat="38.091249038100734" lon="13.218939018611085"><ele>774.0</ele><time>2026-05-03T10:11:31.001Z</time></trkpt><trkpt lat="38.091190397427205" lon="13.2189681943668"><ele>769.5</ele><time>2026-05-03T10:11:32.001Z</time></trkpt><trkpt lat="38.091119150785865" lon="13.218991495443223"><ele>765.0</ele><time>2026-05-03T10:11:33.001Z</time></trkpt><trkpt lat="38.0910314574038" lon="13.219002219149921"><ele>760.5</ele><time>2026-05-03T10:11:34.001Z</time></trkpt><trkpt lat="38.0909477289926" lon="13.21903245220024"><ele>756.0</ele><time>2026-05-03T10:11:35.001Z</time></trkpt><trkpt lat="38.09089273265687" lon="13.219084643421239"><ele>751.5</ele><time>2026-05-03T10:11:36.001Z</time></trkpt><trkpt lat="38.09087098254449" lon="13.219176062127588"><ele>747.0</ele><time>2026-05-03T10:11:37.001Z</time></trkpt><trkpt lat="38.0908735712808" lon="13.219277288338127"><ele>747.0</ele><time>2026-05-03T10:11:38.001Z</time></trkpt><trkpt lat="38.090873040509656" lon="13.219386500690709"><ele>747.0</ele><time>2026-05-03T10:11:39.001Z</time></trkpt><trkpt lat="38.09086533269011" lon="13.219502205279479"><ele>747.0</ele><time>2026-05-03T10:11:40.001Z</time></trkpt><trkpt lat="38.090857408827276" lon="13.219601215097445"><ele>747.0</ele><time>2026-05-03T10:11:41.001Z</time></trkpt><trkpt lat="38.09078186001194" lon="13.219660441063107"><ele>747.0</ele><time>2026-05-03T10:11:43.001Z</time></trkpt><trkpt lat="38.09069615313033" lon="13.219613086369213"><ele>747.0</ele><time>2026-05-03T10:11:45.001Z</time></trkpt><trkpt lat="38.0906297043639" lon="13.219619453762578"><ele>747.1666666666666</ele><time>2026-05-03T10:11:46.001Z</time></trkpt><trkpt lat="38.09053999591882" lon="13.21961791344658"><ele>747.3333333333334</ele><time>2026-05-03T10:11:47.002Z</time></trkpt><trkpt lat="38.09044554601384" lon="13.219622218022907"><ele>747.5</ele><time>2026-05-03T10:11:48.002Z</time></trkpt><trkpt lat="38.09036758309099" lon="13.21964435124697"><ele>747.6666666666667</ele><time>2026-05-03T10:11:49.002Z</time></trkpt><trkpt lat="38.090307799656536" lon="13.219704593902167"><ele>747.8333333333334</ele><time>2026-05-03T10:11:50.002Z</time></trkpt><trkpt lat="38.09026648186167" lon="13.219791107517572"><ele>748.0</ele><time>2026-05-03T10:11:51.002Z</time></trkpt><trkpt lat="38.09030459634487" lon="13.219911337020852"><ele>748.0</ele><time>2026-05-03T10:11:53.002Z</time></trkpt><trkpt lat="38.09037813615176" lon="13.219949542325127"><ele>748.0</ele><time>2026-05-03T10:11:55.002Z</time></trkpt><trkpt lat="38.09049294305818" lon="13.219975945429416"><ele>748.0</ele><time>2026-05-03T10:11:57.002Z</time></trkpt><trkpt lat="38.09059468709218" lon="13.220068313276423"><ele>748.0</ele><time>2026-05-03T10:11:59.002Z</time></trkpt><trkpt lat="38.09066661440159" lon="13.220118984592943"><ele>748.0</ele><time>2026-05-03T10:12:00.002Z</time></trkpt><trkpt lat="38.09078203422519" lon="13.220168763799634"><ele>744.2</ele><time>2026-05-03T10:12:02.002Z</time></trkpt><trkpt lat="38.09087391390664" lon="13.220146790492924"><ele>740.4</ele><time>2026-05-03T10:12:04.002Z</time></trkpt><trkpt lat="38.09095697121223" lon="13.220100635367254"><ele>736.6</ele><time>2026-05-03T10:12:07Z</time></trkpt><trkpt lat="38.091039082605754" lon="13.22009786733447"><ele>732.8000000000001</ele><time>2026-05-03T10:12:23Z</time></trkpt><trkpt lat="38.09115827585558" lon="13.220155239867081"><ele>729.0</ele><time>2026-05-03T10:12:25Z</time></trkpt><trkpt lat="38.09122700176721" lon="13.220165400007739"><ele>729.0</ele><time>2026-05-03T10:12:26Z</time></trkpt><trkpt lat="38.09129446610154" lon="13.220175080520772"><ele>729.0</ele><time>2026-05-03T10:12:27Z</time></trkpt><trkpt lat="38.09136450414487" lon="13.220198908280176"><ele>729.0</ele><time>2026-05-03T10:12:28Z</time></trkpt><trkpt lat="38.09143499921332" lon="13.220234665525535"><ele>729.0</ele><time>2026-05-03T10:12:29Z</time></trkpt><trkpt lat="38.09151035975247" lon="13.220283786286696"><ele>729.0</ele><time>2026-05-03T10:12:30Z</time></trkpt><trkpt lat="38.09159071635558" lon="13.220321550252846"><ele>729.0</ele><time>2026-05-03T10:12:31Z</time></trkpt><trkpt lat="38.09167470530585" lon="13.220340807349864"><ele>726.5714285714286</ele><time>2026-05-03T10:12:32Z</time></trkpt><trkpt lat="38.09175588886375" lon="13.220337203066281"><ele>724.1428571428571</ele><time>2026-05-03T10:12:33Z</time></trkpt><trkpt lat="38.09183057252196" lon="13.220343030278327"><ele>721.7142857142857</ele><time>2026-05-03T10:12:34Z</time></trkpt><trkpt lat="38.09189114360723" lon="13.220371743002955"><ele>719.2857142857142</ele><time>2026-05-03T10:12:35Z</time></trkpt><trkpt lat="38.091898925308115" lon="13.22045823579288"><ele>716.8571428571429</ele><time>2026-05-03T10:12:36Z</time></trkpt><trkpt lat="38.091947499386805" lon="13.220520225766606"><ele>714.4285714285713</ele><time>2026-05-03T10:12:37.001Z</time></trkpt><trkpt lat="38.0920186975182" lon="13.220591589624743"><ele>712.0</ele><time>2026-05-03T10:12:38.001Z</time></trkpt><trkpt lat="38.092131977164904" lon="13.220602556419987"><ele>712.0</ele><time>2026-05-03T10:12:40.001Z</time></trkpt><trkpt lat="38.09224721540882" lon="13.220631675859678"><ele>712.0</ele><time>2026-05-03T10:12:41.001Z</time></trkpt><trkpt lat="38.09233520546234" lon="13.220684836417744"><ele>712.0</ele><time>2026-05-03T10:12:42.001Z</time></trkpt><trkpt lat="38.09240678520335" lon="13.220727306767236"><ele>712.0</ele><time>2026-05-03T10:12:43.001Z</time></trkpt><trkpt lat="38.092508504551375" lon="13.220809694953548"><ele>712.0</ele><time>2026-05-03T10:12:45.001Z</time></trkpt><trkpt lat="38.092554296224726" lon="13.220871353173825"><ele>710.8</ele><time>2026-05-03T10:12:46.001Z</time></trkpt><trkpt lat="38.09258119248498" lon="13.220996589424253"><ele>709.6</ele><time>2026-05-03T10:12:48.001Z</time></trkpt><trkpt lat="38.092620161561975" lon="13.221102918287023"><ele>708.4</ele><time>2026-05-03T10:12:50.001Z</time></trkpt><trkpt lat="38.092647321207885" lon="13.221194297344253"><ele>707.1999999999999</ele><time>2026-05-03T10:12:52.001Z</time></trkpt><trkpt lat="38.09273284074008" lon="13.221238470559836"><ele>706.0</ele><time>2026-05-03T10:12:54.001Z</time></trkpt><trkpt lat="38.0928288460359" lon="13.22129724426894"><ele>706.0</ele><time>2026-05-03T10:12:56.001Z</time></trkpt><trkpt lat="38.09291212850137" lon="13.22136267309984"><ele>706.0</ele><time>2026-05-03T10:12:58.001Z</time></trkpt><trkpt lat="38.09300333688677" lon="13.221485356334629"><ele>706.0</ele><time>2026-05-03T10:13:00.001Z</time></trkpt><trkpt lat="38.093057020149814" lon="13.221527838117497"><ele>706.0</ele><time>2026-05-03T10:13:01.001Z</time></trkpt><trkpt lat="38.09312680735219" lon="13.221565498861818"><ele>706.0</ele><time>2026-05-03T10:13:02.001Z</time></trkpt><trkpt lat="38.09317680514367" lon="13.221617695055158"><ele>706.0</ele><time>2026-05-03T10:13:03.001Z</time></trkpt><trkpt lat="38.09320805030782" lon="13.221731649035284"><ele>707.5999999999999</ele><time>2026-05-03T10:13:05.001Z</time></trkpt><trkpt lat="38.09317840661621" lon="13.2218743902574"><ele>709.2</ele><time>2026-05-03T10:13:07.001Z</time></trkpt><trkpt lat="38.09317638414111" lon="13.222020625912474"><ele>710.8</ele><time>2026-05-03T10:13:09.001Z</time></trkpt><trkpt lat="38.09319693393799" lon="13.222119140642604"><ele>712.4000000000001</ele><time>2026-05-03T10:13:11.001Z</time></trkpt><trkpt lat="38.09329765445144" lon="13.222188068556964"><ele>714.0</ele><time>2026-05-03T10:13:14.001Z</time></trkpt><trkpt lat="38.09335643602541" lon="13.222155546451328"><ele>710.2</ele><time>2026-05-03T10:13:16.001Z</time></trkpt><trkpt lat="38.093420982080346" lon="13.222087376504538"><ele>706.4000000000001</ele><time>2026-05-03T10:13:19.001Z</time></trkpt><trkpt lat="38.09347629821639" lon="13.221990759445301"><ele>702.6</ele><time>2026-05-03T10:13:21.001Z</time></trkpt><trkpt lat="38.09355051429656" lon="13.221884738436442"><ele>698.8</ele><time>2026-05-03T10:13:23.001Z</time></trkpt><trkpt lat="38.09359507276931" lon="13.221758463447053"><ele>695.0</ele><time>2026-05-03T10:13:25.001Z</time></trkpt><trkpt lat="38.093649922576645" lon="13.221660833622888"><ele>695.0</ele><time>2026-05-03T10:13:27.001Z</time></trkpt><trkpt lat="38.09368939622678" lon="13.221589113304843"><ele>695.0</ele><time>2026-05-03T10:13:28.001Z</time></trkpt><trkpt lat="38.09371036699427" lon="13.221513311689383"><ele>695.0</ele><time>2026-05-03T10:13:29.001Z</time></trkpt><trkpt lat="38.09376387155261" lon="13.221453661143114"><ele>695.0</ele><time>2026-05-03T10:13:30.001Z</time></trkpt><trkpt lat="38.09381422447715" lon="13.221363453039531"><ele>695.0</ele><time>2026-05-03T10:13:32.001Z</time></trkpt><trkpt lat="38.09383420618868" lon="13.221235302235788"><ele>695.0</ele><time>2026-05-03T10:13:35.001Z</time></trkpt><trkpt lat="38.09378741849092" lon="13.2211338845162"><ele>693.4</ele><time>2026-05-03T10:13:38.001Z</time></trkpt><trkpt lat="38.09374579074351" lon="13.221054264169519"><ele>691.8</ele><time>2026-05-03T10:13:40.001Z</time></trkpt><trkpt lat="38.093712031425895" lon="13.220973869784249"><ele>690.2</ele><time>2026-05-03T10:13:42.001Z</time></trkpt><trkpt lat="38.093641753254474" lon="13.221091619937885"><ele>688.6</ele><time>2026-05-03T10:13:43.001Z</time></trkpt><trkpt lat="38.093522876784384" lon="13.221034222383224"><ele>687.0</ele><time>2026-05-03T10:13:45.002Z</time></trkpt><trkpt lat="38.09344509274598" lon="13.22094400549326"><ele>687.0</ele><time>2026-05-03T10:13:46.002Z</time></trkpt><trkpt lat="38.09345571446973" lon="13.220794693859096"><ele>687.0</ele><time>2026-05-03T10:13:47.002Z</time></trkpt><trkpt lat="38.09361646294018" lon="13.22078491413448"><ele>687.0</ele><time>2026-05-03T10:13:48.002Z</time></trkpt><trkpt lat="38.09370352071267" lon="13.220753665535618"><ele>687.0</ele><time>2026-05-03T10:13:50.002Z</time></trkpt><trkpt lat="38.093802090461566" lon="13.220682988129782"><ele>687.0</ele><time>2026-05-03T10:13:52.002Z</time></trkpt><trkpt lat="38.09387196562853" lon="13.220617660601217"><ele>687.0</ele><time>2026-05-03T10:13:53.002Z</time></trkpt><trkpt lat="38.093943981623156" lon="13.220538613920509"><ele>687.0</ele><time>2026-05-03T10:13:54.002Z</time></trkpt><trkpt lat="38.09402523155117" lon="13.220463571366171"><ele>687.0</ele><time>2026-05-03T10:13:55.002Z</time></trkpt><trkpt lat="38.09410032940345" lon="13.22039577835864"><ele>687.0</ele><time>2026-05-03T10:13:56.002Z</time></trkpt><trkpt lat="38.09417840432685" lon="13.22032881448718"><ele>684.4000000000001</ele><time>2026-05-03T10:13:57.002Z</time></trkpt><trkpt lat="38.09425326955809" lon="13.220252682170901"><ele>681.8000000000001</ele><time>2026-05-03T10:13:58.002Z</time></trkpt><trkpt lat="38.09429587096353" lon="13.220182078087618"><ele>679.2</ele><time>2026-05-03T10:13:59.002Z</time></trkpt><trkpt lat="38.09428444572426" lon="13.220041526898973"><ele>676.6</ele><time>2026-05-03T10:14:01.002Z</time></trkpt><trkpt lat="38.09437992154145" lon="13.21995654482495"><ele>674.0</ele><time>2026-05-03T10:14:04.002Z</time></trkpt><trkpt lat="38.09443316993976" lon="13.220092112420323"><ele>674.0</ele><time>2026-05-03T10:14:05.002Z</time></trkpt><trkpt lat="38.09447485961216" lon="13.220177423772542"><ele>674.0</ele><time>2026-05-03T10:14:08.002Z</time></trkpt><trkpt lat="38.094493552072606" lon="13.220268986646463"><ele>674.0</ele><time>2026-05-03T10:14:43.001Z</time></trkpt></trkseg><trkseg><trkpt lat="38.09459994877726" lon="13.220337867298724"><ele>674.0</ele><time>2026-05-03T10:28:04Z</time></trkpt><trkpt lat="38.09459427911413" lon="13.22043753839448"><ele>674.0</ele><time>2026-05-03T10:28:06Z</time></trkpt><trkpt lat="38.09459945343552" lon="13.220541328101056"><ele>674.0</ele><time>2026-05-03T10:28:08Z</time></trkpt><trkpt lat="38.094633303308946" lon="13.22064562989725"><ele>674.0</ele><time>2026-05-03T10:28:10Z</time></trkpt><trkpt lat="38.09466888319796" lon="13.22079111100207"><ele>674.0</ele><time>2026-05-03T10:28:12Z</time></trkpt><trkpt lat="38.09468911350992" lon="13.220868216449865"><ele>674.0</ele><time>2026-05-03T10:28:13Z</time></trkpt><trkpt lat="38.09474349606679" lon="13.220917989044068"><ele>674.1666666666666</ele><time>2026-05-03T10:28:14Z</time></trkpt><trkpt lat="38.09478305680836" lon="13.221049157575445"><ele>674.3333333333333</ele><time>2026-05-03T10:28:16Z</time></trkpt><trkpt lat="38.09480058326949" lon="13.22112720601501"><ele>674.5</ele><time>2026-05-03T10:28:17Z</time></trkpt><trkpt lat="38.09481690250943" lon="13.22120669130496"><ele>674.6666666666666</ele><time>2026-05-03T10:28:18Z</time></trkpt><trkpt lat="38.09484304820184" lon="13.221364525599492"><ele>674.8333333333334</ele><time>2026-05-03T10:28:20Z</time></trkpt><trkpt lat="38.09485566571268" lon="13.221446720463884"><ele>675.0</ele><time>2026-05-03T10:28:21Z</time></trkpt><trkpt lat="38.09487738732754" lon="13.221588222669817"><ele>675.0</ele><time>2026-05-03T10:28:23Z</time></trkpt><trkpt lat="38.094891853470884" lon="13.221675603519788"><ele>675.0</ele><time>2026-05-03T10:28:24Z</time></trkpt><trkpt lat="38.09490635222585" lon="13.221763096329518"><ele>675.0</ele><time>2026-05-03T10:28:25Z</time></trkpt><trkpt lat="38.094926432982476" lon="13.22188427374904"><ele>675.0</ele><time>2026-05-03T10:28:27Z</time></trkpt><trkpt lat="38.09494308616422" lon="13.221984767491765"><ele>675.0</ele><time>2026-05-03T10:28:29Z</time></trkpt><trkpt lat="38.094965561772646" lon="13.222120396647824"><ele>675.0</ele><time>2026-05-03T10:28:31Z</time></trkpt><trkpt lat="38.094987737094364" lon="13.222254213737179"><ele>674.3333333333334</ele><time>2026-05-03T10:28:33Z</time></trkpt><trkpt lat="38.09500568929929" lon="13.222362546397877"><ele>673.6666666666666</ele><time>2026-05-03T10:28:35Z</time></trkpt><trkpt lat="38.09502501689823" lon="13.222453086844876"><ele>673.0</ele><time>2026-05-03T10:28:38Z</time></trkpt><trkpt lat="38.095037240738634" lon="13.22255261904588"><ele>672.3333333333333</ele><time>2026-05-03T10:28:41Z</time></trkpt><trkpt lat="38.09508545474055" lon="13.22260848301696"><ele>671.6666666666666</ele><time>2026-05-03T10:28:42Z</time></trkpt><trkpt lat="38.095117412222756" lon="13.222718302646673"><ele>671.0</ele><time>2026-05-03T10:28:44Z</time></trkpt><trkpt lat="38.095131727698515" lon="13.222796448446163"><ele>671.0</ele><time>2026-05-03T10:28:46Z</time></trkpt><trkpt lat="38.09513629490027" lon="13.222934251604714"><ele>671.0</ele><time>2026-05-03T10:28:48Z</time></trkpt><trkpt lat="38.095171625055855" lon="13.223072105153058"><ele>671.0</ele><time>2026-05-03T10:28:50Z</time></trkpt><trkpt lat="38.09522031528251" lon="13.223197862462635"><ele>671.0</ele><time>2026-05-03T10:28:52Z</time></trkpt><trkpt lat="38.09525001276902" lon="13.223307054953422"><ele>671.0</ele><time>2026-05-03T10:28:54Z</time></trkpt><trkpt lat="38.09528479513191" lon="13.223403320407709"><ele>671.6666666666666</ele><time>2026-05-03T10:28:58Z</time></trkpt><trkpt lat="38.0953142903609" lon="13.223484766869946"><ele>672.3333333333333</ele><time>2026-05-03T10:29:01Z</time></trkpt><trkpt lat="38.09537317998014" lon="13.223543217708452"><ele>673.0</ele><time>2026-05-03T10:29:05Z</time></trkpt><trkpt lat="38.09540829226313" lon="13.223619830242631"><ele>673.6666666666666</ele><time>2026-05-03T10:29:09Z</time></trkpt><trkpt lat="38.09540555027117" lon="13.223711963541014"><ele>674.3333333333334</ele><time>2026-05-03T10:29:14Z</time></trkpt><trkpt lat="38.095416570956736" lon="13.223818653148847"><ele>675.0</ele><time>2026-05-03T10:29:16Z</time></trkpt><trkpt lat="38.095460925076544" lon="13.2239161423009"><ele>674.1666666666666</ele><time>2026-05-03T10:29:18Z</time></trkpt><trkpt lat="38.095455229162624" lon="13.224017522086871"><ele>673.3333333333334</ele><time>2026-05-03T10:29:22Z</time></trkpt><trkpt lat="38.09546332010047" lon="13.224116265813567"><ele>672.5</ele><time>2026-05-03T10:29:25Z</time></trkpt><trkpt lat="38.09547685684126" lon="13.22424361832503"><ele>671.6666666666667</ele><time>2026-05-03T10:29:28Z</time></trkpt><trkpt lat="38.09548745089758" lon="13.224323580696579"><ele>670.8333333333334</ele><time>2026-05-03T10:29:29Z</time></trkpt><trkpt lat="38.09552926679243" lon="13.224426595179127"><ele>670.0</ele><time>2026-05-03T10:29:31Z</time></trkpt><trkpt lat="38.09556491894264" lon="13.2245046696973"><ele>670.0</ele><time>2026-05-03T10:29:33Z</time></trkpt><trkpt lat="38.095605078713035" lon="13.224582400348773"><ele>670.0</ele><time>2026-05-03T10:29:35Z</time></trkpt><trkpt lat="38.0956608634421" lon="13.224653262319205"><ele>670.0</ele><time>2026-05-03T10:29:36Z</time></trkpt><trkpt lat="38.09573829413935" lon="13.224722830114478"><ele>670.0</ele><time>2026-05-03T10:29:38Z</time></trkpt><trkpt lat="38.09568912294322" lon="13.224819042425407"><ele>671.0</ele><time>2026-05-03T10:29:40Z</time></trkpt></trkseg></trk></gpx>